[[{"header":{"parameterUnit":"m.s-1","parameterCategory":1,"la1":31.0,"la2":29.5877,"lo1":-88.7671,"lo2":-86.6584,"dy":0.0162,"dx":0.0185,"nx":115,"ny":88,"refTime":"2024-11-22T06:00:00:Z","depth":0,"parameterNumber":2,"parameterNumberName":"U-component_of_WINDS"},"data":[0.0,0.0,0.0,0.0,0.0,0.0,0.0,0.0,0.0,0.0,0.0,0.0,0.0,0.0,0.0,0.0,0.0,0.0,0.0,0.0,0.0,0.0,0.0,0.0,0.0,0.0,0.0,0.0,0.0,0.0,0.0,0.0,0.0,0.0,0.0,0.0,0.0,0.0,0.0,0.0,0.0,0.0,0.0,0.0,0.0,0.0,0.0,0.0,0.0,0.0,0.0,0.0,0.0,0.0,0.0,0.0,0.0,0.0,0.0,0.0,0.0,0.0,0.0,0.0,0.0,0.0,0.0,0.0,0.0,0.0,0.0,0.0,0.0,0.0,0.0,0.0,0.0,0.0,0.0,0.0,0.0,0.0,0.0,0.0,0.0,0.0,0.0,0.0,0.0,0.0,0.0,0.0,0.0,0.0,0.0,0.0,0.0,0.0,0.0,0.0,0.0,0.0,0.0,0.0,0.0,0.0,0.0,0.0,0.0,0.0,0.0,0.0,0.0,0.0,0.0,0.0,0.0,0.0,0.0,0.0,0.0,0.0,0.0,0.0,0.0,0.0,0.0,0.0,0.0,0.0,0.0,0.0,0.0,0.0,0.0,0.0,0.0,0.0,0.0,0.0,0.0,0.0,0.0,0.0,0.0,0.0,0.0,0.0,0.0,0.0,0.0,0.0,0.0,0.0,0.0,0.0,0.0,0.0,0.0,0.0,0.0,0.0,0.0,0.0,0.0,0.0,0.0,0.0,0.0,0.0,0.0,0.0,0.0,0.0,0.0,0.0,0.0,0.0,0.0,0.0,0.0,0.0,0.0,0.0,0.0,0.0,0.0,0.0,0.0,0.0,0.0,0.0,0.0,0.0,0.0,0.0,0.0,0.0,0.0,0.0,0.0,0.0,0.0,0.0,0.0,0.0,0.0,0.0,0.0,0.0,0.0,0.0,0.0,0.0,0.0,0.0,0.0,0.0,0.0,0.0,0.0,0.0,0.0,0.0,0.0,0.0,0.0,0.0,0.0,0.0,0.0,0.0,0.0,0.0,0.0,0.0,0.0,0.0,0.0,0.0,0.0,0.0,0.0,0.0,0.0,0.0,0.0,0.0,0.0,0.0,0.0,0.0,0.0,0.0,0.0,0.0,0.0,0.0,0.0,0.0,0.0,0.0,0.0,0.0,0.0,0.0,0.0,0.0,0.0,0.0,0.0,0.0,0.0,0.0,0.0,0.0,0.0,0.0,0.0,0.0,0.0,0.0,0.0,0.0,0.0,0.0,0.0,0.0,0.0,0.0,0.0,0.0,0.0,0.0,0.0,0.0,0.0,0.0,0.0,0.0,0.0,0.0,0.0,0.0,0.0,0.0,0.0,0.0,0.0,0.0,0.0,0.0,0.0,0.0,0.0,0.0,0.0,0.0,0.0,0.0,0.0,0.0,0.0,0.0,0.0,0.0,0.0,0.0,0.0,0.0,0.0,0.0,0.0,0.0,0.0,0.0,0.0,0.0,0.0,0.0,0.0,0.0,0.0,0.0,0.0,0.0,0.0,0.0,0.0,0.0,0.0,0.0,0.0,0.0,0.0,0.0,0.0,0.0,0.0,0.0,0.0,0.0,0.0,0.0,0.0,0.0,0.0,0.0,0.0,0.0,0.0,0.0,0.0,0.0,0.0,0.0,0.0,0.0,0.0,0.0,0.0,0.0,0.0,0.0,0.0,0.0,0.0,0.0,0.0,0.0,0.0,0.0,0.0,0.0,0.0,0.0,0.0,0.0,0.0,0.0,0.0,0.0,0.0,0.0,0.0,0.0,0.0,0.0,0.0,0.0,0.0,0.0,0.0,0.0,0.0,0.0,0.0,0.0,0.0,0.0,0.0,0.0,0.0,0.0,0.0,0.0,0.0,0.0,0.0,0.0,0.0,0.0,0.0,0.0,0.0,0.0,0.0,0.0,0.0,0.0,0.0,0.0,0.0,0.0,0.0,0.0,0.0,0.0,0.0,0.0,0.0,0.0,0.0,0.0,0.0,0.0,0.0,0.0,0.0,0.0,0.0,0.0,0.0,0.0,0.0,0.0,0.0,0.0,0.0,0.0,0.0,0.0,0.0,0.0,0.0,0.0,0.0,0.0,0.0,0.0,0.0,0.0,0.0,0.0,0.0,0.0,0.0,0.0,0.0,0.0,0.0,0.0,0.0,0.0,0.0,0.0,0.0,0.0,0.0,0.0,0.0,0.0,0.0,0.0,0.0,0.0,0.0,0.0,0.0,0.0,0.0,0.0,0.0,0.0,0.0,0.0,0.0,0.0,0.0,0.0,0.0,0.0,0.0,0.0,0.0,0.0,0.0,0.0,0.0,0.0,0.0,0.0,0.0,0.0,0.0,0.0,0.0,0.0,0.0,0.0,0.0,0.0,0.0,0.0,0.0,0.0,0.0,0.0,0.0,0.0,0.0,0.0,0.0,0.0,0.0,0.0,0.0,0.0,0.0,0.0,0.0,0.0,0.0,0.0,0.0,0.0,0.0,0.0,0.0,0.0,0.0,0.0,0.0,0.0,0.0,0.0,0.0,0.0,0.0,0.0,0.0,0.0,0.0,0.0,0.0,0.0,0.0,0.0,0.0,0.0,0.0,0.0,0.0,0.0,0.0,0.0,0.0,0.0,0.0,0.0,0.0,0.0,0.0,0.0,0.0,0.0,0.0,0.0,0.0,0.0,0.0,0.0,0.0,0.0,0.0,0.0,0.0,0.0,0.0,0.0,0.0,0.0,0.0,0.0,0.0,0.0,0.0,0.0,0.0,0.0,0.0,0.0,0.0,0.0,0.0,0.0,0.0,0.0,0.0,0.0,0.0,0.0,0.0,0.0,0.0,0.0,0.0,0.0,0.0,0.0,0.0,0.0,0.0,0.0,0.0,0.0,0.0,0.0,0.0,0.0,0.0,0.0,0.0,0.0,0.0,0.0,0.0,0.0,0.0,0.0,0.0,0.0,0.0,0.0,0.0,0.0,0.0,0.0,0.0,0.0,0.0,0.0,0.0,0.0,0.0,0.0,0.0,0.0,0.0,0.0,0.0,0.0,0.0,0.0,0.0,0.0,0.0,0.0,0.0,0.0,0.0,0.0,0.0,0.0,0.0,0.0,0.0,0.0,0.0,0.0,0.0,0.0,0.0,0.0,0.0,0.0,0.0,0.0,0.0,0.0,0.0,0.0,0.0,0.0,0.0,0.0,0.0,0.0,0.0,0.0,0.0,0.0,0.0,0.0,0.0,0.0,0.0,0.0,0.0,0.0,0.0,0.0,0.0,0.0,0.0,0.0,0.0,0.0,0.0,0.0,0.0,0.0,0.0,0.0,0.0,0.0,0.0,0.0,0.0,0.0,0.0,0.0,0.0,0.0,0.0,0.0,0.0,0.0,0.0,0.0,0.0,0.0,0.0,0.0,0.0,0.0,0.0,0.0,0.0,0.0,0.0,0.0,0.0,0.0,0.0,0.0,0.0,0.0,0.0,0.0,0.0,0.0,0.0,0.0,0.0,0.0,0.0,0.0,0.0,0.0,0.0,0.0,0.0,0.0,0.0,0.0,0.0,0.0,0.0,0.0,0.0,0.0,0.0,0.0,0.0,0.0,0.0,0.0,0.0,0.0,0.0,0.0,0.0,0.0,0.0,0.0,0.0,0.0,0.0,0.0,0.0,0.0,0.0,0.0,0.0,0.0,0.0,0.0,0.0,0.0,0.0,0.0,0.0,0.0,0.0,0.0,0.0,0.0,0.0,0.0,0.0,0.0,0.0,0.0,0.0,0.0,0.0,0.0,0.0,0.0,0.0,0.0,0.0,0.0,0.0,0.0,0.0,0.0,0.0,0.0,0.0,0.0,0.0,0.0,0.0,0.0,0.0,0.0,0.0,0.0,0.0,0.0,0.0,0.0,0.0,0.0,0.0,0.0,0.0,0.0,0.0,0.0,0.0,0.0,0.0,0.0,0.0,0.0,0.0,0.0,0.0,0.0,0.0,0.0,0.0,0.0,0.0,0.0,0.0,0.0,0.0,0.0,0.0,0.0,0.0,0.0,0.0,0.0,0.0,0.0,0.0,0.0,0.0,0.0,0.0,0.0,0.0,0.0,0.0,0.0,0.0,0.0,0.0,0.0,0.0,0.0,0.0,0.0,0.0,0.0,0.0,0.0,0.0,0.0,0.0,0.0,0.0,0.0,0.0,0.0,0.0,0.0,0.0,0.0,0.0,0.0,0.0,0.0,0.0,0.0,0.0,0.0,0.0,0.0,0.0,0.0,-1.9787,0.0,0.0,0.0,0.0,0.0,0.0,0.0,0.0,0.0,0.0,0.0,0.0,0.0,0.0,0.0,0.0,0.0,0.0,0.0,0.0,0.0,0.0,0.0,0.0,0.0,0.0,0.0,0.0,0.0,0.0,0.0,0.0,0.0,0.0,0.0,0.0,0.0,0.0,0.0,0.0,0.0,0.0,0.0,0.0,0.0,0.0,0.0,0.0,0.0,0.0,0.0,0.0,0.0,0.0,0.0,0.0,0.0,0.0,0.0,0.0,0.0,0.0,0.0,0.0,0.0,0.0,0.0,0.0,0.0,0.0,0.0,0.0,0.0,0.0,0.0,0.0,0.0,0.0,0.0,0.0,0.0,0.0,0.0,0.0,0.0,0.0,0.0,0.0,0.0,0.0,0.0,0.0,0.0,0.0,0.0,0.0,0.0,0.0,0.0,0.0,0.0,0.0,0.0,0.0,0.0,0.0,0.0,0.0,0.0,0.0,-1.9584,-1.9584,-1.9438,-1.9227,-1.8932,0.0,0.0,0.0,0.0,0.0,0.0,0.0,0.0,0.0,0.0,0.0,0.0,0.0,0.0,0.0,0.0,0.0,0.0,0.0,0.0,0.0,0.0,0.0,0.0,0.0,0.0,0.0,0.0,0.0,0.0,0.0,0.0,0.0,0.0,0.0,0.0,0.0,0.0,0.0,0.0,0.0,0.0,0.0,0.0,0.0,0.0,0.0,0.0,0.0,0.0,0.0,0.0,0.0,0.0,0.0,0.0,0.0,0.0,0.0,0.0,0.0,0.0,0.0,0.0,0.0,0.0,0.0,0.0,0.0,0.0,0.0,0.0,0.0,0.0,0.0,0.0,0.0,0.0,0.0,0.0,0.0,0.0,0.0,0.0,0.0,0.0,0.0,0.0,0.0,0.0,0.0,0.0,0.0,0.0,0.0,0.0,0.0,0.0,0.0,0.0,0.0,0.0,0.0,0.0,0.0,0.0,0.0,0.0,0.0,0.0,0.0,0.0,-1.9507,-1.9133,-1.843,0.0,0.0,0.0,0.0,0.0,0.0,0.0,0.0,0.0,0.0,0.0,0.0,0.0,0.0,0.0,0.0,0.0,0.0,0.0,0.0,0.0,0.0,0.0,0.0,0.0,0.0,0.0,0.0,0.0,0.0,0.0,0.0,0.0,0.0,0.0,0.0,0.0,0.0,0.0,0.0,0.0,0.0,0.0,0.0,0.0,0.0,0.0,0.0,0.0,0.0,0.0,0.0,0.0,0.0,0.0,0.0,0.0,0.0,0.0,0.0,0.0,0.0,0.0,0.0,0.0,0.0,0.0,0.0,0.0,0.0,0.0,0.0,0.0,0.0,0.0,0.0,0.0,0.0,0.0,0.0,0.0,0.0,0.0,0.0,0.0,0.0,0.0,0.0,0.0,0.0,0.0,0.0,0.0,0.0,0.0,0.0,0.0,0.0,0.0,0.0,0.0,0.0,0.0,0.0,0.0,0.0,0.0,0.0,0.0,0.0,-1.9156,-2.0091,-1.9815,0.0,-1.9003,0.0,0.0,0.0,0.0,0.0,0.0,0.0,0.0,0.0,0.0,0.0,0.0,0.0,0.0,0.0,0.0,0.0,0.0,0.0,0.0,0.0,0.0,0.0,0.0,0.0,0.0,0.0,0.0,0.0,0.0,0.0,0.0,0.0,0.0,0.0,0.0,0.0,0.0,0.0,0.0,0.0,0.0,0.0,0.0,0.0,0.0,0.0,0.0,0.0,0.0,0.0,0.0,0.0,0.0,0.0,0.0,0.0,0.0,0.0,0.0,0.0,0.0,0.0,0.0,0.0,0.0,0.0,0.0,0.0,0.0,0.0,0.0,0.0,0.0,0.0,0.0,0.0,0.0,0.0,0.0,0.0,0.0,0.0,0.0,0.0,0.0,0.0,0.0,0.0,0.0,0.0,0.0,0.0,0.0,0.0,0.0,0.0,0.0,0.0,0.0,0.0,0.0,0.0,0.0,0.0,0.0,0.0,0.0,0.0,0.0,-1.9553,-1.9789,-1.8813,-1.8121,0.0,0.0,0.0,0.0,0.0,0.0,0.0,0.0,0.0,0.0,0.0,0.0,0.0,0.0,0.0,0.0,0.0,0.0,0.0,0.0,0.0,0.0,0.0,0.0,0.0,0.0,0.0,0.0,0.0,0.0,0.0,0.0,0.0,0.0,0.0,0.0,0.0,0.0,0.0,0.0,0.0,0.0,0.0,0.0,0.0,0.0,0.0,0.0,0.0,0.0,0.0,0.0,0.0,0.0,0.0,0.0,0.0,0.0,0.0,0.0,0.0,0.0,0.0,0.0,0.0,0.0,0.0,0.0,0.0,0.0,0.0,0.0,0.0,0.0,0.0,0.0,0.0,0.0,0.0,0.0,0.0,0.0,0.0,0.0,0.0,0.0,0.0,0.0,0.0,0.0,0.0,0.0,0.0,0.0,0.0,0.0,0.0,0.0,0.0,0.0,0.0,0.0,0.0,0.0,0.0,0.0,0.0,0.0,0.0,0.0,-1.9607,0.0,-1.9559,-1.8429,-1.7542,-1.6986,0.0,0.0,0.0,0.0,0.0,0.0,0.0,0.0,0.0,0.0,0.0,0.0,0.0,0.0,0.0,0.0,0.0,0.0,0.0,0.0,0.0,0.0,0.0,0.0,0.0,0.0,0.0,0.0,0.0,0.0,0.0,0.0,0.0,0.0,0.0,0.0,0.0,0.0,0.0,0.0,0.0,0.0,0.0,0.0,0.0,0.0,0.0,0.0,0.0,0.0,0.0,0.0,0.0,0.0,0.0,0.0,0.0,0.0,0.0,0.0,0.0,0.0,0.0,0.0,0.0,0.0,0.0,0.0,0.0,0.0,0.0,0.0,0.0,0.0,0.0,0.0,0.0,0.0,0.0,0.0,0.0,0.0,0.0,0.0,0.0,0.0,0.0,0.0,0.0,0.0,0.0,0.0,0.0,0.0,0.0,0.0,0.0,0.0,0.0,0.0,0.0,0.0,0.0,0.0,0.0,0.0,0.0,0.0,0.0,-1.967,-1.9379,-1.985,-1.933,-1.8344,0.0,0.0,0.0,0.0,0.0,0.0,0.0,0.0,0.0,0.0,0.0,0.0,0.0,0.0,0.0,0.0,0.0,0.0,0.0,0.0,0.0,0.0,0.0,0.0,0.0,0.0,0.0,0.0,0.0,0.0,0.0,0.0,0.0,0.0,0.0,0.0,0.0,0.0,0.0,0.0,0.0,0.0,0.0,0.0,0.0,0.0,0.0,0.0,0.0,0.0,0.0,0.0,0.0,0.0,0.0,0.0,0.0,0.0,0.0,0.0,0.0,0.0,0.0,0.0,0.0,0.0,0.0,0.0,0.0,0.0,0.0,0.0,0.0,0.0,0.0,0.0,0.0,0.0,0.0,0.0,0.0,0.0,0.0,0.0,0.0,0.0,0.0,0.0,0.0,0.0,0.0,0.0,0.0,0.0,0.0,0.0,0.0,0.0,0.0,0.0,0.0,0.0,0.0,0.0,0.0,0.0,0.0,0.0,0.0,-1.9045,-1.8834,-1.906,-1.9686,-1.8269,-1.7225,0.0,0.0,0.0,0.0,0.0,0.0,0.0,0.0,0.0,0.0,0.0,0.0,0.0,0.0,0.0,0.0,0.0,0.0,0.0,0.0,0.0,0.0,0.0,0.0,0.0,0.0,0.0,0.0,0.0,0.0,0.0,0.0,0.0,0.0,0.0,0.0,0.0,0.0,0.0,0.0,0.0,0.0,0.0,0.0,0.0,0.0,0.0,0.0,0.0,0.0,0.0,0.0,0.0,0.0,0.0,0.0,0.0,0.0,0.0,0.0,0.0,0.0,0.0,0.0,0.0,0.0,0.0,0.0,0.0,0.0,0.0,0.0,0.0,0.0,0.0,0.0,0.0,0.0,0.0,0.0,0.0,0.0,0.0,0.0,0.0,0.0,0.0,0.0,0.0,0.0,0.0,0.0,0.0,0.0,0.0,0.0,0.0,0.0,0.0,0.0,0.0,0.0,0.0,0.0,0.0,0.0,0.0,0.0,0.0,-1.7915,0.0,-1.8688,0.0,-1.7353,-1.6263,0.0,0.0,0.0,0.0,0.0,0.0,0.0,0.0,0.0,0.0,0.0,0.0,0.0,0.0,0.0,0.0,0.0,0.0,0.0,0.0,0.0,0.0,0.0,0.0,0.0,0.0,0.0,0.0,0.0,0.0,0.0,0.0,0.0,0.0,0.0,0.0,0.0,0.0,0.0,0.0,0.0,0.0,0.0,0.0,0.0,0.0,0.0,0.0,0.0,0.0,0.0,0.0,0.0,0.0,0.0,0.0,0.0,0.0,0.0,0.0,0.0,0.0,0.0,0.0,0.0,0.0,0.0,0.0,0.0,0.0,0.0,0.0,0.0,0.0,0.0,0.0,0.0,0.0,0.0,0.0,0.0,0.0,0.0,0.0,0.0,0.0,0.0,0.0,0.0,0.0,0.0,0.0,0.0,0.0,0.0,0.0,0.0,0.0,0.0,0.0,0.0,0.0,0.0,0.0,0.0,0.0,0.0,0.0,-1.7129,-1.7507,-1.8235,-1.8306,-1.7534,-1.674,-1.5582,0.0,0.0,0.0,0.0,0.0,0.0,0.0,0.0,0.0,0.0,0.0,0.0,0.0,0.0,0.0,0.0,0.0,0.0,0.0,0.0,0.0,0.0,0.0,0.0,0.0,0.0,0.0,0.0,0.0,0.0,0.0,0.0,0.0,0.0,0.0,0.0,0.0,0.0,0.0,0.0,0.0,0.0,0.0,0.0,0.0,0.0,0.0,0.0,0.0,0.0,0.0,0.0,0.0,0.0,0.0,0.0,0.0,0.0,0.0,0.0,0.0,0.0,0.0,0.0,0.0,0.0,0.0,0.0,0.0,0.0,0.0,0.0,0.0,0.0,0.0,0.0,0.0,0.0,0.0,0.0,0.0,0.0,0.0,0.0,0.0,0.0,0.0,0.0,0.0,0.0,0.0,0.0,0.0,0.0,0.0,0.0,0.0,0.0,0.0,0.0,0.0,0.0,0.0,0.0,0.0,0.0,0.0,0.0,0.0,-1.7317,-1.8191,-1.8547,-1.8211,-1.6401,-1.549,0.0,0.0,0.0,0.0,0.0,0.0,0.0,0.0,0.0,0.0,0.0,0.0,0.0,0.0,0.0,0.0,0.0,0.0,0.0,0.0,0.0,0.0,0.0,0.0,0.0,0.0,0.0,0.0,0.0,0.0,0.0,0.0,0.0,0.0,0.0,0.0,0.0,0.0,0.0,0.0,0.0,0.0,0.0,0.0,0.0,0.0,0.0,0.0,0.0,0.0,0.0,0.0,0.0,0.0,0.0,0.0,0.0,0.0,0.0,0.0,0.0,0.0,0.0,0.0,0.0,0.0,0.0,0.0,0.0,0.0,0.0,0.0,0.0,0.0,0.0,0.0,0.0,0.0,0.0,0.0,0.0,0.0,0.0,0.0,0.0,0.0,0.0,0.0,0.0,0.0,0.0,0.0,0.0,0.0,0.0,0.0,0.0,0.0,0.0,0.0,0.0,0.0,0.0,0.0,0.0,0.0,0.0,0.0,0.0,-1.788,-1.8671,-1.8705,-1.7852,-1.6446,-1.5704,-1.5685,0.0,0.0,0.0,0.0,0.0,0.0,0.0,0.0,0.0,0.0,0.0,0.0,0.0,0.0,0.0,0.0,0.0,0.0,0.0,0.0,0.0,0.0,0.0,0.0,0.0,0.0,0.0,0.0,0.0,0.0,0.0,0.0,0.0,0.0,0.0,0.0,0.0,0.0,0.0,0.0,0.0,0.0,0.0,0.0,0.0,0.0,0.0,0.0,0.0,0.0,0.0,0.0,0.0,0.0,0.0,0.0,0.0,0.0,0.0,0.0,0.0,0.0,0.0,0.0,0.0,0.0,0.0,0.0,0.0,0.0,0.0,0.0,0.0,0.0,0.0,0.0,0.0,0.0,0.0,0.0,0.0,0.0,0.0,0.0,0.0,0.0,0.0,0.0,0.0,0.0,0.0,0.0,0.0,0.0,0.0,0.0,0.0,0.0,0.0,0.0,0.0,0.0,0.0,0.0,0.0,0.0,0.0,0.0,-1.88,-1.9506,-1.8851,-1.6818,-1.6812,-1.6227,0.0,0.0,0.0,0.0,0.0,0.0,0.0,0.0,0.0,0.0,0.0,0.0,0.0,0.0,0.0,0.0,0.0,0.0,0.0,0.0,0.0,0.0,0.0,0.0,0.0,0.0,0.0,0.0,0.0,0.0,0.0,0.0,0.0,0.0,0.0,0.0,0.0,0.0,0.0,0.0,0.0,0.0,0.0,0.0,0.0,0.0,0.0,0.0,0.0,0.0,0.0,0.0,0.0,0.0,0.0,0.0,0.0,0.0,0.0,0.0,0.0,0.0,0.0,0.0,0.0,0.0,0.0,0.0,0.0,0.0,0.0,0.0,0.0,0.0,0.0,0.0,0.0,0.0,0.0,0.0,0.0,0.0,0.0,0.0,0.0,0.0,0.0,0.0,0.0,0.0,0.0,0.0,0.0,0.0,0.0,0.0,0.0,0.0,0.0,0.0,0.0,0.0,0.0,0.0,0.0,0.0,0.0,0.0,0.0,-1.7883,-1.9632,-2.0042,-1.8882,-1.7363,-1.6582,0.0,0.0,0.0,0.0,0.0,0.0,0.0,0.0,0.0,0.0,0.0,0.0,0.0,0.0,0.0,0.0,0.0,0.0,0.0,0.0,0.0,0.0,0.0,0.0,0.0,0.0,0.0,0.0,0.0,0.0,0.0,0.0,0.0,0.0,0.0,0.0,0.0,0.0,0.0,0.0,0.0,0.0,0.0,0.0,0.0,0.0,0.0,0.0,0.0,0.0,0.0,0.0,0.0,0.0,0.0,0.0,0.0,0.0,0.0,0.0,0.0,0.0,0.0,0.0,0.0,0.0,0.0,0.0,0.0,0.0,0.0,0.0,0.0,0.0,0.0,0.0,0.0,0.0,0.0,0.0,0.0,0.0,0.0,0.0,0.0,0.0,0.0,0.0,0.0,0.0,0.0,0.0,0.0,0.0,0.0,0.0,0.0,0.0,0.0,0.0,0.0,0.0,0.0,0.0,0.0,0.0,0.0,0.0,-1.8455,-1.8625,-1.9774,-2.0175,-1.972,-1.8377,-1.7553,0.0,0.0,0.0,0.0,0.0,0.0,0.0,0.0,0.0,0.0,0.0,0.0,0.0,0.0,0.0,0.0,0.0,0.0,0.0,0.0,0.0,0.0,0.0,0.0,0.0,0.0,0.0,0.0,0.0,0.0,0.0,0.0,0.0,0.0,0.0,0.0,0.0,0.0,0.0,0.0,0.0,0.0,0.0,0.0,0.0,0.0,0.0,0.0,0.0,0.0,0.0,0.0,0.0,0.0,0.0,0.0,0.0,0.0,0.0,0.0,0.0,0.0,0.0,0.0,0.0,0.0,0.0,0.0,0.0,0.0,0.0,0.0,0.0,0.0,0.0,0.0,0.0,0.0,0.0,0.0,0.0,0.0,0.0,0.0,0.0,0.0,0.0,0.0,0.0,0.0,0.0,0.0,0.0,0.0,0.0,0.0,0.0,0.0,0.0,0.0,0.0,0.0,0.0,0.0,0.0,0.0,0.0,0.0,-1.886,-2.0181,-1.9952,-1.9783,-1.9678,-1.946,-1.8686,0.0,0.0,0.0,0.0,0.0,0.0,0.0,0.0,0.0,0.0,0.0,0.0,0.0,0.0,0.0,0.0,0.0,0.0,0.0,0.0,0.0,0.0,0.0,0.0,0.0,0.0,0.0,0.0,0.0,0.0,0.0,0.0,0.0,0.0,0.0,0.0,0.0,0.0,0.0,0.0,0.0,0.0,0.0,0.0,0.0,0.0,0.0,0.0,0.0,0.0,0.0,0.0,0.0,0.0,0.0,0.0,0.0,0.0,0.0,0.0,0.0,0.0,0.0,0.0,0.0,0.0,0.0,0.0,0.0,0.0,0.0,0.0,0.0,0.0,0.0,0.0,0.0,0.0,0.0,0.0,0.0,0.0,0.0,0.0,0.0,0.0,0.0,0.0,0.0,0.0,0.0,0.0,0.0,0.0,0.0,0.0,0.0,0.0,0.0,0.0,0.0,0.0,0.0,0.0,0.0,0.0,0.0,0.0,-1.9562,-1.9812,-2.0265,-2.0206,-1.9644,-1.9166,-1.851,0.0,0.0,0.0,0.0,0.0,0.0,0.0,0.0,0.0,0.0,0.0,0.0,0.0,0.0,0.0,0.0,0.0,0.0,0.0,0.0,0.0,0.0,0.0,0.0,0.0,0.0,0.0,0.0,0.0,0.0,0.0,0.0,0.0,0.0,0.0,0.0,0.0,0.0,0.0,0.0,0.0,0.0,0.0,0.0,0.0,0.0,0.0,0.0,-1.1151,0.0,0.0,0.0,0.0,0.0,0.0,0.0,0.0,0.0,0.0,0.0,0.0,0.0,0.0,0.0,0.0,0.0,0.0,0.0,0.0,0.0,0.0,0.0,0.0,0.0,0.0,0.0,0.0,0.0,0.0,0.0,0.0,0.0,0.0,0.0,0.0,0.0,0.0,0.0,0.0,0.0,0.0,0.0,0.0,0.0,0.0,0.0,0.0,0.0,0.0,0.0,0.0,0.0,0.0,0.0,0.0,0.0,0.0,0.0,-2.0224,-2.0091,-2.0247,-1.9981,-1.9261,-1.8972,-1.848,0.0,0.0,0.0,0.0,0.0,0.0,0.0,0.0,0.0,0.0,0.0,0.0,0.0,0.0,0.0,0.0,0.0,0.0,0.0,0.0,0.0,0.0,0.0,0.0,0.0,0.0,0.0,0.0,0.0,0.0,0.0,0.0,0.0,0.0,0.0,0.0,0.0,0.0,0.0,0.0,0.0,0.0,0.0,0.0,0.0,0.0,0.0,0.0,0.0,0.0,0.0,0.0,0.0,0.0,0.0,0.0,0.0,0.0,0.0,0.0,0.0,0.0,0.0,0.0,0.0,0.0,0.0,0.0,0.0,0.0,0.0,0.0,0.0,0.0,0.0,0.0,0.0,0.0,0.0,0.0,0.0,0.0,0.0,0.0,0.0,0.0,0.0,0.0,0.0,0.0,0.0,0.0,0.0,0.0,0.0,0.0,0.0,0.0,0.0,0.0,0.0,0.0,0.0,0.0,0.0,0.0,0.0,-2.0227,-2.065,-2.0639,-2.0249,-1.9651,-1.8922,-1.8869,-1.8466,-1.7644,0.0,0.0,0.0,0.0,0.0,0.0,0.0,0.0,0.0,0.0,0.0,0.0,0.0,0.0,0.0,0.0,0.0,0.0,0.0,0.0,0.0,0.0,0.0,0.0,0.0,0.0,0.0,0.0,0.0,0.0,0.0,0.0,0.0,0.0,0.0,0.0,0.0,0.0,-1.1292,-1.2508,0.0,0.0,0.0,0.0,0.0,0.0,0.0,0.0,-1.0745,0.0,0.0,0.0,0.0,0.0,0.0,0.0,0.0,0.0,0.0,0.0,0.0,0.0,0.0,0.0,0.0,0.0,0.0,0.0,0.0,0.0,0.0,0.0,0.0,0.0,0.0,0.0,0.0,0.0,0.0,0.0,0.0,0.0,0.0,0.0,0.0,0.0,0.0,0.0,0.0,0.0,0.0,0.0,0.0,0.0,0.0,0.0,0.0,0.0,0.0,0.0,0.0,0.0,0.0,0.0,0.0,-2.116,-2.0494,-2.0519,-2.1227,-2.0808,-2.0137,-1.9268,-1.8955,-1.8309,-1.7241,0.0,0.0,0.0,0.0,0.0,0.0,0.0,0.0,0.0,0.0,0.0,0.0,0.0,0.0,0.0,0.0,0.0,0.0,0.0,0.0,0.0,0.0,0.0,0.0,0.0,0.0,0.0,0.0,0.0,0.0,0.0,0.0,0.0,0.0,0.0,0.0,0.0,0.0,0.0,-1.3159,-1.3616,0.0,0.0,0.0,0.0,0.0,0.0,0.0,0.0,-1.0027,0.0,0.0,0.0,0.0,0.0,0.0,0.0,0.0,0.0,0.0,0.0,0.0,0.0,0.0,0.0,0.0,0.0,0.0,0.0,0.0,0.0,0.0,0.0,0.0,0.0,0.0,0.0,0.0,0.0,0.0,0.0,0.0,0.0,0.0,0.0,0.0,0.0,0.0,0.0,0.0,0.0,0.0,0.0,0.0,0.0,0.0,0.0,0.0,0.0,0.0,0.0,0.0,0.0,0.0,0.0,-2.0398,-2.1344,-2.1559,-2.105,-2.0535,-1.9732,-1.8576,-1.7927,-1.7217,0.0,0.0,0.0,0.0,0.0,0.0,0.0,0.0,0.0,0.0,0.0,0.0,0.0,0.0,0.0,0.0,0.0,0.0,0.0,0.0,0.0,0.0,0.0,0.0,0.0,0.0,0.0,0.0,0.0,0.0,0.0,0.0,0.0,0.0,0.0,0.0,0.0,0.0,0.0,0.0,-1.2943,-1.3113,-1.3483,0.0,0.0,0.0,0.0,0.0,0.0,-1.0033,-0.9628,0.0,0.0,0.0,0.0,0.0,0.0,0.0,0.0,0.0,0.0,0.0,0.0,0.0,0.0,0.0,0.0,0.0,0.0,0.0,0.0,0.0,0.0,0.0,0.0,0.0,0.0,0.0,0.0,0.0,0.0,0.0,0.0,0.0,0.0,0.0,0.0,0.0,0.0,0.0,0.0,0.0,0.0,0.0,0.0,0.0,0.0,0.0,0.0,0.0,0.0,0.0,0.0,0.0,0.0,0.0,-1.9224,-2.1559,-2.2069,-2.0613,-2.0008,-1.91,-1.7828,-1.7057,-1.6367,0.0,0.0,0.0,0.0,0.0,0.0,0.0,0.0,0.0,0.0,0.0,0.0,0.0,0.0,0.0,0.0,0.0,0.0,0.0,0.0,0.0,0.0,0.0,0.0,0.0,0.0,0.0,0.0,0.0,0.0,0.0,0.0,0.0,0.0,0.0,0.0,0.0,0.0,0.0,0.0,0.0,-1.2834,-1.3384,-1.2206,0.0,0.0,0.0,0.0,-1.0698,-1.0268,0.0,0.0,0.0,0.0,0.0,0.0,0.0,0.0,0.0,0.0,0.0,0.0,0.0,0.0,0.0,0.0,0.0,0.0,0.0,0.0,0.0,0.0,0.0,0.0,0.0,0.0,0.0,0.0,0.0,0.0,0.0,0.0,0.0,0.0,0.0,0.0,0.0,0.0,0.0,0.0,0.0,0.0,0.0,0.0,0.0,0.0,0.0,0.0,0.0,0.0,0.0,0.0,0.0,0.0,0.0,0.0,-1.8597,-1.9775,-2.0312,-2.0065,-1.9449,-1.868,-1.7821,-1.7347,-1.6685,0.0,0.0,0.0,0.0,0.0,0.0,0.0,0.0,0.0,0.0,0.0,0.0,0.0,0.0,0.0,0.0,0.0,0.0,0.0,0.0,0.0,0.0,0.0,0.0,0.0,0.0,0.0,0.0,0.0,0.0,0.0,0.0,0.0,0.0,0.0,0.0,0.0,0.0,0.0,0.0,0.0,-1.3619,-1.3141,-1.2344,-1.1773,0.0,0.0,-1.142,-1.1256,-1.1429,0.0,0.0,0.0,0.0,0.0,0.0,0.0,0.0,0.0,0.0,0.0,0.0,0.0,0.0,0.0,0.0,0.0,0.0,0.0,0.0,0.0,0.0,0.0,0.0,0.0,0.0,0.0,0.0,0.0,0.0,0.0,0.0,0.0,0.0,0.0,0.0,0.0,0.0,0.0,0.0,0.0,0.0,0.0,0.0,0.0,0.0,0.0,0.0,0.0,0.0,0.0,0.0,0.0,0.0,0.0,-1.804,-1.8183,-2.0025,-2.069,-2.0016,-1.933,-1.8675,-1.793,-1.6964,-1.6101,0.0,0.0,0.0,0.0,0.0,0.0,0.0,0.0,0.0,0.0,0.0,0.0,0.0,0.0,0.0,0.0,0.0,0.0,0.0,0.0,0.0,0.0,0.0,0.0,0.0,0.0,0.0,0.0,0.0,0.0,0.0,0.0,0.0,0.0,0.0,0.0,0.0,0.0,0.0,0.0,0.0,0.0,-1.3105,-1.208,0.0,0.0,0.0,-1.059,-1.0373,0.0,0.0,0.0,0.0,0.0,0.0,0.0,0.0,0.0,0.0,0.0,0.0,0.0,0.0,0.0,0.0,0.0,0.0,0.0,0.0,0.0,0.0,0.0,0.0,0.0,0.0,0.0,0.0,0.0,0.0,0.0,0.0,0.0,0.0,0.0,0.0,0.0,0.0,0.0,0.0,0.0,0.0,0.0,0.0,0.0,0.0,0.0,0.0,0.0,0.0,0.0,0.0,0.0,0.0,0.0,0.0,0.0,-1.7584,-2.0211,-2.0934,-1.9635,-1.9087,-1.8436,-1.7635,-1.6599,0.0,0.0,0.0,0.0,0.0,0.0,0.0,0.0,0.0,0.0,0.0,0.0,0.0,0.0,0.0,0.0,0.0,0.0,0.0,0.0,0.0,0.0,0.0,0.0,0.0,0.0,0.0,-0.9679,0.0,0.0,0.0,0.0,0.0,0.0,0.0,0.0,0.0,0.0,0.0,0.0,0.0,0.0,-1.2113,-1.2605,-1.1678,-1.1052,0.0,0.0,-0.9953,-0.9733,-0.9797,-0.9442,0.0,0.0,0.0,0.0,0.0,0.0,0.0,0.0,0.0,0.0,0.0,0.0,0.0,0.0,0.0,0.0,0.0,0.0,0.0,0.0,0.0,0.0,0.0,0.0,0.0,0.0,0.0,0.0,0.0,0.0,0.0,0.0,0.0,0.0,0.0,0.0,0.0,0.0,0.0,0.0,0.0,0.0,0.0,0.0,0.0,0.0,0.0,0.0,0.0,0.0,0.0,0.0,0.0,0.0,0.0,-1.6803,-1.9574,-2.0233,-1.8576,-1.8335,-1.7723,-1.6631,-1.6518,-1.5706,0.0,0.0,0.0,0.0,0.0,0.0,0.0,0.0,0.0,0.0,0.0,0.0,0.0,0.0,0.0,0.0,0.0,0.0,0.0,0.0,0.0,0.0,0.0,0.0,0.0,0.0,0.0,0.0,0.0,0.0,0.0,0.0,0.0,0.0,0.0,0.0,0.0,0.0,0.0,0.0,0.0,-1.1177,-1.124,-1.1158,-1.1151,0.0,0.0,-1.0283,-1.0015,-0.9493,-0.8771,-0.7648,0.0,0.0,0.0,0.0,0.0,0.0,0.0,0.0,0.0,0.0,0.0,0.0,0.0,0.0,0.0,0.0,0.0,0.0,0.0,0.0,0.0,0.0,0.0,0.0,0.0,0.0,0.0,0.0,0.0,0.0,0.0,0.0,0.0,0.0,0.0,0.0,0.0,0.0,0.0,0.0,0.0,0.0,0.0,0.0,0.0,0.0,0.0,0.0,0.0,0.0,0.0,0.0,0.0,-1.6618,-1.6513,-1.9079,-1.9851,-1.8794,-1.8118,-1.7518,-1.6996,-1.6463,-1.5566,0.0,0.0,0.0,0.0,0.0,0.0,0.0,0.0,0.0,0.0,0.0,0.0,0.0,0.0,0.0,0.0,0.0,0.0,0.0,0.0,0.0,0.0,0.0,0.0,0.0,0.0,0.0,0.0,-0.9451,-0.9355,-0.8837,0.0,0.0,0.0,0.0,0.0,0.0,0.0,0.0,0.0,0.0,-1.1475,-1.147,-1.1194,0.0,0.0,-0.9722,-0.9079,-0.8554,-0.8132,-0.7594,-0.6777,-0.6152,0.0,0.0,0.0,0.0,0.0,0.0,0.0,0.0,0.0,0.0,0.0,0.0,0.0,0.0,0.0,0.0,0.0,0.0,0.0,0.0,0.0,0.0,0.0,0.0,0.0,0.0,0.0,0.0,0.0,0.0,0.0,0.0,0.0,0.0,0.0,0.0,0.0,0.0,0.0,0.0,0.0,0.0,0.0,0.0,0.0,0.0,0.0,0.0,0.0,0.0,0.0,0.0,-1.6039,-1.6022,-1.8523,-1.94,-1.851,-1.7682,-1.7121,-1.6859,-1.6269,-1.5412,0.0,0.0,0.0,0.0,0.0,0.0,0.0,0.0,0.0,0.0,0.0,0.0,0.0,0.0,0.0,0.0,0.0,0.0,0.0,0.0,0.0,0.0,0.0,0.0,0.0,0.0,0.0,0.0,-0.9629,-0.9331,-0.8318,0.0,0.0,0.0,0.0,0.0,0.0,0.0,0.0,0.0,0.0,-1.0905,-1.1021,-1.0451,-0.9826,-0.921,-0.8374,-0.7628,-0.7086,-0.6763,-0.6372,-0.5908,0.0,0.0,0.0,0.0,0.0,0.0,0.0,0.0,0.0,0.0,0.0,0.0,0.0,0.0,0.0,0.0,0.0,0.0,0.0,0.0,0.0,0.0,0.0,0.0,0.0,0.0,0.0,0.0,0.0,0.0,-1.3121,0.0,0.0,0.0,0.0,0.0,0.0,0.0,0.0,0.0,0.0,0.0,0.0,0.0,0.0,0.0,0.0,0.0,0.0,0.0,0.0,0.0,0.0,0.0,-1.5176,-1.7943,-1.8736,-1.7392,-1.6867,-1.6372,-1.5877,-1.5806,-1.5274,-1.4146,0.0,0.0,0.0,0.0,0.0,0.0,0.0,0.0,0.0,0.0,0.0,0.0,0.0,0.0,0.0,0.0,0.0,0.0,0.0,0.0,0.0,0.0,0.0,0.0,0.0,0.0,-0.871,-0.8119,-0.7651,0.0,0.0,0.0,0.0,0.0,0.0,0.0,0.0,0.0,0.0,-0.9473,-0.911,-0.9508,-0.8694,-0.8118,-0.8054,-0.6884,-0.5975,-0.5975,-0.5548,-0.5192,0.0,0.0,0.0,0.0,0.0,0.0,0.0,0.0,0.0,0.0,0.0,0.0,0.0,0.0,0.0,0.0,0.0,0.0,0.0,0.0,0.0,0.0,0.0,0.0,0.0,0.0,0.0,-1.7866,-1.6995,0.0,0.0,0.0,0.0,0.0,0.0,0.0,0.0,0.0,0.0,0.0,-1.9902,-2.0716,0.0,0.0,0.0,0.0,0.0,0.0,0.0,0.0,0.0,0.0,0.0,0.0,-1.5104,-1.5223,-1.7372,-1.8109,-1.7251,-1.651,-1.602,-1.5717,-1.517,-1.469,-1.4317,0.0,0.0,0.0,0.0,0.0,0.0,0.0,0.0,0.0,0.0,0.0,0.0,0.0,0.0,0.0,0.0,0.0,0.0,0.0,0.0,0.0,0.0,0.0,0.0,0.0,-0.9113,0.0,0.0,0.0,0.0,0.0,0.0,0.0,0.0,0.0,0.0,0.0,-0.9141,-0.9148,-0.9024,-0.8933,-0.8849,-0.8417,-0.7989,0.0,0.0,0.0,0.0,0.0,0.0,0.0,0.0,0.0,0.0,0.0,0.0,0.0,0.0,-0.6705,-0.5185,-0.4253,-0.3628,-0.3369,0.0,0.0,0.0,0.0,0.0,0.0,0.0,0.0,0.0,0.0,0.0,0.0,0.0,0.0,-1.9604,0.0,-1.7683,0.0,0.0,0.0,0.0,0.0,0.0,0.0,0.0,-2.1036,-2.1773,-2.1388,-2.1907,-2.192,0.0,-2.0769,-1.8937,0.0,0.0,0.0,0.0,0.0,0.0,0.0,0.0,-1.4992,-1.5235,-1.6941,-1.7545,-1.6912,-1.6203,-1.5704,-1.5444,-1.4792,-1.4462,-1.4542,-1.468,-1.4219,0.0,0.0,0.0,0.0,0.0,0.0,0.0,0.0,0.0,0.0,0.0,0.0,0.0,0.0,0.0,0.0,0.0,0.0,0.0,0.0,0.0,0.0,0.0,-0.8949,0.0,0.0,0.0,0.0,0.0,0.0,0.0,0.0,0.0,-0.7643,-0.8554,-0.9023,-0.8596,-0.8382,-0.8232,-0.8127,0.0,0.0,0.0,0.0,0.0,0.0,0.0,-0.4281,-0.5245,-0.4821,-0.4437,-0.479,-0.5531,-0.6044,-0.6023,0.0,0.0,-0.5113,-0.4438,-0.3983,-0.3827,-0.3514,-0.3143,-0.2751,-0.2484,-0.1981,0.0,0.0,0.0,0.0,0.0,0.0,0.0,0.0,-2.1421,-2.0943,0.0,-1.9551,0.0,0.0,0.0,0.0,0.0,0.0,0.0,0.0,-2.344,-2.3669,-2.1774,-2.2067,-2.2189,-2.2186,-2.2047,-2.1016,-1.91,-1.7342,0.0,0.0,0.0,0.0,0.0,0.0,-1.5312,-1.5357,-1.6673,-1.7039,-1.642,-1.5956,-1.5452,-1.4992,-1.4685,-1.4609,-1.4782,-1.4956,-1.4497,-1.3414,-1.3083,0.0,0.0,0.0,0.0,0.0,0.0,0.0,0.0,0.0,0.0,0.0,0.0,0.0,0.0,0.0,0.0,0.0,0.0,0.0,0.0,-0.9031,0.0,0.0,0.0,0.0,0.0,0.0,0.0,0.0,0.0,0.0,-0.6708,-0.7629,-0.8382,-0.831,0.0,0.0,0.0,0.0,-0.53,-0.4712,-0.4169,-0.3823,-0.3823,-0.4169,-0.4665,-0.5243,0.0,0.0,-0.5235,-0.5719,-0.6162,-0.6014,-0.597,-0.587,-0.5863,-0.5501,-0.5104,-0.4532,-0.3628,-0.3058,-0.2904,-0.2333,-0.1711,-2.4681,0.0,0.0,0.0,0.0,-2.3143,-2.4156,-2.5656,-2.4913,-2.3915,-2.2725,-2.1622,0.0,0.0,0.0,0.0,0.0,0.0,-2.259,-2.3353,-2.4369,-2.4645,-2.4437,-2.4183,-2.4056,-2.3945,-2.3023,-2.1889,-2.0607,-1.987,-1.776,-1.4433,0.0,0.0,0.0,0.0,-1.5569,-1.5624,-1.6304,-1.6591,-1.6402,-1.5929,-1.5308,-1.4521,-1.4825,-1.4977,-1.489,-1.532,-1.5217,-1.4484,-1.4017,0.0,0.0,0.0,0.0,0.0,0.0,0.0,0.0,0.0,0.0,0.0,0.0,0.0,0.0,0.0,0.0,0.0,0.0,0.0,-0.8579,-0.8306,-0.8146,0.0,0.0,0.0,0.0,0.0,0.0,0.0,0.0,0.0,-0.6413,-0.7564,-0.8,0.0,0.0,-0.5647,-0.4732,-0.4331,-0.4073,-0.4059,0.0,0.0,0.0,-0.3099,-0.3086,-0.4098,-0.4839,-0.545,-0.5864,-0.6148,-0.6259,-0.6215,-0.5925,-0.5696,-0.5637,-0.518,-0.4546,-0.3878,-0.3384,-0.28,-0.1885,-0.1471,-0.0965,-2.6414,-2.3551,-2.2779,-2.3628,-2.5438,-2.5577,-2.6464,-2.7827,-2.73,-2.6486,-2.5476,-2.4671,-2.3974,-2.3351,-2.2784,0.0,0.0,0.0,-2.4551,-2.5375,-2.5301,-2.529,-2.525,-2.4473,-2.4157,-2.4271,-2.317,-2.2272,-2.1628,-2.1533,-1.9771,-1.6581,0.0,0.0,-1.4967,-1.5423,-1.5839,-1.6112,-1.6303,-1.6402,-1.6392,-1.5751,-1.5233,-1.4883,-1.486,-1.4832,-1.4845,-1.5406,-1.5426,-1.4737,-1.4523,-1.3698,0.0,0.0,0.0,0.0,0.0,0.0,0.0,0.0,0.0,0.0,0.0,-0.8905,0.0,0.0,0.0,0.0,-0.8522,-0.8812,-0.8765,-0.8528,0.0,0.0,0.0,0.0,0.0,0.0,0.0,-0.6788,-0.707,-0.7018,-0.6468,-0.6924,-0.6915,-0.5805,-0.5386,-0.4843,-0.3766,0.0,-0.3447,-0.3326,-0.318,-0.3066,-0.2988,-0.2542,-0.2679,-0.4035,-0.4377,-0.4965,-0.6064,-0.6025,-0.5906,-0.6148,-0.5954,-0.5553,-0.5193,-0.4644,-0.4147,-0.3661,-0.3183,-0.2553,-0.1411,-0.092,-0.027,-2.7794,-2.7131,-2.7046,-2.7521,-2.8353,-2.8435,-2.8783,-2.9281,-2.8714,-2.8527,-2.854,-2.7949,-2.7464,-2.6997,-2.5799,0.0,-2.6841,-2.6459,-2.6435,-2.6711,-2.6252,-2.5652,-2.4945,-2.3646,-2.3303,-2.3883,-2.2913,-2.2423,-2.2386,-2.2474,-2.139,-1.9188,-1.8363,-1.7636,-1.699,-1.6342,-1.629,-1.6899,-1.6626,-1.6472,-1.6374,-1.5568,-1.5298,-1.568,-1.4864,-1.4509,-1.4729,-1.5253,-1.5199,-1.4465,-1.4681,-1.4051,-1.2357,0.0,0.0,0.0,0.0,0.0,0.0,0.0,0.0,0.0,0.0,0.0,0.0,0.0,0.0,0.0,-0.9393,0.0,-0.9571,-0.9297,0.0,0.0,0.0,-0.8057,-0.7471,-0.787,-0.77,-0.6452,0.0,0.0,-0.6641,0.0,-0.5386,-0.5151,-0.4699,-0.4237,-0.3655,-0.3342,-0.3095,-0.2499,-0.2392,-0.2314,-0.2151,-0.2147,-0.2728,-0.4219,-0.4144,-0.4261,-0.5595,-0.5452,-0.5293,-0.5814,-0.5796,-0.5278,-0.4423,-0.3983,-0.3725,-0.3559,-0.2907,-0.2162,-0.1292,-0.0472,0.0395,-3.0104,-2.9933,-2.9914,-2.9494,-2.885,-2.8956,-2.9223,-2.9555,-2.9175,-2.8847,-2.8557,-2.7875,-2.7531,-2.7521,-2.7078,-2.7036,-2.7293,-2.6561,-2.6534,-2.7036,-2.6421,-2.6053,-2.5854,-2.5175,-2.485,-2.4758,-2.424,-2.3609,-2.2915,-2.2949,-2.2089,-2.0507,-2.0231,-1.9377,-1.7883,-1.8191,-1.817,-1.7705,-1.7455,-1.6995,-1.6413,-1.6175,-1.593,-1.5691,-1.5468,-1.5237,-1.5026,-1.5129,-1.4995,-1.4579,-1.4437,-1.3861,-1.2696,-1.154,0.0,0.0,0.0,0.0,0.0,0.0,0.0,0.0,0.0,-0.9879,-0.841,0.0,-0.9625,0.0,-0.9398,-0.9518,-0.9388,-0.9295,0.0,0.0,-0.8259,-0.7735,-0.8309,-0.7516,-0.7031,-0.7258,-0.6636,-0.6132,-0.5867,-0.5024,-0.4183,-0.3517,-0.3179,-0.267,-0.1761,-0.1758,-0.1754,-0.1648,-0.161,-0.1492,-0.1257,-0.1099,-0.1491,-0.2663,-0.2702,-0.3015,-0.4183,-0.4246,-0.4097,-0.4099,-0.3932,-0.3656,-0.3286,-0.3008,-0.2594,-0.207,-0.1735,-0.1308,-0.0475,0.0404,0.1316,-3.0773,-3.0712,-3.0712,-3.0309,-2.9679,-2.9867,-3.0027,-3.0125,-3.0015,-2.977,-2.942,-2.8794,-2.8466,-2.8324,-2.8211,-2.811,-2.7984,-2.7535,-2.745,-2.7641,-2.6778,-2.638,-2.6342,-2.5468,-2.498,-2.4834,-2.4765,-2.4098,-2.2983,-2.3151,-2.2517,-2.1104,-2.1041,-2.0521,-1.9524,-1.9299,-1.8866,-1.8194,-1.7782,-1.7382,-1.6935,-1.6023,-1.5444,-1.5167,-1.5034,-1.4804,-1.4393,-1.4936,-1.4803,-1.3939,-1.392,-1.3466,-1.2423,-1.1612,-1.1021,0.0,0.0,0.0,0.0,0.0,0.0,0.0,0.0,0.0,0.0,0.0,-0.9567,0.0,-0.94,-0.9705,-0.966,-0.9452,-0.9409,-0.9733,-0.8705,-0.8136,-0.8423,-0.726,-0.6683,-0.7179,-0.593,-0.5078,-0.5265,-0.43,-0.3326,-0.2741,-0.2275,-0.1766,-0.1218,-0.1218,-0.1297,-0.1297,-0.1297,-0.1218,-0.0943,-0.0746,-0.0942,-0.1921,-0.1883,-0.2078,-0.3482,-0.3401,-0.3164,-0.348,-0.3344,-0.2947,-0.2507,-0.219,-0.1725,-0.0985,-0.0732,-0.0553,-0.0082,0.0737,0.1609,-3.0426,-3.0321,-3.0321,-3.0305,-3.0359,-3.0551,-3.0671,-3.0671,-3.0794,-3.0692,-3.0401,-2.9962,-2.9461,-2.8958,-2.8935,-2.8772,-2.8472,-2.8448,-2.8328,-2.8039,-2.7079,-2.6628,-2.6574,-2.5357,-2.4697,-2.4625,-2.4878,-2.4282,-2.291,-2.3266,-2.2777,-2.153,-2.1377,-2.1221,-2.1092,-2.001,-1.9185,-1.8622,-1.7848,-1.7463,-1.737,-1.5615,-1.4634,-1.46,-1.441,-1.4109,-1.3759,-1.4765,-1.4636,-1.3207,-1.3532,-1.3263,-1.2119,-1.2017,-1.1678,0.0,-1.0854,0.0,0.0,0.0,0.0,0.0,0.0,0.0,0.0,-0.9858,-0.9562,-0.8858,-0.946,-0.9935,-1.0047,-0.957,-0.9407,-0.9857,-0.917,-0.8483,-0.8059,-0.7041,-0.6454,-0.6758,-0.5314,-0.4538,-0.4977,-0.374,-0.2717,-0.2537,-0.1861,-0.1387,-0.1309,-0.1264,-0.1218,-0.1297,-0.1258,-0.114,-0.0943,-0.0707,-0.0864,-0.1648,-0.1341,-0.1458,-0.2992,-0.2579,-0.2284,-0.3021,-0.284,-0.2385,-0.178,-0.1416,-0.0935,-0.0219,0.0,0.0,0.0,0.0877,0.1738,-2.9393,-2.9371,-2.9371,-2.9371,-2.9371,-2.9416,-2.9859,-3.0547,-3.0568,-3.0326,-2.9941,-2.9717,-2.9088,-2.8143,-2.8006,-2.7665,-2.7167,-2.7167,-2.7141,-2.7089,-2.6883,-2.6773,-2.6732,-2.6341,-2.5808,-2.5244,-2.5177,-2.4692,-2.3764,-2.3361,-2.2977,-2.259,-2.2021,-2.1411,-2.0752,0.0,0.0,0.0,-1.7709,-1.6605,-1.6397,-1.5858,-1.5436,-1.5235,-1.5343,0.0,-1.4914,-1.5007,-1.462,-1.3656,-1.407,0.0,0.0,0.0,0.0,0.0,0.0,0.0,0.0,0.0,0.0,0.0,-0.9918,-0.9406,-0.9947,-1.0501,-1.0422,-0.9475,-0.9648,-0.9817,-0.9838,-0.9225,-0.8755,-0.8556,-0.7572,-0.6988,-0.7171,-0.6481,-0.6175,-0.6644,-0.5967,-0.5416,-0.5235,-0.3826,-0.2759,-0.2677,-0.1921,-0.1346,-0.1284,-0.1127,-0.1062,-0.1218,-0.114,-0.0982,-0.0904,-0.0589,-0.051,-0.0787,-0.0679,-0.0686,-0.1173,-0.1208,-0.0937,-0.1114,-0.0917,-0.0841,-0.0446,-0.0314,0.0,0.0,0.0,0.0,0.0,0.138,0.263,-2.9696,0.0,-2.9278,-2.9113,0.0,-2.9113,-2.9371,-2.981,-2.9793,-2.9489,-2.8966,-2.888,-2.8384,-2.7545,-2.7479,-2.7255,-2.6899,-2.6899,-2.67,-2.634,-2.6245,-2.6055,-2.5769,-2.5508,-2.5203,-2.4851,-2.4682,-2.4253,-2.3551,-2.3165,-2.2798,-2.2384,-2.1987,-2.1517,-2.1019,-2.1178,-2.1063,-2.0603,-1.867,-1.7614,-1.742,-1.5975,-1.5037,-1.4688,0.0,0.0,0.0,0.0,0.0,0.0,0.0,0.0,0.0,0.0,0.0,-1.1674,-1.1447,-1.1346,-1.1349,-1.0517,-1.0348,-1.1148,-0.9761,-0.919,-0.9939,-0.9996,-0.9939,-0.9729,-0.9342,-0.9158,-0.9243,-0.8682,-0.8286,-0.8228,-0.7517,-0.6913,-0.6412,-0.5725,-0.534,-0.5307,-0.4767,-0.44,-0.4564,-0.3447,-0.2569,-0.2429,-0.1583,-0.1039,-0.1131,-0.1145,-0.1156,-0.126,-0.1061,-0.0864,-0.0746,-0.0511,-0.0395,-0.0559,-0.0565,-0.0572,-0.0744,-0.0759,-0.0644,-0.0521,-0.0351,-0.0177,-0.0224,-0.009,0.0,0.0,0.0,0.0,0.0,0.149,0.2824,-3.0291,-3.0179,-2.9525,-2.9242,-2.9218,-2.9226,-2.9218,-2.9179,0.0,0.0,0.0,-2.8125,-2.7831,-2.7395,-2.7343,-2.7313,-2.734,-2.7313,-2.6885,-2.6202,-2.6036,-2.5562,-2.4874,-2.4656,-2.4414,-2.4205,-2.4005,-2.3623,-2.301,-2.2902,-2.2567,-2.203,-2.1886,-2.1643,-2.1336,-2.1285,-2.1221,-2.104,-1.9522,-1.8668,-1.8542,-1.6116,-1.4551,-1.4029,-1.374,-1.3368,-1.2893,-1.3992,-1.4011,-1.2781,-1.3442,-1.3241,-1.1813,-1.2453,-1.2548,-1.1783,-1.2148,-1.2198,-1.1655,-1.0632,-1.0026,-1.0118,-0.9002,-0.871,-0.9752,-0.912,-0.8922,-0.9532,-0.874,-0.8317,-0.8633,-0.8067,-0.7803,-0.8058,-0.7644,-0.6916,-0.6107,-0.5315,-0.4874,-0.4549,-0.4165,-0.3733,-0.4329,-0.3677,-0.2917,-0.2673,-0.2079,-0.1227,-0.1351,-0.1414,-0.1219,-0.1075,-0.0951,-0.0909,-0.0904,-0.0785,-0.0674,-0.0929,-0.106,-0.1114,-0.1051,-0.1104,-0.103,-0.0874,-0.0481,-0.0309,-0.0313,-0.0135,0.0,0.0,0.0,0.0,0.0,0.146,0.2726,-3.0072,-3.0031,-2.9913,-2.9805,-2.9716,-2.9716,-2.9652,-2.9493,-2.9231,-2.8779,-2.828,-2.8149,-2.8137,-2.8233,-2.7927,-2.8113,-2.8625,-2.8516,-2.8082,0.0,-2.7324,-2.674,-2.5666,-2.5488,-2.4869,-2.3914,-2.3725,-2.3263,-2.2592,-2.2678,-2.2574,-2.2359,-2.2297,-2.1851,-2.1083,-2.1391,-2.134,-2.0667,-1.893,-1.7836,-1.7428,-1.6266,-1.5236,-1.4471,-1.433,-1.4021,-1.3499,-1.3329,-1.3215,-1.3261,-1.3178,-1.3235,-1.3386,-1.2627,-1.1695,-1.0513,-1.0545,-1.029,-0.9482,-0.8856,-0.7999,-0.6861,-0.7159,-0.7937,-0.8976,-0.8269,-0.7908,-0.8355,-0.7733,-0.7579,-0.7991,-0.7335,-0.7012,-0.7242,-0.6439,-0.6079,-0.6687,-0.5928,-0.5613,-0.6339,-0.6436,-0.6233,-0.6337,-0.5697,-0.5158,-0.5007,-0.4004,-0.3325,-0.3014,-0.2081,-0.1122,-0.0652,-0.0769,-0.1244,-0.1744,-0.1805,-0.171,-0.17,-0.2229,-0.2271,-0.1593,-0.1968,-0.2124,-0.1471,-0.1292,-0.0983,-0.0404,-0.0045,0.0,0.0,0.0,0.0,0.0,0.1474,0.2853,-3.067,-3.0582,-3.0194,-2.9963,-2.991,-2.991,-2.9872,-2.9784,-2.9669,-2.9311,-2.8893,-2.883,-2.8801,-2.8764,-2.8643,-2.8735,-2.8987,-2.8567,-2.8011,-2.7371,-2.6939,-2.6216,-2.5331,-2.5115,-2.4738,-2.4092,-2.4017,-2.3629,-2.3039,-2.3089,-2.2942,-2.2567,-2.2531,-2.2634,-2.2811,-2.2579,-2.2579,-2.2748,-2.0183,-1.869,-1.8496,-1.7016,-1.6041,-1.5652,-1.534,-1.479,-1.4021,-1.4044,-1.3407,-1.1938,-1.2267,-1.195,-1.0713,-1.023,-0.9426,-0.8244,-0.7989,-0.7616,-0.6957,-0.6248,-0.5205,-0.3864,-0.3777,-0.4296,-0.5415,-0.6273,-0.6699,-0.6601,-0.6301,-0.6099,-0.5994,-0.6136,-0.6378,-0.6616,-0.6337,-0.6186,-0.6145,-0.5894,-0.5802,-0.6284,-0.664,-0.6993,-0.7427,-0.7011,-0.6595,-0.6442,-0.5643,-0.5003,-0.4784,-0.4396,-0.3551,-0.2375,-0.2151,-0.2308,-0.269,-0.2564,-0.2508,-0.2603,-0.2886,-0.2885,-0.2459,-0.285,-0.2815,-0.2506,-0.2285,-0.2106,-0.1702,-0.1613,-0.1569,-0.1525,-0.1077,-0.0808,-0.0538,0.1165,0.309,-3.1697,-3.1609,-3.0952,-3.059,-3.0498,-3.0456,-3.0445,-3.043,-3.0472,-3.0283,-2.9983,-2.9672,-2.9516,-2.9485,-2.943,-2.9476,-2.9525,-2.9029,-2.8335,-2.7577,-2.6937,-2.618,-2.5294,-2.5133,-2.4973,-2.4775,-2.4775,-2.4537,-2.4129,-2.4136,-2.391,-2.3491,-2.341,-2.3874,-2.4722,-2.4171,-2.4219,-2.4767,-2.2218,-2.0453,-1.9716,-1.7893,-1.6635,-1.582,-1.5321,-1.4445,-1.3173,-1.339,-1.3082,-1.2109,-1.2538,-1.2453,-1.1675,-1.1515,-1.0967,-0.9939,-0.9576,-0.918,-0.8646,-0.8116,-0.7245,-0.6011,-0.4344,-0.3697,-0.4286,-0.4456,-0.4697,-0.4603,-0.4653,-0.4557,-0.4442,-0.4994,-0.567,-0.6025,-0.6373,-0.6248,-0.5716,-0.5935,-0.6325,-0.6442,-0.7149,-0.8023,-0.8408,-0.8452,-0.8321,-0.8055,-0.7523,-0.7166,-0.6862,-0.7122,-0.6717,-0.544,-0.44,-0.3869,-0.3821,-0.3722,-0.3588,-0.3542,-0.3725,-0.3714,-0.3593,-0.3576,-0.3623,-0.3534,-0.3312,-0.309,-0.3132,-0.2955,-0.2777,-0.2643,-0.2151,-0.1614,-0.0896,0.0851,0.2957,-3.3093,-3.3066,-3.2705,-3.2396,-3.1946,-3.1838,-3.1766,-3.1782,-3.1799,-3.1799,-3.1576,-3.0482,-3.0235,-3.0581,-3.046,-3.0604,-3.1025,-3.091,-3.0081,-2.8938,-2.876,-2.7944,-2.6641,-2.6518,-2.6416,-2.6233,-2.6224,-2.6087,-2.5849,-2.599,-2.5964,-2.5801,-2.5788,-2.5673,-2.5598,-2.591,-2.6049,-2.5864,-2.484,-2.2967,-2.0266,-1.8765,-1.6575,-1.3493,-1.3221,-1.1757,-1.03,-0.9056,-1.1267,-1.5555,-1.553,-1.7415,-2.1462,-2.1621,-2.077,-1.9647,-1.9714,-1.973,-1.8876,-1.9518,-1.8908,-1.8301,-1.3417,-1.0526,-0.9742,-0.4387,-0.1315,-0.299,-0.3256,-0.3239,-0.398,-0.431,-0.4889,-0.5731,-0.593,-0.5855,-0.6251,-0.7166,-0.807,-0.8559,-0.963,-1.0623,-1.0752,-1.0795,-1.0747,-1.0613,-1.0679,-1.0545,-0.9995,-1.0325,-1.0492,-0.93,-0.7575,-0.6002,-0.5719,-0.5549,-0.5375,-0.4744,-0.5112,-0.5295,-0.5019,-0.5097,-0.5282,-0.5003,-0.4427,-0.4249,-0.3623,-0.2911,-0.3179,-0.3446,-0.3044,-0.2239,-0.0626,0.0717,0.1972,-3.3361,-3.3398,-3.3229,-3.2935,-3.2636,-3.2554,-3.2401,-3.2247,-3.2247,-3.2247,-3.2185,-3.1677,-3.1463,-3.1516,-3.1432,-3.1513,-3.1682,-3.1422,-3.0984,-3.0363,-2.9818,-2.9136,-2.8487,-2.7956,-2.7758,-2.7796,-2.7705,-2.7547,-2.7336,-2.7193,-2.709,-2.7106,-2.7179,-2.7421,-2.7819,-2.8097,-2.8424,-2.887,-2.8429,-2.7323,-2.5535,-2.2883,-2.1134,-2.0468,-2.0245,-1.961,-1.8391,-1.8126,-1.8522,-1.9328,-1.9078,-1.9689,-2.1396,-2.0556,-1.9932,-1.9773,-1.9732,-1.9544,-1.9133,-1.9624,-1.9495,-1.8626,-1.6621,-1.5436,-1.5711,-1.2918,-1.182,-1.2059,-0.607,-0.1631,-0.2589,-0.3423,-0.4559,-0.5716,-0.6296,-0.6902,-0.7705,-0.848,-0.9309,-1.0221,-1.1413,-1.2219,-1.2334,-1.2334,-1.2577,-1.2977,-1.338,-1.329,-1.2959,-1.3529,-1.3607,-1.2934,-1.1809,-1.0299,-0.8611,-0.8029,-0.7804,-0.7551,-0.7418,-0.721,-0.7439,-0.721,-0.7221,-0.6993,-0.6684,-0.6549,-0.6763,-0.6236,-0.6104,-0.5445,-0.4072,-0.3133,-0.1209,-0.009,0.0851,-3.3684,-3.3745,-3.3591,-3.3388,-3.3123,-3.3123,-3.2958,-3.278,-3.2753,-3.2753,-3.278,-3.2738,-3.2645,-3.2441,-3.2163,-3.2081,-3.2051,-3.1806,-3.1447,-3.113,-3.0482,-2.997,-2.9659,-2.9111,-2.8994,-2.917,-2.9146,-2.9066,-2.8951,-2.878,-2.8684,-2.88,-2.9044,-2.9562,-3.0285,-3.0524,-3.103,-3.1721,-3.1529,-3.1198,-3.0473,-2.8051,-2.6094,-2.5139,-2.4805,-2.43,-2.344,-2.3493,-2.3441,-2.2997,-2.301,-2.351,-2.4295,-2.3565,-2.3406,-2.3932,-2.3909,-2.3808,-2.373,-2.4162,-2.4143,-2.3412,-2.2234,-2.1444,-2.1723,-2.0254,-1.943,-1.9245,-1.1124,-0.6057,-0.6767,-0.7893,-0.918,-1.037,-1.0092,-0.9807,-1.0715,-1.0616,-1.0687,-1.1804,-1.3237,-1.4246,-1.4671,-1.4948,-1.5415,-1.6098,-1.6302,-1.6154,-1.608,-1.6489,-1.6537,-1.5808,-1.5486,-1.38,-1.0924,-1.0038,-1.0115,-0.9682,-0.9157,-0.9026,-0.9643,-0.9179,-0.8882,-0.8476,-0.8615,-0.8404,-0.7866,-0.8049,-0.7837,-0.6827,-0.5542,-0.3983,-0.2418,-0.1208,-0.0179,-3.4448,-3.4423,-3.4176,-3.3899,-3.3684,-3.3658,-3.3642,-3.3591,-3.3617,-3.3617,-3.3591,-3.3617,-3.3633,-3.3539,-3.2672,-3.2302,-3.2398,-3.241,-3.1792,-3.0852,-3.0881,-3.0451,-2.9634,-2.9699,-2.9946,-3.0297,-3.051,-3.0719,-3.0837,-3.1113,-3.1215,-3.1256,-3.1683,-3.2226,-3.2634,-3.3077,-3.3612,-3.3941,-3.3775,-3.3832,-3.4214,-3.3842,-3.0489,-2.5457,-2.366,-2.3008,-2.1158,-2.0475,-2.2557,-2.7216,-2.7533,-2.9833,-3.4634,-3.523,-3.5363,-3.6278,-3.6554,-3.6672,-3.6567,-3.6869,-3.7345,-3.7101,-3.2258,-2.9642,-2.9259,-2.4234,-2.1204,-2.0282,-1.9545,-1.8568,-2.0032,-1.8937,-1.9387,-1.9975,-1.7236,-1.5408,-1.5313,-1.3963,-1.2659,-1.3871,-1.5728,-1.7316,-1.8704,-1.9282,-1.9206,-1.9532,-1.9907,-1.9809,-1.9173,-1.9043,-1.8735,-1.8106,-1.722,-1.5674,-1.2432,-1.1835,-1.1359,-1.1059,-1.101,-1.024,-1.0067,-0.9986,-1.0029,-0.986,-0.9648,-0.9218,-0.8611,-0.7962,-0.7353,-0.6605,-0.5849,-0.4556,-0.3221,-0.2013,-0.0985,-3.4739,-3.4739,-3.4643,-3.4448,-3.4242,-3.4226,-3.4084,-3.3917,-3.3892,-3.3901,-3.3876,-3.3917,-3.4018,-3.4192,-3.362,-3.3308,-3.3261,-3.3403,-3.3044,-3.2321,-3.2509,-3.229,-3.1677,-3.1333,-3.1319,-3.1608,-3.1635,-3.1959,-3.254,-3.3014,-3.3087,-3.3009,-3.3769,-3.4185,-3.4178,-3.4848,-3.5362,-3.5564,-3.6145,-3.6629,-3.6756,-3.6712,-3.5304,-3.3106,-3.1969,-3.1254,-3.0814,-3.0933,-3.1879,-3.3573,-3.3827,-3.4915,-3.6871,-3.7428,-3.7976,-3.8749,-3.8858,-3.9129,-3.9693,-4.0093,-4.0313,-4.0134,-3.8399,-3.6726,-3.6543,-3.4243,-3.2649,-3.2507,-3.224,-3.2491,-3.1137,-2.6074,-2.1408,-2.189,-2.1137,-2.0478,-2.0896,-2.0434,-2.0023,-2.0063,-2.0637,-2.1341,-2.1872,-2.1725,-2.1113,-2.1114,-2.1242,-2.1223,-2.104,-2.0891,-2.0645,-1.9809,-1.8979,-1.7827,-1.6029,-1.4705,-1.4085,-1.3785,-1.3526,-1.3442,-1.3309,-1.2766,-1.2729,-1.2474,-1.1787,-1.0983,-1.06,-0.9309,-0.8444,-0.7834,-0.6943,-0.5575,-0.3844,-0.326,-0.2055,-3.5065,-3.5095,-3.5041,-3.493,-3.4794,-3.478,-3.465,-3.4456,-3.4456,-3.448,-3.4504,-3.4504,-3.4642,-3.4794,-3.4617,-3.4488,-3.4399,-3.4317,-3.3951,-3.3485,-3.37,-3.3531,-3.3045,-3.2667,-3.2667,-3.2924,-3.2993,-3.3393,-3.4023,-3.4556,-3.4634,-3.4468,-3.5399,-3.5703,-3.5564,-3.6339,-3.6828,-3.7053,-3.7899,-3.841,-3.8424,-3.854,-3.8565,-3.8446,-3.7878,-3.7323,-3.7028,-3.7173,-3.7301,-3.7291,-3.7517,-3.7819,-3.8166,-3.8704,-3.9243,-3.9733,-3.9857,-4.0086,-4.0611,-4.0832,-4.0825,-4.078,-4.0703,-4.0713,-4.0603,-4.0442,-4.0268,-4.0091,-3.9745,-3.9462,-3.7844,-3.1414,-2.6724,-2.7123,-2.641,-2.5804,-2.6138,-2.5041,-2.4213,-2.3886,-2.4094,-2.4652,-2.506,-2.426,-2.3782,-2.3499,-2.3553,-2.3662,-2.3554,-2.3094,-2.2799,-2.2068,-2.0985,-2.0082,-1.8931,-1.799,-1.6621,-1.6163,-1.517,-1.5489,-1.5613,-1.5247,-1.4998,-1.4831,-1.4287,-1.3402,-1.2322,-1.0978,-1.0182,-0.9636,-0.8484,-0.7204,-0.5921,-0.4949,-0.37,-3.5435,-3.5554,-3.5406,-3.5367,-3.5379,-3.5304,-3.5344,-3.5379,-3.5362,-3.5407,-3.5476,-3.556,-3.556,-3.5583,-3.5543,-3.5661,-3.5666,-3.5088,-3.4487,-3.4047,-3.4227,-3.4063,-3.3623,-3.3775,-3.3892,-3.4064,-3.4582,-3.5026,-3.5365,-3.5677,-3.5864,-3.6053,-3.6613,-3.6939,-3.6881,-3.7678,-3.818,-3.8315,-3.8827,-3.91,-3.9163,-3.949,-3.9627,-3.9607,-3.9763,-3.9059,-3.7343,-3.7425,-3.7709,-3.7917,-3.8074,-3.849,-3.9341,-4.0062,-4.0615,-4.0593,-4.0709,-4.0758,-4.0782,-4.0806,-4.0788,-4.0683,-4.0645,-4.0513,-4.0303,-4.0137,-3.9963,-3.9756,-3.9368,-3.9002,-3.8816,-3.7123,-3.6274,-3.7755,-3.3429,-3.0974,-3.0094,-2.699,-2.4673,-2.5898,-2.6821,-2.7047,-2.723,-2.7264,-2.7096,-2.6853,-2.704,-2.7127,-2.6737,-2.5909,-2.5411,-2.4867,-2.3738,-2.2506,-2.1857,-2.1162,-1.9621,-1.8234,-1.6951,-1.637,-1.6486,-1.6281,-1.6198,-1.6026,-1.5199,-1.4434,-1.4751,-1.3477,-1.2574,-1.181,-1.0414,-0.93,-0.7672,-0.6568,-0.5557,-3.6071,-3.5888,-3.58,-3.5888,-3.6002,-3.5844,-3.5849,-3.6006,-3.6023,-3.6045,-3.611,-3.6237,-3.6301,-3.6284,-3.6284,-3.6367,-3.6495,-3.6236,-3.574,-3.5137,-3.5386,-3.5284,-3.4937,-3.5058,-3.5228,-3.5389,-3.5564,-3.5928,-3.6437,-3.6882,-3.7031,-3.705,-3.7853,-3.8214,-3.8107,-3.8753,-3.9127,-3.9267,-3.9646,-3.9834,-3.9822,-4.0055,-4.0167,-4.0091,-4.012,-3.9807,-3.9373,-3.9385,-3.9495,-3.9625,-3.9785,-4.0024,-4.0355,-4.065,-4.0818,-4.0831,-4.0854,-4.0877,-4.0936,-4.0897,-4.0779,-4.0559,-4.0438,-4.02,-3.9846,-3.9716,-3.944,-3.9008,-3.8516,-3.831,-3.8347,-3.7994,-3.7932,-3.8385,-3.6683,-3.5377,-3.5074,-3.3178,-3.2056,-3.1751,-3.158,-3.1084,-3.0367,-3.0209,-2.9739,-2.8759,-2.8924,-2.9107,-2.8612,-2.816,-2.7522,-2.7134,-2.6002,-2.5312,-2.497,-2.4662,-2.3734,-2.2122,-2.0469,-1.9155,-1.8789,-1.8531,-1.8267,-1.7972,-1.7,-1.664,-1.6851,-1.6637,-1.6069,-1.5534,-1.5188,-1.296,-0.9846,-0.899,-0.9363,-3.6661,-3.6512,-3.6322,-3.6322,-3.6468,-3.6301,-3.6322,-3.6468,-3.6489,-3.653,-3.6591,-3.6696,-3.6776,-3.6799,-3.6921,-3.7036,-3.711,-3.7228,-3.7045,-3.6512,-3.6429,-3.6347,-3.6111,-3.6356,-3.6661,-3.686,-3.6881,-3.7182,-3.7696,-3.8005,-3.8138,-3.8227,-3.884,-3.912,-3.9035,-3.9501,-3.985,-3.9948,-4.0223,-4.0374,-4.0371,-4.0469,-4.0525,-4.0468,-4.0409,-4.0389,-4.048,-4.0538,-4.0548,-4.0591,-4.0721,-4.0825,-4.0863,-4.089,-4.0901,-4.0892,-4.0871,-4.0834,-4.0808,-4.1029,-4.0844,-4.0352,-4.0276,-4.0148,-3.9757,-3.9558,-3.9157,-3.9073,-3.8814,-3.8558,-3.8463,-3.8048,-3.794,-3.8226,-3.7828,-3.7695,-3.7692,-3.663,-3.5504,-3.4824,-3.441,-3.3773,-3.3074,-3.2786,-3.2265,-3.1098,-3.1181,-3.1232,-3.0756,-3.0291,-2.9924,-2.9491,-2.8747,-2.8342,-2.8233,-2.8018,-2.7784,-2.6276,-2.4587,-2.3533,-2.2843,-2.2565,-2.2322,-2.2643,-2.2086,-2.1883,-2.2036,-2.1671,-2.1213,-2.0658,-2.0351,-1.9366,-1.7679,-1.6355,-1.589,-3.721,-3.7339,-3.6898,-3.6779,-3.6836,-3.6739,-3.6776,-3.6836,-3.6856,-3.6915,-3.7029,-3.7186,-3.7206,-3.7264,-3.7578,-3.7702,-3.7685,-3.7962,-3.8109,-3.7975,-3.7667,-3.7306,-3.738,-3.7578,-3.7892,-3.8273,-3.8373,-3.8633,-3.8934,-3.8994,-3.9187,-3.9383,-3.9486,-3.9656,-3.97,-4.0099,-4.0303,-4.0376,-4.0608,-4.0703,-4.0689,-4.0766,-4.0792,-4.0777,-4.0766,-4.0769,-4.0769,-4.0773,-4.0754,-4.0758,-4.088,-4.097,-4.0981,-4.094,-4.0898,-4.0859,-4.0827,-4.0625,-4.0618,-4.1001,-4.0978,-3.9979,-4.0121,-4.0272,-3.9896,-3.9442,-3.9265,-3.9603,-3.9477,-3.9259,-3.8773,-3.8379,-3.817,-3.8187,-3.8143,-3.7834,-3.7227,-3.6734,-3.622,-3.577,-3.5612,-3.5409,-3.4787,-3.4856,-3.4481,-3.3899,-3.3958,-3.383,-3.3172,-3.2542,-3.2467,-3.1962,-3.1293,-3.1297,-3.1196,-3.1326,-3.1171,-3.0982,-2.9256,-2.8037,-2.6469,-2.5859,-2.5129,-2.5611,-2.6678,-2.6714,-2.689,-2.6507,-2.6417,-2.6249,-2.6271,-2.663,-2.5099,-2.2609,-2.0976,-3.8005,-3.7631,-3.7681,-3.7578,-3.7412,-3.7414,-3.7414,-3.7393,-3.7393,-3.7431,-3.754,-3.7843,-3.7895,-3.7844,-3.8266,-3.8334,-3.818,-3.8569,-3.8704,-3.8651,-3.8682,-3.8612,-3.8582,-3.8596,-3.8792,-3.912,-3.9165,-3.9346,-3.9529,-3.9559,-3.9652,-3.9794,-3.9905,-4.0034,-4.0221,-4.0444,-4.0668,-4.0812,-4.0909,-4.093,-4.0866,-4.0938,-4.097,-4.0872,-4.0918,-4.0932,-4.094,-4.0945,-4.0915,-4.0851,-4.0927,-4.0953,-4.0947,-4.0892,-4.0803,-4.0679,-4.0647,-4.0404,-4.0074,-4.0538,-4.0472,-3.9748,-3.9944,-3.9965,-3.9714,-3.9295,-3.9018,-3.8961,-3.8777,-3.8839,-3.8811,-3.8647,-3.8698,-3.9107,-3.8652,-3.8027,-3.7469,-3.6961,-3.6635,-3.6244,-3.6082,-3.5925,-3.5842,-3.5953,-3.5877,-3.5201,-3.5295,-3.5676,-3.4827,-3.4415,-3.4189,-3.4199,-3.3881,-3.4072,-3.4238,-3.4421,-3.4706,-3.5245,-3.4149,-3.2622,-3.0447,-2.8313,-2.7152,-2.6363,-2.8796,-2.9503,-3.0656,-3.1165,-3.1321,-3.1397,-3.1442,-3.1181,-2.814,-2.5567,-2.4963,-3.8685,-3.835,-3.8389,-3.8298,-3.8111,-3.8154,-3.8154,-3.8158,-3.816,-3.8142,-3.8223,-3.8475,-3.8554,-3.8545,-3.8957,-3.8957,-3.8659,-3.9099,-3.9249,-3.9205,-3.9389,-3.9358,-3.9219,-3.912,-3.9282,-3.9548,-3.9587,-3.9694,-3.9882,-3.9913,-4.0003,-4.0138,-4.0219,-4.0353,-4.0482,-4.0679,-4.0855,-4.0972,-4.1065,-4.1046,-4.0994,-4.1054,-4.103,-4.0966,-4.0978,-4.0992,-4.0963,-4.0963,-4.0957,-4.0928,-4.0912,-4.0851,-4.0824,-4.0657,-4.0521,-4.0327,-4.0549,-4.0387,-3.9938,-4.0478,-4.0589,-3.9855,-3.9886,-3.9966,-3.9764,-3.9421,-3.9116,-3.9324,-3.9202,-3.918,-3.9042,-3.8828,-3.8791,-3.8999,-3.8777,-3.8421,-3.8269,-3.8236,-3.7867,-3.7541,-3.7426,-3.7356,-3.7118,-3.7557,-3.7474,-3.712,-3.6989,-3.6776,-3.6231,-3.601,-3.5734,-3.5588,-3.5413,-3.5302,-3.5131,-3.5216,-3.5492,-3.6289,-3.6678,-3.557,-3.4276,-3.1702,-3.1757,-3.1366,-3.2008,-3.2715,-3.3997,-3.5191,-3.5827,-3.5918,-3.6034,-3.5349,-3.2889,-3.0625,-2.9844,-3.9305,-3.9227,-3.9027,-3.8887,-3.8836,-3.8878,-3.886,-3.8897,-3.8855,-3.8869,-3.8915,-3.908,-3.9099,-3.9152,-3.9482,-3.9549,-3.9236,-3.9573,-3.9705,-3.9775,-3.9894,-3.9865,-3.9569,-3.9515,-3.9634,-3.9835,-3.9816,-3.9976,-4.0173,-4.0202,-4.0283,-4.0439,-4.054,-4.0557,-4.0665,-4.0807,-4.0935,-4.1009,-4.1084,-4.1094,-4.105,-4.106,-4.103,-4.0983,-4.0967,-4.0929,-4.0907,-4.0873,-4.0871,-4.0937,-4.0775,-4.0718,-4.0665,-4.0395,-4.0224,-4.0177,-4.0528,-4.0484,-4.0041,-4.0948,-4.125,-4.0185,-4.0241,-4.0298,-4.0095,-3.9853,-3.9733,-3.9954,-4.0254,-3.9826,-3.9467,-3.8876,-3.8783,-3.8942,-3.8805,-3.9077,-3.953,-3.9661,-3.9398,-3.9007,-3.9232,-3.9286,-3.9365,-3.9508,-3.9681,-3.8537,-3.85,-3.8328,-3.7707,-3.717,-3.6847,-3.6522,-3.6324,-3.6122,-3.5891,-3.5707,-3.5997,-3.6496,-3.722,-3.7055,-3.7391,-3.635,-3.7362,-3.7511,-3.5855,-3.5933,-3.7338,-3.848,-3.9019,-3.9139,-3.8388,-3.9259,-3.9566,-3.7435,-3.6105,-3.9872,-3.9592,-3.9781,-3.9543,-3.9205,-3.9389,-3.9358,-3.9141,-3.9141,-3.9186,-3.9212,-3.9445,-3.9458,-3.9308,-3.9821,-3.987,-3.9566,-3.9937,-4.0158,-4.0196,-4.0329,-4.0362,-4.0191,-4.009,-4.0167,-4.0311,-4.0389,-4.045,-4.0552,-4.0563,-4.0641,-4.0742,-4.0801,-4.0845,-4.0882,-4.0941,-4.101,-4.1072,-4.1113,-4.1083,-4.1046,-4.1013,-4.0986,-4.0926,-4.0915,-4.0849,-4.0767,-4.0738,-4.0707,-4.0643,-4.0591,-4.0571,-4.0552,-4.0315,-4.0253,-4.0439,-4.0596,-4.0626,-4.0592,-4.1178,-4.1542,-4.0893,-4.0965,-4.1209,-4.0781,-4.0373,-4.0082,-3.9978,-3.9816,-3.979,-3.967,-3.9441,-3.9362,-3.9435,-3.9487,-3.9653,-4.0011,-3.9532,-3.9242,-3.9387,-3.9501,-3.9639,-3.9943,-4.0353,-4.0342,-3.9903,-3.9805,-3.9828,-3.92,-3.8388,-3.7825,-3.7362,-3.698,-3.6696,-3.6437,-3.6253,-3.6443,-3.6768,-3.7396,-3.7964,-3.8298,-3.8455,-3.853,-3.8556,-3.8331,-3.8863,-3.9296,-3.9635,-3.9762,-4.0177,-4.0456,-4.0634,-4.0774,-4.0819,-4.0638,-4.0129,-3.9922,-4.0046,-3.9935,-3.9713,-3.9851,-3.9851,-3.9724,-3.9732,-3.9713,-3.9747,-3.9927,-3.9889,-3.9797,-4.0138,-4.0174,-4.0081,-4.0304,-4.0484,-4.0509,-4.061,-4.0641,-4.0628,-4.0552,-4.0571,-4.0687,-4.0687,-4.0718,-4.0766,-4.0849,-4.1014,-4.136,-4.1143,-4.1236,-4.1387,-4.1197,-4.1048,-4.1093,-4.1106,-4.1087,-4.1042,-4.1016,-4.0937,-4.0859,-4.0846,-4.0781,-4.0636,-4.0602,-4.0571,-4.0485,-4.0337,-4.0298,-4.0326,-4.0091,-4.014,-4.0477,-4.0756,-4.0855,-4.1034,-4.1499,-4.1789,-4.1348,-4.1502,-4.1407,-4.1116,-4.0744,-4.0375,-4.0062,-3.9876,-3.9781,-3.9961,-3.9729,-3.9816,-4.0294,-4.0245,-4.0351,-4.0625,-4.0136,-3.9741,-4.0133,-4.0343,-4.0535,-4.0822,-4.1181,-4.1363,-4.1092,-4.0422,-4.0397,-4.0228,-3.9405,-3.8614,-3.8074,-3.7599,-3.7239,-3.6937,-3.6821,-3.688,-3.7152,-3.7542,-3.8015,-3.8412,-3.8468,-3.8475,-3.8709,-3.9024,-3.9342,-3.9762,-4.0099,-4.0334,-4.0429,-4.0581,-4.0834,-4.0935,-4.0859,-4.0824,-4.03,-4.0196,-4.0187,-4.0225,-4.0281,-4.0261,-4.0279,-4.0363,-4.0372,-4.0295,-4.0362,-4.0347,-4.0326,-4.0386,-4.0453,-4.0538,-4.0546,-4.0615,-4.0676,-4.0707,-4.0791,-4.0825,-4.0815,-4.0814,-4.0831,-4.0839,-4.082,-4.0846,-4.0906,-4.0953,-4.1174,-4.1766,-4.1551,-4.1419,-4.1755,-4.1597,-4.121,-4.1122,-4.1098,-4.1076,-4.1039,-4.0987,-4.0913,-4.0804,-4.0751,-4.0675,-4.0552,-4.0488,-4.045,-4.037,-4.0023,-4.0019,-4.01,-3.9917,-3.9879,-4.0518,-4.1,-4.1366,-4.1668,-4.2009,-4.2147,-4.1739,-4.1743,-4.1591,-4.1326,-4.0984,-4.0648,-4.0269,-4.0028,-3.9927,-4.0343,-4.0162,-4.0417,-4.0938,-4.0938,-4.1076,-4.1353,-4.1059,-4.1024,-4.1211,-4.1349,-4.1464,-4.1676,-4.1964,-4.2162,-4.219,-4.1497,-4.0978,-4.0839,-4.0379,-3.955,-3.8666,-3.8166,-3.7537,-3.7188,-3.7169,-3.7245,-3.7394,-3.7739,-3.8117,-3.8523,-3.8828,-3.8985,-3.9308,-3.9626,-3.9874,-4.0101,-4.0367,-4.0518,-4.0563,-4.0676,-4.0871,-4.0906,-4.0878,-4.0859,-4.073,-4.0609,-4.0609,-4.0589,-4.0615,-4.0623,-4.0623,-4.063,-4.061,-4.0648,-4.0616,-4.0615,-4.0609,-4.0608,-4.0639,-4.0663,-4.0701,-4.0767,-4.0796,-4.0815,-4.0914,-4.0954,-4.0955,-4.0981,-4.1029,-4.1031,-4.1014,-4.1036,-4.1059,-4.1011,-4.1501,-4.1493,-4.175,-4.1854,-4.1679,-4.1609,-4.1513,-4.109,-4.1056,-4.104,-4.0961,-4.0922,-4.0815,-4.0701,-4.0628,-4.0523,-4.0411,-4.0378,-4.0285,-4.003,-3.9927,-4.0125,-4.0357,-4.0235,-4.0517,-4.1083,-4.1581,-4.2027,-4.2522,-4.268,-4.2768,-4.2692,-4.2577,-4.22,-4.1721,-4.1348,-4.0978,-4.0417,-4.0129,-4.0129,-4.0659,-4.0618,-4.0861,-4.1366,-4.163,-4.1739,-4.2103,-4.2165,-4.2041,-4.2165,-4.2284,-4.2364,-4.2503,-4.2599,-4.2693,-4.2769,-4.2479,-4.2042,-4.1847,-4.1198,-4.0329,-3.9464,-3.8654,-3.7989,-3.7394,-3.7449,-3.7522,-3.7577,-3.7862,-3.82,-3.8658,-3.9234,-3.9573,-3.9728,-3.9924,-4.0119,-4.037,-4.0598,-4.0688,-4.0723,-4.0806,-4.0906,-4.0918,-4.0914,-4.0873,-4.0828,-4.0719,-4.0713,-4.0706,-4.0718,-4.0711,-4.0709,-4.0707,-4.0704,-4.071,-4.0712,-4.0718,-4.0716,-4.0729,-4.0781,-4.0838,-4.0899,-4.0942,-4.0948,-4.0983,-4.1025,-4.1064,-4.1037,-4.1072,-4.1099,-4.1222,-4.1413,-4.1641,-4.1763,-4.2243,-4.2469,-4.2851,-4.2671,-4.2211,-4.205,-4.1732,-4.1484,-4.1023,-4.0997,-4.0987,-4.0885,-4.0882,-4.0703,-4.0465,-4.0359,-4.0192,-3.9973,-3.9932,-3.9867,-3.9717,-3.9563,-3.9652,-3.9935,-4.0507,-4.1071,-4.1796,-4.2134,-4.2516,-4.3069,-4.3087,-4.3012,-4.3012,-4.2994,-4.2824,-4.2358,-4.1948,-4.1366,-4.0814,-4.0618,-4.0838,-4.1635,-4.1375,-4.166,-4.2218,-4.23,-4.2382,-4.2713,-4.2884,-4.292,-4.292,-4.2921,-4.2977,-4.316,-4.3214,-4.3214,-4.3233,-4.3232,-4.2923,-4.2577,-4.1647,-4.0604,-3.9806,-3.8909,-3.8359,-3.7825,-3.786,-3.7878,-3.7912,-3.8066,-3.841,-3.8673,-3.9181,-3.959,-3.987,-4.0101,-4.0309,-4.0503,-4.0675,-4.0784,-4.0869,-4.0876,-4.0906,-4.0953,-4.0971,-4.0898,-4.0874,-4.0782,-4.077,-4.0752,-4.0752,-4.0766,-4.0773,-4.0762,-4.0758,-4.077,-4.0758,-4.0769,-4.0781,-4.0791,-4.0875,-4.0968,-4.1066,-4.1065,-4.1046,-4.1046,-4.1068,-4.109,-4.1071,-4.1091,-4.1172,-4.1579,-4.2178,-4.245,-4.2421,-4.3026,-4.3895,-4.3895,-4.3062,-4.276,-4.2797,-4.212,-4.1388,-4.1142,-4.1151,-4.1157,-4.1252,-4.0928,-4.0665,-4.0309,-4.0167,-3.9894,-3.9656,-3.9604,-3.9544,-3.9427,-3.9277,-3.9194,-3.9452,-4.043,-4.1537,-4.2379,-4.2465,-4.2843,-4.3121,-4.3215,-4.3105,-4.3105,-4.3105,-4.3049,-4.2767,-4.2177,-4.1674,-4.1348,-4.1241,-4.1508,-4.2124,-4.2126,-4.2386,-4.2884,-4.294,-4.2847,-4.3178,-4.3357,-4.341,-4.3445,-4.3498,-4.3498,-4.3515,-4.3372,-4.3284,-4.2864,-4.2809,-4.2406,-4.2005,-4.1332,-4.0457,-3.9789,-3.9105,-3.8619,-3.8321,-3.8334,-3.8319,-3.8319,-3.8496,-3.8759,-3.8894,-3.9091,-3.9507,-3.9943,-4.0185,-4.0386,-4.0588,-4.0732,-4.0801,-4.0864,-4.0885,-4.0898,-4.0944,-4.095,-4.0926,-4.1062,-4.1036,-4.0986,-4.0969,-4.0959,-4.0955,-4.0956,-4.0937,-4.0937,-4.0951,-4.0918,-4.0971,-4.0951,-4.1028,-4.0988,-4.1003,-4.1062,-4.1027,-4.1028,-4.1029,-4.1122,-4.1177,-4.1072,-4.0943,-4.161,-4.2165,-4.2966,-4.2865,-4.292,-4.3402,-4.3685,-4.3897,-4.418,-4.3841,-4.284,-4.2733,-4.2723,-4.2116,-4.2021,-4.2305,-4.2536,-4.1456,-4.1042,-4.0922,-4.0478,-3.9941,-3.9729,-3.9577,-3.9389,-3.9219,-3.9156,-3.933,-3.9826,-4.0611,-4.146,-4.2266,-4.2859,-4.3303,-4.3358,-4.3287,-4.3196,-4.3215,-4.316,-4.2976,-4.2617,-4.2304,-4.1916,-4.1768,-4.1746,-4.2021,-4.2523,-4.2562,-4.2866,-4.3178,-4.3409,-4.3443,-4.3669,-4.3584,-4.3652,-4.3686,-4.3652,-4.3667,-4.3666,-4.3473,-4.3242,-4.2783,-4.2324,-4.1972,-4.1466,-4.0858,-4.0281,-3.9606,-3.938,-3.897,-3.8762,-3.8773,-3.874,-3.874,-3.8863,-3.9059,-3.9187,-3.9305,-3.9578,-3.9982,-4.0232,-4.0446,-4.0609,-4.0732,-4.0796,-4.0859,-4.0904,-4.0906,-4.0903,-4.0909,-4.0943,-4.1053,-4.1041,-4.1021,-4.0994,-4.0994,-4.0986,-4.098,-4.0975,-4.0994,-4.0992,-4.0987,-4.1003,-4.1247,-4.1501,-4.1286,-4.1283,-4.153,-4.1222,-4.101,-4.1182,-4.1429,-4.1698,-4.1894,-4.2197,-4.2749,-4.3026,-4.37,-4.4063,-4.3973,-4.4439,-4.4947,-4.4845,-4.471,-4.4406,-4.3327,-4.3348,-4.3117,-4.282,-4.2768,-4.2892,-4.2888,-4.2429,-4.1993,-4.1999,-4.1043,-4.0443,-4.0065,-3.9426,-3.9161,-3.9021,-3.8964,-3.9006,-3.9516,-4.0354,-4.1297,-4.159,-4.282,-4.339,-4.3445,-4.3358,-4.3304,-4.3233,-4.3087,-4.2751,-4.2483,-4.2505,-4.2526,-4.2545,-4.2527,-4.2736,-4.3087,-4.3249,-4.3391,-4.36,-4.3666,-4.3718,-4.3804,-4.3786,-4.3769,-4.3802,-4.3832,-4.3807,-4.3728,-4.3444,-4.3317,-4.3156,-4.265,-4.2173,-4.144,-4.0563,-4.001,-3.9429,-3.9395,-3.9371,-3.9236,-3.9184,-3.9139,-3.9107,-3.9039,-3.9242,-3.9439,-3.9623,-3.9832,-4.0011,-4.0233,-4.043,-4.0635,-4.0754,-4.0859,-4.0897,-4.0928,-4.0924,-4.0924,-4.0961,-4.0976,-4.0988,-4.0992,-4.0976,-4.0991,-4.0986,-4.0976,-4.0966,-4.0979,-4.0957,-4.0976,-4.0969,-4.099,-4.1356,-4.1707,-4.1298,-4.1263,-4.1808,-4.1252,-4.1193,-4.1466,-4.1908,-4.232,-4.2617,-4.3198,-4.3571,-4.3868,-4.4287,-4.4695,-4.5128,-4.5536,-4.5813,-4.5919,-4.5301,-4.4833,-4.446,-4.4046,-4.3653,-4.362,-4.3554,-4.3665,-4.3728,-4.33,-4.3028,-4.2584,-4.1789,-4.087,-4.0463,-3.9574,-3.905,-3.8935,-3.8974,-3.9094,-3.9478,-4.0438,-4.1323,-4.182,-4.2923,-4.3512,-4.348,-4.3393,-4.334,-4.3286,-4.3214,-4.2995,-4.2884,-4.3105,-4.3266,-4.3231,-4.3231,-4.3425,-4.3703,-4.3771,-4.3769,-4.3767,-4.3835,-4.3835,-4.3851,-4.3793,-4.3788,-4.3836,-4.3859,-4.3935,-4.3767,-4.3431,-4.3331,-4.3411,-4.3011,-4.2382,-4.1412,-4.0342,-4.0056,-3.9618,-3.9702,-3.9788,-3.9743,-3.9632,-3.9585,-3.9519,-3.9439,-3.9463,-3.9693,-3.9792,-3.9905,-4.0099,-4.0271,-4.0449,-4.0654,-4.0776,-4.0896,-4.092,-4.0937,-4.0967,-4.0987,-4.1003,-4.1025,-4.0976,-4.0983,-4.0992,-4.0981,-4.0977,-4.0925,-4.0896,-4.0913,-4.09,-4.0904,-4.0917,-4.0926,-4.0989,-4.1062,-4.111,-4.1017,-4.1095,-4.095,-4.136,-4.1838,-4.2252,-4.2757,-4.3243,-4.3676,-4.3989,-4.4541,-4.4874,-4.5245,-4.5615,-4.5749,-4.5893,-4.5769,-4.5609,-4.5208,-4.4871,-4.462,-4.4504,-4.4471,-4.4431,-4.4761,-4.4677,-4.4206,-4.3494,-4.3378,-4.2137,-4.0918,-4.0735,-3.9801,-3.9303,-3.9189,-3.931,-3.9644,-4.0122,-4.0919,-4.1678,-4.2302,-4.3061,-4.3595,-4.3635,-4.341,-4.3232,-4.3375,-4.3478,-4.3443,-4.3338,-4.3582,-4.3736,-4.3701,-4.3647,-4.3701,-4.3837,-4.3869,-4.3881,-4.3897,-4.3913,-4.3929,-4.3889,-4.3754,-4.3766,-4.3828,-4.3886,-4.3919,-4.4037,-4.3728,-4.3369,-4.3416,-4.2647,-4.1992,-4.1108,-4.0209,-4.0223,-4.009,-4.0148,-4.0215,-4.0215,-4.0138,-4.0,-3.995,-3.9899,-3.9908,-4.0007,-4.0058,-4.0049,-4.0138,-4.0308,-4.0476,-4.064,-4.0729,-4.0825,-4.0887,-4.0949,-4.0994,-4.103,-4.1046,-4.1064,-4.0988,-4.0992,-4.0958,-4.0949,-4.0921,-4.0906,-4.0888,-4.0888,-4.0888,-4.0888,-4.0888,-4.0907,-4.1199,-4.1412,-4.1102,-4.1218,-4.1529,-4.1082,-4.1573,-4.2189,-4.2743,-4.3456,-4.4111,-4.4727,-4.5226,-4.5417,-4.5489,-4.5555,-4.5841,-4.5912,-4.5906,-4.5867,-4.5821,-4.5671,-4.5374,-4.5258,-4.5278,-4.5297,-4.5283,-4.5513,-4.5476,-4.5218,-4.4567,-4.4053,-4.2957,-4.1774,-4.1155,-4.0133,-3.9908,-3.9988,-4.0093,-4.0467,-4.0959,-4.1653,-4.2195,-4.2673,-4.3347,-4.3679,-4.3788,-4.3549,-4.3444,-4.3284,-4.3528,-4.3697,-4.3597,-4.3714,-4.3862,-4.3913,-4.3913,-4.3931,-4.3929,-4.3961,-4.3958,-4.3976,-4.4008,-4.4023,-4.3906,-4.3751,-4.389,-4.4034,-4.3941,-4.3869,-4.4026,-4.4111,-4.3705,-4.3333,-4.2437,-4.1581,-4.0768,-4.0223,-4.0279,-4.0288,-4.0326,-4.0354,-4.0345,-4.0354,-4.0344,-4.0326,-4.0299,-4.0244,-4.0196,-4.0234,-4.0225,-4.0281,-4.0309,-4.0422,-4.0542,-4.0655,-4.077,-4.0872,-4.097,-4.1047,-4.1074,-4.1072,-4.11,-4.1021,-4.102,-4.0964,-4.095,-4.0906,-4.0893,-4.0897,-4.0926,-4.0893,-4.0888,-4.0888,-4.0927,-4.1199,-4.151,-4.1257,-4.114,-4.1432,-4.1276,-4.1743,-4.2442,-4.3253,-4.4151,-4.5006,-4.5589,-4.5792,-4.5989,-4.5983,-4.5972,-4.5943,-4.5923,-4.5912,-4.59,-4.5854,-4.5801,-4.5761,-4.5807,-4.5807,-4.5807,-4.58,-4.5805,-4.5788,-4.5646,-4.5452,-4.4696,-4.3666,-4.2928,-4.2228,-4.1476,-4.1029,-4.1144,-4.1293,-4.1516,-4.1978,-4.2426,-4.2777,-4.3122,-4.3444,-4.3816,-4.3851,-4.3769,-4.3599,-4.3319,-4.3631,-4.3662,-4.3644,-4.3793,-4.3958,-4.3989,-4.402,-4.4051,-4.407,-4.4085,-4.4085,-4.4104,-4.4116,-4.4128,-4.3897,-4.3737,-4.4027,-4.4242,-4.3838,-4.314,-4.364,-4.3656,-4.307,-4.2593,-4.1825,-4.1198,-4.0803,-4.0427,-4.0419,-4.0411,-4.0375,-4.0394,-4.0413,-4.0405,-4.0415,-4.0381,-4.0344,-4.0326,-4.0308,-4.0326,-4.0335,-4.0326,-4.0354,-4.0372,-4.0481,-4.0642,-4.0766,-4.0886,-4.0983,-4.1097,-4.1087,-4.1098,-4.1104,-4.105,-4.1083,-4.1042,-4.0992,-4.0988,-4.0926,-4.093,-4.0952,-4.0926,-4.0946,-4.1005,-4.0966,-4.1063,-4.116,-4.116,-4.1199,-4.1374,-4.1199,-4.1801,-4.3199,-4.3258,-4.4384,-4.5258,-4.5802,-4.5744,-4.5963,-4.5991,-4.5994,-4.5997,-4.5978,-4.5962,-4.5912,-4.5867,-4.5854,-4.5807,-4.5807,-4.5807,-4.5807,-4.5807,-4.5805,-4.5795,-4.5719,-4.5565,-4.4845,-4.4314,-4.3656,-4.2871,-4.2565,-4.2218,-4.2324,-4.2447,-4.2704,-4.3074,-4.3133,-4.3382,-4.3785,-4.3818,-4.3929,-4.3974,-4.3867,-4.3631,-4.3406,-4.3763,-4.3862,-4.3923,-4.4005,-4.4039,-4.4036,-4.4119,-4.4184,-4.4214,-4.4226,-4.4211,-4.4226,-4.4237,-4.425,-4.4036,-4.3439,-4.3642,-4.393,-4.2853,-4.2046,-4.2759,-4.3055,-4.2364,-4.1735,-4.1077,-4.0723,-4.0592,-4.0558,-4.0523,-4.0508,-4.0465,-4.0457,-4.0476,-4.0491,-4.0466,-4.0432,-4.0407,-4.0379,-4.0372,-4.0354,-4.0363,-4.0381,-4.0389,-4.0398,-4.0519,-4.0662,-4.0796,-4.0945,-4.1025,-4.1097,-4.11,-4.1124,-4.1129,-4.1076,-4.1103,-4.1036,-4.0993,-4.0986,-4.0939,-4.0917,-4.0926,-4.0956,-4.1218,-4.1548,-4.1218,-4.1665,-4.1995,-4.1568,-4.1529,-4.2306,-4.1218,-4.1976,-4.4035,-4.3277,-4.384,-4.4753,-4.5278,-4.5244,-4.5356,-4.5608,-4.5997,-4.5986,-4.5986,-4.5966,-4.5905,-4.5874,-4.5821,-4.5807,-4.5807,-4.5807,-4.5807,-4.5807,-4.5819,-4.5798,-4.573,-4.5295,-4.4326,-4.43,-4.3962,-4.3165,-4.3079,-4.329,-4.3433,-4.357,-4.3705,-4.3925,-4.3922,-4.3942,-4.4042,-4.3958,-4.3992,-4.3989,-4.3945,-4.3876,-4.3809,-4.3844,-4.3992,-4.4005,-4.4085,-4.4119,-4.4131,-4.4211,-4.4274,-4.427,-4.427,-4.4285,-4.431,-4.435,-4.4467,-4.4218,-4.3275,-4.2957,-4.3326,-4.2821,-4.2063,-4.2225,-4.2408,-4.1853,-4.1442,-4.0887,-4.073,-4.0612,-4.0586,-4.0571,-4.0557,-4.0549,-4.0542,-4.0554,-4.0543,-4.0519,-4.0487,-4.0471,-4.0436,-4.0422,-4.0398,-4.0398,-4.0405,-4.0405,-4.0422,-4.0568,-4.0718,-4.0883,-4.0996,-4.1072,-4.1103,-4.1104,-4.1129,-4.1171,-4.1114,-4.1105,-4.1039,-4.1028,-4.1016,-4.0949,-4.0926,-4.097,-4.1218,-4.1684,-4.2034,-4.1879,-4.2345,-4.2889,-4.2539,-4.2165,-4.333,-4.2131,-4.2403,-4.4345,-4.301,-4.3549,-4.4365,-4.4773,-4.4909,-4.5025,-4.5516,-4.6002,-4.5997,-4.6002,-4.5964,-4.5905,-4.5874,-4.5847,-4.5833,-4.5807,-4.5807,-4.5807,-4.5807,-4.5807,-4.5812,-4.5675,-4.5305,-4.4749,-4.4538,-4.4457,-4.3751,-4.3736,-4.4179,-4.4456,-4.4585,-4.4581,-4.4678,-4.4599,-4.4457,-4.4236,-4.4033,-4.4051,-4.4055,-4.4089,-4.4055,-4.4101,-4.4085,-4.4085,-4.4116,-4.4195,-4.4229,-4.4259,-4.4333,-4.4344,-4.434,-4.4358,-4.4411,-4.4468,-4.4589,-4.4695,-4.4156,-4.3251,-4.2833,-4.3141,-4.256,-4.1967,-4.1596,-4.1531,-4.1362,-4.1065,-4.0776,-4.07,-4.0636,-4.0629,-4.0635,-4.0621,-4.0633,-4.0626,-4.0612,-4.0571,-4.0561,-4.0539,-4.0523,-4.05,-4.0479,-4.0458,-4.0438,-4.0455,-4.0479,-4.0519,-4.0661,-4.0791,-4.0938,-4.1039,-4.1083,-4.1108,-4.1108,-4.113,-4.1191,-4.1105,-4.1108,-4.1105,-4.1113,-4.1081,-4.1018,-4.0963,-4.0966,-4.1747,-4.2097,-4.2233,-4.2928,-4.3335,-4.353,-4.3428,-4.3466,-4.3369,-4.2558,-4.3219,-4.3666,-4.2699,-4.351,-4.4112,-4.4598,-4.4637,-4.5006,-4.5516,-4.5982,-4.5982,-4.5991,-4.5964,-4.5923,-4.5899,-4.5867,-4.5847,-4.5821,-4.5814,-4.5807,-4.5807,-4.5807,-4.5819,-4.5778,-4.5513,-4.5228,-4.5271,-4.5248,-4.4997,-4.5194,-4.5399,-4.553,-4.5579,-4.5444,-4.5284,-4.5041,-4.4739,-4.443,-4.414,-4.4147,-4.4165,-4.4199,-4.4255,-4.4281,-4.4274,-4.4274,-4.427,-4.43,-4.4344,-4.4387,-4.444,-4.444,-4.4454,-4.4519,-4.46,-4.472,-4.4868,-4.4604,-4.4075,-4.3542,-4.3179,-4.2717,-4.1738,-4.117,-4.1085,-4.0978,-4.1136,-4.0995,-4.0804,-4.0792,-4.0738,-4.07,-4.0694,-4.0713,-4.07,-4.07,-4.0661,-4.064,-4.06,-4.0591,-4.0576,-4.0554,-4.0535,-4.0511,-4.0508,-4.0523,-4.0573,-4.0648,-4.0756,-4.0887,-4.0998,-4.1074,-4.113,-4.111,-4.111,-4.113,-4.1151,-4.1115,-4.1108,-4.1103,-4.1083,-4.1019,-4.0968,-4.0921,-4.0946,-4.1218,-4.1587,-4.2214,-4.2461,-4.3394,-4.4326,-4.3797,-4.3957,-4.3666,-4.3199,-4.3083,-4.2928,-4.2558,-4.285,-4.3394,-4.4074,-4.4287,-4.4909,-4.5516,-4.6002,-4.5997,-4.5986,-4.5989,-4.596,-4.5911,-4.5899,-4.588,-4.5867,-4.5841,-4.5821,-4.5814,-4.5807,-4.5807,-4.5812,-4.5566,-4.5346,-4.5597,-4.5505,-4.5274,-4.559,-4.5718,-4.5773,-4.5773,-4.5624,-4.5295,-4.5088,-4.4819,-4.4407,-4.4252,-4.424,-4.4274,-4.4289,-4.4344,-4.4454,-4.4482,-4.4383,-4.4368,-4.4426,-4.451,-4.4551,-4.46,-4.464,-4.4674,-4.4739,-4.482,-4.4946,-4.508,-4.492,-4.4364,-4.375,-4.3355,-4.2434,-4.1408,-4.0959,-4.084,-4.0876,-4.0989,-4.0911,-4.0867,-4.0837,-4.0821,-4.0787,-4.0763,-4.0764,-4.0745,-4.0739,-4.0713,-4.0674,-4.0661,-4.0647,-4.0626,-4.0612,-4.0591,-4.0576,-4.0571,-4.06,-4.0647,-4.074,-4.0859,-4.097,-4.1055,-4.1124,-4.1171,-4.1132,-4.1112,-4.1131,-4.1152,-4.1116,-4.1109,-4.1109,-4.107,-4.1028,-4.1006,-4.0961,-4.098,-4.1276,-4.1898,-4.2694,-4.3161,-4.3981,-4.4972,-4.452,-4.4462,-4.5064,-4.3704,-4.3471,-4.4112,-4.2617,-4.3219,-4.3666,-4.4015,-4.4384,-4.4967,-4.5516,-4.5982,-4.5997,-4.5986,-4.5989,-4.5991,-4.5935,-4.5911,-4.5893,-4.5893,-4.5874,-4.5848,-4.5827,-4.5821,-4.5814,-4.5807,-4.5452,-4.5278,-4.5633,-4.5394,-4.5162,-4.5671,-4.5754,-4.581,-4.581,-4.5731,-4.5426,-4.5194,-4.4849,-4.4481,-4.4325,-4.431,-4.4344,-4.4416,-4.4496,-4.4587,-4.468,-4.4653,-4.4627,-4.4653,-4.4693,-4.4732,-4.4808,-4.4883,-4.4912,-4.4953,-4.5049,-4.5169,-4.5266,-4.5357,-4.4723,-4.4002,-4.3169,-4.2266,-4.1592,-4.107,-4.0858,-4.0893,-4.0898,-4.0883,-4.0883,-4.0878,-4.0858,-4.0812,-4.079,-4.0792,-4.0769,-4.077,-4.0752,-4.0733,-4.072,-4.0707,-4.0726,-4.0687,-4.0654,-4.0654,-4.0687,-4.0701,-4.0745,-4.0835,-4.0914,-4.0992,-4.1078,-4.1144,-4.1191,-4.1172,-4.1152,-4.1172,-4.1191,-4.1105,-4.1109,-4.1109,-4.1117,-4.1115,-4.1074,-4.1044,-4.1091,-4.1673,-4.2495,-4.3209,-4.4307,-4.4928,-4.5142,-4.4948,-4.5103,-4.5142,-4.421,-4.3976,-4.571,-4.3899,-4.3724,-4.4326,-4.4792,-4.4812,-4.5103,-4.5516,-4.5982,-4.5982,-4.5991,-4.598,-4.5983,-4.5983,-4.5966,-4.5923,-4.591,-4.5892,-4.5874,-4.5861,-4.5848,-4.5814,-4.5807,-4.5807,-4.5768,-4.5787,-4.5749,-4.5749,-4.5807,-4.5807,-4.5807,-4.58,-4.5778,-4.556,-4.5285,-4.4919,-4.4656,-4.4472,-4.4421,-4.4482,-4.4565,-4.4672,-4.4776,-4.4833,-4.4883,-4.4907,-4.487,-4.4883,-4.4907,-4.4979,-4.5026,-4.5061,-4.514,-4.5226,-4.5256,-4.5299,-4.5179,-4.4697,-4.3853,-4.2858,-4.2005,-4.1322,-4.0873,-4.0878,-4.0888,-4.0907,-4.0907,-4.0903,-4.0903,-4.0903,-4.0854,-4.0828,-4.0812,-4.0815,-4.0812,-4.0775,-4.0782,-4.0758,-4.0765,-4.0771,-4.0759,-4.0701,-4.0733,-4.079,-4.0803,-4.0796,-4.0858,-4.0937,-4.1016,-4.109,-4.1141,-4.1191,-4.1191,-4.1191,-4.1191,-4.1191,-4.1105,-4.1109,-4.1115,-4.1103,-4.1103,-4.1051,-4.101,-4.1003,-4.1186,-4.1477,-4.1976,-4.369,-4.4564,-4.4438,-4.5293,-4.5526,-4.5016,-4.4759,-4.4365,-4.4472,-4.3831,-4.4292,-4.472,-4.4982,-4.5172,-4.5613,-4.5924,-4.5982,-4.5982,-4.6002,-4.5997,-4.5991,-4.5986,-4.5969,-4.5953,-4.5958,-4.5953,-4.5925,-4.5886,-4.5861,-4.5821,-4.5807,-4.5807,-4.5807,-4.5807,-4.5807,-4.5807,-4.5807,-4.5807,-4.5807,-4.5807,-4.5715,-4.5552,-4.5284,-4.5011,-4.4795,-4.4648,-4.46,-4.4627,-4.4732,-4.4846,-4.4962,-4.5026,-4.5114,-4.5136,-4.5072,-4.5061,-4.5072,-4.5095,-4.5159,-4.5216,-4.5285,-4.53,-4.5293,-4.5242,-4.4943,-4.4596,-4.3613,-4.2579,-4.1784,-4.1058,-4.0937,-4.0942,-4.0917,-4.093,-4.0906,-4.0893,-4.0893,-4.093,-4.0921,-4.0883,-4.0863,-4.0872,-4.0856,-4.084,-4.0804,-4.0781,-4.0781,-4.0787,-4.0769,-4.0745,-4.0777,-4.0797,-4.0797,-4.0827,-4.0883,-4.0948,-4.0997,-4.1057,-4.1137,-4.1172,-4.1191,-4.1191,-4.1191,-4.1191,-4.1112,-4.1102,-4.1116,-4.1112,-4.1094,-4.1066,-4.105,-4.1107,-4.1415,-4.1579,-4.1781,-4.3353,-4.4178,-4.4061,-4.5151,-4.5739,-4.5248,-4.498,-4.5047,-4.477,-4.4597,-4.5043,-4.5282,-4.5337,-4.5595,-4.5998,-4.5988,-4.5982,-4.5982,-4.5982,-4.6002,-4.5982,-4.6002,-4.5991,-4.6,-4.5991,-4.598,-4.5955,-4.5923,-4.588,-4.5827,-4.5814,-4.5807,-4.5807,-4.5807,-4.5807,-4.5807,-4.5807,-4.5807,-4.5771,-4.5715,-4.5653,-4.5445,-4.5173,-4.5007,-4.4868,-4.4783,-4.4738,-4.4815,-4.4907,-4.5014,-4.5072,-4.5181,-4.5224,-4.5256,-4.5224,-4.5246,-4.5267,-4.5213,-4.5235,-4.5288,-4.5362,-4.5059,-4.4924,-4.478,-4.4531,-4.4036,-4.3255,-4.2267,-4.1384,-4.1085,-4.1373,-4.128,-4.0957,-4.0961,-4.0964,-4.0928,-4.0952,-4.0964,-4.0964,-4.093,-4.0898,-4.0913,-4.0893,-4.0867,-4.0832,-4.0796,-4.0801,-4.0812,-4.0784,-4.0769,-4.079,-4.0797,-4.0803,-4.082,-4.0868,-4.0928,-4.0997,-4.1052,-4.1114,-4.1152,-4.1191,-4.1191,-4.1191,-4.1191,-4.1112,-4.1111,-4.1105,-4.1107,-4.1112,-4.1113,-4.1112,-4.1205,-4.1796,-4.207,-4.2187,-4.3131,-4.4089,-4.4656,-4.5085,-4.5608,-4.58,-4.5443,-4.5602,-4.5827,-4.5944,-4.5819,-4.5825,-4.6039,-4.6036,-4.5998,-4.6017,-4.6007,-4.5982,-4.5982,-4.5982,-4.5982,-4.5982,-4.6002,-4.5982,-4.5997,-4.5986,-4.5958,-4.5935,-4.5899,-4.5861,-4.5827,-4.5814,-4.5807,-4.5807,-4.5807,-4.5807,-4.5807,-4.5807,-4.5752,-4.5665,-4.5594,-4.5427,-4.5173,-4.5033,-4.4927,-4.4833,-4.4833,-4.4907,-4.5057,-4.5114,-4.5159,-4.5256,-4.5319,-4.535,-4.539,-4.5409,-4.5371,-4.5331,-4.5284,-4.5314,-4.5389,-4.504,-4.4396,-4.4234,-4.3941,-4.3352,-4.2986,-4.2302,-4.1379,-4.1542,-4.187,-4.1581,-4.1234,-4.1094,-4.108,-4.0999,-4.1002,-4.1002,-4.0995,-4.0957,-4.0932,-4.093,-4.0927,-4.0898,-4.0863,-4.0828,-4.0833,-4.0839,-4.0826,-4.0812,-4.0802,-4.0803,-4.0809,-4.0843,-4.0873,-4.0941,-4.101,-4.1061,-4.1116,-4.1152,-4.1191,-4.1191,-4.1191,-4.1191,-4.1112,-4.1112,-4.1107,-4.1122,-4.1107,-4.1117,-4.1103,-4.1121,-4.1262,-4.1322,-4.1837,-4.3023,-4.41,-4.4867,-4.5608,-4.6028,-4.6016,-4.5785,-4.5875,-4.608,-4.6146,-4.6087,-4.6065,-4.6111,-4.6032,-4.6017,-4.6017,-4.6002,-4.5982,-4.5982,-4.5982,-4.5982,-4.5982,-4.5982,-4.5982,-4.5997,-4.5997,-4.5975,-4.5941,-4.5925,-4.5886,-4.5854,-4.5814,-4.5807,-4.5807,-4.5807,-4.5807,-4.5807,-4.5807,-4.5793,-4.5711,-4.5618,-4.5427,-4.5194,-4.5063,-4.495,-4.4857,-4.4924,-4.5026,-4.5159,-4.5213,-4.5235,-4.5329,-4.54,-4.5467,-4.5522,-4.5519,-4.5466,-4.5381,-4.5186,-4.5247,-4.5607,-4.5413,-4.4157,-4.3509,-4.2972,-4.2394,-4.299,-4.3213,-4.2685,-4.2507,-4.2452,-4.2088,-4.1782,-4.1538,-4.1409,-4.1036,-4.1039,-4.1045,-4.1033,-4.0997,-4.0972,-4.0964,-4.0939,-4.0927,-4.0893,-4.0869,-4.0869,-4.0864,-4.0853,-4.0834,-4.0808,-4.0809,-4.0796,-4.0818,-4.0868,-4.0941,-4.1034,-4.1099,-4.1144,-4.117,-4.1191,-4.1191,-4.1191,-4.1191]},{"header":{"parameterUnit":"m.s-1","parameterCategory":1,"la1":31.0,"la2":29.5877,"lo1":-88.7671,"lo2":-86.6584,"dy":0.0162,"dx":0.0185,"nx":115,"ny":88,"refTime":"2024-11-22T06:00:00:Z","depth":0,"parameterNumber":3,"parameterNumberName":"V-component_of_WINDS"},"data":[0.0,0.0,0.0,0.0,0.0,0.0,0.0,0.0,0.0,0.0,0.0,0.0,0.0,0.0,0.0,0.0,0.0,0.0,0.0,0.0,0.0,0.0,0.0,0.0,0.0,0.0,0.0,0.0,0.0,0.0,0.0,0.0,0.0,0.0,0.0,0.0,0.0,0.0,0.0,0.0,0.0,0.0,0.0,0.0,0.0,0.0,0.0,0.0,0.0,0.0,0.0,0.0,0.0,0.0,0.0,0.0,0.0,0.0,0.0,0.0,0.0,0.0,0.0,0.0,0.0,0.0,0.0,0.0,0.0,0.0,0.0,0.0,0.0,0.0,0.0,0.0,0.0,0.0,0.0,0.0,0.0,0.0,0.0,0.0,0.0,0.0,0.0,0.0,0.0,0.0,0.0,0.0,0.0,0.0,0.0,0.0,0.0,0.0,0.0,0.0,0.0,0.0,0.0,0.0,0.0,0.0,0.0,0.0,0.0,0.0,0.0,0.0,0.0,0.0,0.0,0.0,0.0,0.0,0.0,0.0,0.0,0.0,0.0,0.0,0.0,0.0,0.0,0.0,0.0,0.0,0.0,0.0,0.0,0.0,0.0,0.0,0.0,0.0,0.0,0.0,0.0,0.0,0.0,0.0,0.0,0.0,0.0,0.0,0.0,0.0,0.0,0.0,0.0,0.0,0.0,0.0,0.0,0.0,0.0,0.0,0.0,0.0,0.0,0.0,0.0,0.0,0.0,0.0,0.0,0.0,0.0,0.0,0.0,0.0,0.0,0.0,0.0,0.0,0.0,0.0,0.0,0.0,0.0,0.0,0.0,0.0,0.0,0.0,0.0,0.0,0.0,0.0,0.0,0.0,0.0,0.0,0.0,0.0,0.0,0.0,0.0,0.0,0.0,0.0,0.0,0.0,0.0,0.0,0.0,0.0,0.0,0.0,0.0,0.0,0.0,0.0,0.0,0.0,0.0,0.0,0.0,0.0,0.0,0.0,0.0,0.0,0.0,0.0,0.0,0.0,0.0,0.0,0.0,0.0,0.0,0.0,0.0,0.0,0.0,0.0,0.0,0.0,0.0,0.0,0.0,0.0,0.0,0.0,0.0,0.0,0.0,0.0,0.0,0.0,0.0,0.0,0.0,0.0,0.0,0.0,0.0,0.0,0.0,0.0,0.0,0.0,0.0,0.0,0.0,0.0,0.0,0.0,0.0,0.0,0.0,0.0,0.0,0.0,0.0,0.0,0.0,0.0,0.0,0.0,0.0,0.0,0.0,0.0,0.0,0.0,0.0,0.0,0.0,0.0,0.0,0.0,0.0,0.0,0.0,0.0,0.0,0.0,0.0,0.0,0.0,0.0,0.0,0.0,0.0,0.0,0.0,0.0,0.0,0.0,0.0,0.0,0.0,0.0,0.0,0.0,0.0,0.0,0.0,0.0,0.0,0.0,0.0,0.0,0.0,0.0,0.0,0.0,0.0,0.0,0.0,0.0,0.0,0.0,0.0,0.0,0.0,0.0,0.0,0.0,0.0,0.0,0.0,0.0,0.0,0.0,0.0,0.0,0.0,0.0,0.0,0.0,0.0,0.0,0.0,0.0,0.0,0.0,0.0,0.0,0.0,0.0,0.0,0.0,0.0,0.0,0.0,0.0,0.0,0.0,0.0,0.0,0.0,0.0,0.0,0.0,0.0,0.0,0.0,0.0,0.0,0.0,0.0,0.0,0.0,0.0,0.0,0.0,0.0,0.0,0.0,0.0,0.0,0.0,0.0,0.0,0.0,0.0,0.0,0.0,0.0,0.0,0.0,0.0,0.0,0.0,0.0,0.0,0.0,0.0,0.0,0.0,0.0,0.0,0.0,0.0,0.0,0.0,0.0,0.0,0.0,0.0,0.0,0.0,0.0,0.0,0.0,0.0,0.0,0.0,0.0,0.0,0.0,0.0,0.0,0.0,0.0,0.0,0.0,0.0,0.0,0.0,0.0,0.0,0.0,0.0,0.0,0.0,0.0,0.0,0.0,0.0,0.0,0.0,0.0,0.0,0.0,0.0,0.0,0.0,0.0,0.0,0.0,0.0,0.0,0.0,0.0,0.0,0.0,0.0,0.0,0.0,0.0,0.0,0.0,0.0,0.0,0.0,0.0,0.0,0.0,0.0,0.0,0.0,0.0,0.0,0.0,0.0,0.0,0.0,0.0,0.0,0.0,0.0,0.0,0.0,0.0,0.0,0.0,0.0,0.0,0.0,0.0,0.0,0.0,0.0,0.0,0.0,0.0,0.0,0.0,0.0,0.0,0.0,0.0,0.0,0.0,0.0,0.0,0.0,0.0,0.0,0.0,0.0,0.0,0.0,0.0,0.0,0.0,0.0,0.0,0.0,0.0,0.0,0.0,0.0,0.0,0.0,0.0,0.0,0.0,0.0,0.0,0.0,0.0,0.0,0.0,0.0,0.0,0.0,0.0,0.0,0.0,0.0,0.0,0.0,0.0,0.0,0.0,0.0,0.0,0.0,0.0,0.0,0.0,0.0,0.0,0.0,0.0,0.0,0.0,0.0,0.0,0.0,0.0,0.0,0.0,0.0,0.0,0.0,0.0,0.0,0.0,0.0,0.0,0.0,0.0,0.0,0.0,0.0,0.0,0.0,0.0,0.0,0.0,0.0,0.0,0.0,0.0,0.0,0.0,0.0,0.0,0.0,0.0,0.0,0.0,0.0,0.0,0.0,0.0,0.0,0.0,0.0,0.0,0.0,0.0,0.0,0.0,0.0,0.0,0.0,0.0,0.0,0.0,0.0,0.0,0.0,0.0,0.0,0.0,0.0,0.0,0.0,0.0,0.0,0.0,0.0,0.0,0.0,0.0,0.0,0.0,0.0,0.0,0.0,0.0,0.0,0.0,0.0,0.0,0.0,0.0,0.0,0.0,0.0,0.0,0.0,0.0,0.0,0.0,0.0,0.0,0.0,0.0,0.0,0.0,0.0,0.0,0.0,0.0,0.0,0.0,0.0,0.0,0.0,0.0,0.0,0.0,0.0,0.0,0.0,0.0,0.0,0.0,0.0,0.0,0.0,0.0,0.0,0.0,0.0,0.0,0.0,0.0,0.0,0.0,0.0,0.0,0.0,0.0,0.0,0.0,0.0,0.0,0.0,0.0,0.0,0.0,0.0,0.0,0.0,0.0,0.0,0.0,0.0,0.0,0.0,0.0,0.0,0.0,0.0,0.0,0.0,0.0,0.0,0.0,0.0,0.0,0.0,0.0,0.0,0.0,0.0,0.0,0.0,0.0,0.0,0.0,0.0,0.0,0.0,0.0,0.0,0.0,0.0,0.0,0.0,0.0,0.0,0.0,0.0,0.0,0.0,0.0,0.0,0.0,0.0,0.0,0.0,0.0,0.0,0.0,0.0,0.0,0.0,0.0,0.0,0.0,0.0,0.0,0.0,0.0,0.0,0.0,0.0,0.0,0.0,0.0,0.0,0.0,0.0,0.0,0.0,0.0,0.0,0.0,0.0,0.0,0.0,0.0,0.0,0.0,0.0,0.0,0.0,0.0,0.0,0.0,0.0,0.0,0.0,0.0,0.0,0.0,0.0,0.0,0.0,0.0,0.0,0.0,0.0,0.0,0.0,0.0,0.0,0.0,0.0,0.0,0.0,0.0,0.0,0.0,0.0,0.0,0.0,0.0,0.0,0.0,0.0,0.0,0.0,0.0,0.0,0.0,0.0,0.0,0.0,0.0,0.0,0.0,0.0,0.0,0.0,0.0,0.0,0.0,0.0,0.0,0.0,0.0,0.0,0.0,0.0,0.0,0.0,0.0,0.0,0.0,0.0,0.0,0.0,0.0,0.0,0.0,0.0,0.0,0.0,0.0,0.0,0.0,0.0,0.0,0.0,0.0,0.0,0.0,0.0,0.0,0.0,0.0,0.0,0.0,0.0,0.0,0.0,0.0,0.0,0.0,0.0,0.0,0.0,0.0,0.0,0.0,0.0,0.0,0.0,0.0,0.0,0.0,0.0,0.0,0.0,0.0,0.0,0.0,0.0,0.0,0.0,0.0,0.0,0.0,0.0,0.0,0.0,0.0,0.0,0.0,0.0,0.0,0.0,0.0,0.0,0.0,0.0,0.0,0.0,0.0,0.0,0.0,0.0,0.0,0.0,0.0,0.0,0.0,0.0,0.0,0.0,0.0,0.0,0.0,0.0,0.0,0.0,0.0,0.0,0.0,0.0,0.0,0.0,0.0,0.0,0.0,0.0,0.0,0.0,0.0,0.0,0.0,0.0,0.5464,0.0,0.0,0.0,0.0,0.0,0.0,0.0,0.0,0.0,0.0,0.0,0.0,0.0,0.0,0.0,0.0,0.0,0.0,0.0,0.0,0.0,0.0,0.0,0.0,0.0,0.0,0.0,0.0,0.0,0.0,0.0,0.0,0.0,0.0,0.0,0.0,0.0,0.0,0.0,0.0,0.0,0.0,0.0,0.0,0.0,0.0,0.0,0.0,0.0,0.0,0.0,0.0,0.0,0.0,0.0,0.0,0.0,0.0,0.0,0.0,0.0,0.0,0.0,0.0,0.0,0.0,0.0,0.0,0.0,0.0,0.0,0.0,0.0,0.0,0.0,0.0,0.0,0.0,0.0,0.0,0.0,0.0,0.0,0.0,0.0,0.0,0.0,0.0,0.0,0.0,0.0,0.0,0.0,0.0,0.0,0.0,0.0,0.0,0.0,0.0,0.0,0.0,0.0,0.0,0.0,0.0,0.0,0.0,0.0,0.0,0.6151,0.6151,0.6598,0.655,0.5946,0.0,0.0,0.0,0.0,0.0,0.0,0.0,0.0,0.0,0.0,0.0,0.0,0.0,0.0,0.0,0.0,0.0,0.0,0.0,0.0,0.0,0.0,0.0,0.0,0.0,0.0,0.0,0.0,0.0,0.0,0.0,0.0,0.0,0.0,0.0,0.0,0.0,0.0,0.0,0.0,0.0,0.0,0.0,0.0,0.0,0.0,0.0,0.0,0.0,0.0,0.0,0.0,0.0,0.0,0.0,0.0,0.0,0.0,0.0,0.0,0.0,0.0,0.0,0.0,0.0,0.0,0.0,0.0,0.0,0.0,0.0,0.0,0.0,0.0,0.0,0.0,0.0,0.0,0.0,0.0,0.0,0.0,0.0,0.0,0.0,0.0,0.0,0.0,0.0,0.0,0.0,0.0,0.0,0.0,0.0,0.0,0.0,0.0,0.0,0.0,0.0,0.0,0.0,0.0,0.0,0.0,0.0,0.0,0.0,0.0,0.0,0.0,0.7221,0.7106,0.664,0.0,0.0,0.0,0.0,0.0,0.0,0.0,0.0,0.0,0.0,0.0,0.0,0.0,0.0,0.0,0.0,0.0,0.0,0.0,0.0,0.0,0.0,0.0,0.0,0.0,0.0,0.0,0.0,0.0,0.0,0.0,0.0,0.0,0.0,0.0,0.0,0.0,0.0,0.0,0.0,0.0,0.0,0.0,0.0,0.0,0.0,0.0,0.0,0.0,0.0,0.0,0.0,0.0,0.0,0.0,0.0,0.0,0.0,0.0,0.0,0.0,0.0,0.0,0.0,0.0,0.0,0.0,0.0,0.0,0.0,0.0,0.0,0.0,0.0,0.0,0.0,0.0,0.0,0.0,0.0,0.0,0.0,0.0,0.0,0.0,0.0,0.0,0.0,0.0,0.0,0.0,0.0,0.0,0.0,0.0,0.0,0.0,0.0,0.0,0.0,0.0,0.0,0.0,0.0,0.0,0.0,0.0,0.0,0.0,0.0,0.8305,0.799,0.8796,0.0,0.7606,0.0,0.0,0.0,0.0,0.0,0.0,0.0,0.0,0.0,0.0,0.0,0.0,0.0,0.0,0.0,0.0,0.0,0.0,0.0,0.0,0.0,0.0,0.0,0.0,0.0,0.0,0.0,0.0,0.0,0.0,0.0,0.0,0.0,0.0,0.0,0.0,0.0,0.0,0.0,0.0,0.0,0.0,0.0,0.0,0.0,0.0,0.0,0.0,0.0,0.0,0.0,0.0,0.0,0.0,0.0,0.0,0.0,0.0,0.0,0.0,0.0,0.0,0.0,0.0,0.0,0.0,0.0,0.0,0.0,0.0,0.0,0.0,0.0,0.0,0.0,0.0,0.0,0.0,0.0,0.0,0.0,0.0,0.0,0.0,0.0,0.0,0.0,0.0,0.0,0.0,0.0,0.0,0.0,0.0,0.0,0.0,0.0,0.0,0.0,0.0,0.0,0.0,0.0,0.0,0.0,0.0,0.0,0.0,0.0,0.0,0.8808,0.9044,0.8873,0.8692,0.0,0.0,0.0,0.0,0.0,0.0,0.0,0.0,0.0,0.0,0.0,0.0,0.0,0.0,0.0,0.0,0.0,0.0,0.0,0.0,0.0,0.0,0.0,0.0,0.0,0.0,0.0,0.0,0.0,0.0,0.0,0.0,0.0,0.0,0.0,0.0,0.0,0.0,0.0,0.0,0.0,0.0,0.0,0.0,0.0,0.0,0.0,0.0,0.0,0.0,0.0,0.0,0.0,0.0,0.0,0.0,0.0,0.0,0.0,0.0,0.0,0.0,0.0,0.0,0.0,0.0,0.0,0.0,0.0,0.0,0.0,0.0,0.0,0.0,0.0,0.0,0.0,0.0,0.0,0.0,0.0,0.0,0.0,0.0,0.0,0.0,0.0,0.0,0.0,0.0,0.0,0.0,0.0,0.0,0.0,0.0,0.0,0.0,0.0,0.0,0.0,0.0,0.0,0.0,0.0,0.0,0.0,0.0,0.0,0.0,0.9065,0.0,1.0182,0.939,0.8938,0.9032,0.0,0.0,0.0,0.0,0.0,0.0,0.0,0.0,0.0,0.0,0.0,0.0,0.0,0.0,0.0,0.0,0.0,0.0,0.0,0.0,0.0,0.0,0.0,0.0,0.0,0.0,0.0,0.0,0.0,0.0,0.0,0.0,0.0,0.0,0.0,0.0,0.0,0.0,0.0,0.0,0.0,0.0,0.0,0.0,0.0,0.0,0.0,0.0,0.0,0.0,0.0,0.0,0.0,0.0,0.0,0.0,0.0,0.0,0.0,0.0,0.0,0.0,0.0,0.0,0.0,0.0,0.0,0.0,0.0,0.0,0.0,0.0,0.0,0.0,0.0,0.0,0.0,0.0,0.0,0.0,0.0,0.0,0.0,0.0,0.0,0.0,0.0,0.0,0.0,0.0,0.0,0.0,0.0,0.0,0.0,0.0,0.0,0.0,0.0,0.0,0.0,0.0,0.0,0.0,0.0,0.0,0.0,0.0,0.0,1.0349,1.0964,1.1634,1.0853,1.0012,0.0,0.0,0.0,0.0,0.0,0.0,0.0,0.0,0.0,0.0,0.0,0.0,0.0,0.0,0.0,0.0,0.0,0.0,0.0,0.0,0.0,0.0,0.0,0.0,0.0,0.0,0.0,0.0,0.0,0.0,0.0,0.0,0.0,0.0,0.0,0.0,0.0,0.0,0.0,0.0,0.0,0.0,0.0,0.0,0.0,0.0,0.0,0.0,0.0,0.0,0.0,0.0,0.0,0.0,0.0,0.0,0.0,0.0,0.0,0.0,0.0,0.0,0.0,0.0,0.0,0.0,0.0,0.0,0.0,0.0,0.0,0.0,0.0,0.0,0.0,0.0,0.0,0.0,0.0,0.0,0.0,0.0,0.0,0.0,0.0,0.0,0.0,0.0,0.0,0.0,0.0,0.0,0.0,0.0,0.0,0.0,0.0,0.0,0.0,0.0,0.0,0.0,0.0,0.0,0.0,0.0,0.0,0.0,0.0,0.973,1.0737,1.1509,1.1946,1.0815,0.997,0.0,0.0,0.0,0.0,0.0,0.0,0.0,0.0,0.0,0.0,0.0,0.0,0.0,0.0,0.0,0.0,0.0,0.0,0.0,0.0,0.0,0.0,0.0,0.0,0.0,0.0,0.0,0.0,0.0,0.0,0.0,0.0,0.0,0.0,0.0,0.0,0.0,0.0,0.0,0.0,0.0,0.0,0.0,0.0,0.0,0.0,0.0,0.0,0.0,0.0,0.0,0.0,0.0,0.0,0.0,0.0,0.0,0.0,0.0,0.0,0.0,0.0,0.0,0.0,0.0,0.0,0.0,0.0,0.0,0.0,0.0,0.0,0.0,0.0,0.0,0.0,0.0,0.0,0.0,0.0,0.0,0.0,0.0,0.0,0.0,0.0,0.0,0.0,0.0,0.0,0.0,0.0,0.0,0.0,0.0,0.0,0.0,0.0,0.0,0.0,0.0,0.0,0.0,0.0,0.0,0.0,0.0,0.0,0.0,0.9981,0.0,1.1593,0.0,1.0634,0.9869,0.0,0.0,0.0,0.0,0.0,0.0,0.0,0.0,0.0,0.0,0.0,0.0,0.0,0.0,0.0,0.0,0.0,0.0,0.0,0.0,0.0,0.0,0.0,0.0,0.0,0.0,0.0,0.0,0.0,0.0,0.0,0.0,0.0,0.0,0.0,0.0,0.0,0.0,0.0,0.0,0.0,0.0,0.0,0.0,0.0,0.0,0.0,0.0,0.0,0.0,0.0,0.0,0.0,0.0,0.0,0.0,0.0,0.0,0.0,0.0,0.0,0.0,0.0,0.0,0.0,0.0,0.0,0.0,0.0,0.0,0.0,0.0,0.0,0.0,0.0,0.0,0.0,0.0,0.0,0.0,0.0,0.0,0.0,0.0,0.0,0.0,0.0,0.0,0.0,0.0,0.0,0.0,0.0,0.0,0.0,0.0,0.0,0.0,0.0,0.0,0.0,0.0,0.0,0.0,0.0,0.0,0.0,0.0,0.9666,1.0755,1.1175,1.1246,1.0824,1.0435,0.9855,0.0,0.0,0.0,0.0,0.0,0.0,0.0,0.0,0.0,0.0,0.0,0.0,0.0,0.0,0.0,0.0,0.0,0.0,0.0,0.0,0.0,0.0,0.0,0.0,0.0,0.0,0.0,0.0,0.0,0.0,0.0,0.0,0.0,0.0,0.0,0.0,0.0,0.0,0.0,0.0,0.0,0.0,0.0,0.0,0.0,0.0,0.0,0.0,0.0,0.0,0.0,0.0,0.0,0.0,0.0,0.0,0.0,0.0,0.0,0.0,0.0,0.0,0.0,0.0,0.0,0.0,0.0,0.0,0.0,0.0,0.0,0.0,0.0,0.0,0.0,0.0,0.0,0.0,0.0,0.0,0.0,0.0,0.0,0.0,0.0,0.0,0.0,0.0,0.0,0.0,0.0,0.0,0.0,0.0,0.0,0.0,0.0,0.0,0.0,0.0,0.0,0.0,0.0,0.0,0.0,0.0,0.0,0.0,0.0,1.1059,1.1284,1.1338,1.1214,1.0424,0.9964,0.0,0.0,0.0,0.0,0.0,0.0,0.0,0.0,0.0,0.0,0.0,0.0,0.0,0.0,0.0,0.0,0.0,0.0,0.0,0.0,0.0,0.0,0.0,0.0,0.0,0.0,0.0,0.0,0.0,0.0,0.0,0.0,0.0,0.0,0.0,0.0,0.0,0.0,0.0,0.0,0.0,0.0,0.0,0.0,0.0,0.0,0.0,0.0,0.0,0.0,0.0,0.0,0.0,0.0,0.0,0.0,0.0,0.0,0.0,0.0,0.0,0.0,0.0,0.0,0.0,0.0,0.0,0.0,0.0,0.0,0.0,0.0,0.0,0.0,0.0,0.0,0.0,0.0,0.0,0.0,0.0,0.0,0.0,0.0,0.0,0.0,0.0,0.0,0.0,0.0,0.0,0.0,0.0,0.0,0.0,0.0,0.0,0.0,0.0,0.0,0.0,0.0,0.0,0.0,0.0,0.0,0.0,0.0,0.0,1.1947,1.1695,1.1379,1.094,1.068,1.0493,1.0308,0.0,0.0,0.0,0.0,0.0,0.0,0.0,0.0,0.0,0.0,0.0,0.0,0.0,0.0,0.0,0.0,0.0,0.0,0.0,0.0,0.0,0.0,0.0,0.0,0.0,0.0,0.0,0.0,0.0,0.0,0.0,0.0,0.0,0.0,0.0,0.0,0.0,0.0,0.0,0.0,0.0,0.0,0.0,0.0,0.0,0.0,0.0,0.0,0.0,0.0,0.0,0.0,0.0,0.0,0.0,0.0,0.0,0.0,0.0,0.0,0.0,0.0,0.0,0.0,0.0,0.0,0.0,0.0,0.0,0.0,0.0,0.0,0.0,0.0,0.0,0.0,0.0,0.0,0.0,0.0,0.0,0.0,0.0,0.0,0.0,0.0,0.0,0.0,0.0,0.0,0.0,0.0,0.0,0.0,0.0,0.0,0.0,0.0,0.0,0.0,0.0,0.0,0.0,0.0,0.0,0.0,0.0,0.0,1.3195,1.2457,1.1552,1.0458,1.126,1.1388,0.0,0.0,0.0,0.0,0.0,0.0,0.0,0.0,0.0,0.0,0.0,0.0,0.0,0.0,0.0,0.0,0.0,0.0,0.0,0.0,0.0,0.0,0.0,0.0,0.0,0.0,0.0,0.0,0.0,0.0,0.0,0.0,0.0,0.0,0.0,0.0,0.0,0.0,0.0,0.0,0.0,0.0,0.0,0.0,0.0,0.0,0.0,0.0,0.0,0.0,0.0,0.0,0.0,0.0,0.0,0.0,0.0,0.0,0.0,0.0,0.0,0.0,0.0,0.0,0.0,0.0,0.0,0.0,0.0,0.0,0.0,0.0,0.0,0.0,0.0,0.0,0.0,0.0,0.0,0.0,0.0,0.0,0.0,0.0,0.0,0.0,0.0,0.0,0.0,0.0,0.0,0.0,0.0,0.0,0.0,0.0,0.0,0.0,0.0,0.0,0.0,0.0,0.0,0.0,0.0,0.0,0.0,0.0,0.0,1.3232,1.3778,1.3839,1.3283,1.2586,1.2298,0.0,0.0,0.0,0.0,0.0,0.0,0.0,0.0,0.0,0.0,0.0,0.0,0.0,0.0,0.0,0.0,0.0,0.0,0.0,0.0,0.0,0.0,0.0,0.0,0.0,0.0,0.0,0.0,0.0,0.0,0.0,0.0,0.0,0.0,0.0,0.0,0.0,0.0,0.0,0.0,0.0,0.0,0.0,0.0,0.0,0.0,0.0,0.0,0.0,0.0,0.0,0.0,0.0,0.0,0.0,0.0,0.0,0.0,0.0,0.0,0.0,0.0,0.0,0.0,0.0,0.0,0.0,0.0,0.0,0.0,0.0,0.0,0.0,0.0,0.0,0.0,0.0,0.0,0.0,0.0,0.0,0.0,0.0,0.0,0.0,0.0,0.0,0.0,0.0,0.0,0.0,0.0,0.0,0.0,0.0,0.0,0.0,0.0,0.0,0.0,0.0,0.0,0.0,0.0,0.0,0.0,0.0,0.0,1.4129,1.4227,1.5105,1.5481,1.5303,1.4069,1.3378,0.0,0.0,0.0,0.0,0.0,0.0,0.0,0.0,0.0,0.0,0.0,0.0,0.0,0.0,0.0,0.0,0.0,0.0,0.0,0.0,0.0,0.0,0.0,0.0,0.0,0.0,0.0,0.0,0.0,0.0,0.0,0.0,0.0,0.0,0.0,0.0,0.0,0.0,0.0,0.0,0.0,0.0,0.0,0.0,0.0,0.0,0.0,0.0,0.0,0.0,0.0,0.0,0.0,0.0,0.0,0.0,0.0,0.0,0.0,0.0,0.0,0.0,0.0,0.0,0.0,0.0,0.0,0.0,0.0,0.0,0.0,0.0,0.0,0.0,0.0,0.0,0.0,0.0,0.0,0.0,0.0,0.0,0.0,0.0,0.0,0.0,0.0,0.0,0.0,0.0,0.0,0.0,0.0,0.0,0.0,0.0,0.0,0.0,0.0,0.0,0.0,0.0,0.0,0.0,0.0,0.0,0.0,0.0,1.5069,1.5696,1.6265,1.6563,1.6475,1.5444,1.4501,0.0,0.0,0.0,0.0,0.0,0.0,0.0,0.0,0.0,0.0,0.0,0.0,0.0,0.0,0.0,0.0,0.0,0.0,0.0,0.0,0.0,0.0,0.0,0.0,0.0,0.0,0.0,0.0,0.0,0.0,0.0,0.0,0.0,0.0,0.0,0.0,0.0,0.0,0.0,0.0,0.0,0.0,0.0,0.0,0.0,0.0,0.0,0.0,0.0,0.0,0.0,0.0,0.0,0.0,0.0,0.0,0.0,0.0,0.0,0.0,0.0,0.0,0.0,0.0,0.0,0.0,0.0,0.0,0.0,0.0,0.0,0.0,0.0,0.0,0.0,0.0,0.0,0.0,0.0,0.0,0.0,0.0,0.0,0.0,0.0,0.0,0.0,0.0,0.0,0.0,0.0,0.0,0.0,0.0,0.0,0.0,0.0,0.0,0.0,0.0,0.0,0.0,0.0,0.0,0.0,0.0,0.0,0.0,1.6126,1.6405,1.6929,1.703,1.6667,1.5869,1.5191,0.0,0.0,0.0,0.0,0.0,0.0,0.0,0.0,0.0,0.0,0.0,0.0,0.0,0.0,0.0,0.0,0.0,0.0,0.0,0.0,0.0,0.0,0.0,0.0,0.0,0.0,0.0,0.0,0.0,0.0,0.0,0.0,0.0,0.0,0.0,0.0,0.0,0.0,0.0,0.0,0.0,0.0,0.0,0.0,0.0,0.0,0.0,0.0,1.5001,0.0,0.0,0.0,0.0,0.0,0.0,0.0,0.0,0.0,0.0,0.0,0.0,0.0,0.0,0.0,0.0,0.0,0.0,0.0,0.0,0.0,0.0,0.0,0.0,0.0,0.0,0.0,0.0,0.0,0.0,0.0,0.0,0.0,0.0,0.0,0.0,0.0,0.0,0.0,0.0,0.0,0.0,0.0,0.0,0.0,0.0,0.0,0.0,0.0,0.0,0.0,0.0,0.0,0.0,0.0,0.0,0.0,0.0,0.0,1.6857,1.7046,1.7523,1.7561,1.7078,1.6638,1.5924,0.0,0.0,0.0,0.0,0.0,0.0,0.0,0.0,0.0,0.0,0.0,0.0,0.0,0.0,0.0,0.0,0.0,0.0,0.0,0.0,0.0,0.0,0.0,0.0,0.0,0.0,0.0,0.0,0.0,0.0,0.0,0.0,0.0,0.0,0.0,0.0,0.0,0.0,0.0,0.0,0.0,0.0,0.0,0.0,0.0,0.0,0.0,0.0,0.0,0.0,0.0,0.0,0.0,0.0,0.0,0.0,0.0,0.0,0.0,0.0,0.0,0.0,0.0,0.0,0.0,0.0,0.0,0.0,0.0,0.0,0.0,0.0,0.0,0.0,0.0,0.0,0.0,0.0,0.0,0.0,0.0,0.0,0.0,0.0,0.0,0.0,0.0,0.0,0.0,0.0,0.0,0.0,0.0,0.0,0.0,0.0,0.0,0.0,0.0,0.0,0.0,0.0,0.0,0.0,0.0,0.0,0.0,1.6823,1.7443,1.7667,1.8113,1.8046,1.7453,1.7366,1.659,1.5069,0.0,0.0,0.0,0.0,0.0,0.0,0.0,0.0,0.0,0.0,0.0,0.0,0.0,0.0,0.0,0.0,0.0,0.0,0.0,0.0,0.0,0.0,0.0,0.0,0.0,0.0,0.0,0.0,0.0,0.0,0.0,0.0,0.0,0.0,0.0,0.0,0.0,0.0,1.4551,1.6301,0.0,0.0,0.0,0.0,0.0,0.0,0.0,0.0,1.7491,0.0,0.0,0.0,0.0,0.0,0.0,0.0,0.0,0.0,0.0,0.0,0.0,0.0,0.0,0.0,0.0,0.0,0.0,0.0,0.0,0.0,0.0,0.0,0.0,0.0,0.0,0.0,0.0,0.0,0.0,0.0,0.0,0.0,0.0,0.0,0.0,0.0,0.0,0.0,0.0,0.0,0.0,0.0,0.0,0.0,0.0,0.0,0.0,0.0,0.0,0.0,0.0,0.0,0.0,0.0,0.0,1.7716,1.7894,1.8074,1.8331,1.8777,1.8412,1.7159,1.7331,1.6851,1.5558,0.0,0.0,0.0,0.0,0.0,0.0,0.0,0.0,0.0,0.0,0.0,0.0,0.0,0.0,0.0,0.0,0.0,0.0,0.0,0.0,0.0,0.0,0.0,0.0,0.0,0.0,0.0,0.0,0.0,0.0,0.0,0.0,0.0,0.0,0.0,0.0,0.0,0.0,0.0,1.7864,1.8401,0.0,0.0,0.0,0.0,0.0,0.0,0.0,0.0,1.7237,0.0,0.0,0.0,0.0,0.0,0.0,0.0,0.0,0.0,0.0,0.0,0.0,0.0,0.0,0.0,0.0,0.0,0.0,0.0,0.0,0.0,0.0,0.0,0.0,0.0,0.0,0.0,0.0,0.0,0.0,0.0,0.0,0.0,0.0,0.0,0.0,0.0,0.0,0.0,0.0,0.0,0.0,0.0,0.0,0.0,0.0,0.0,0.0,0.0,0.0,0.0,0.0,0.0,0.0,0.0,1.7498,1.8554,1.899,1.8829,1.936,1.9014,1.7821,1.7732,1.7254,0.0,0.0,0.0,0.0,0.0,0.0,0.0,0.0,0.0,0.0,0.0,0.0,0.0,0.0,0.0,0.0,0.0,0.0,0.0,0.0,0.0,0.0,0.0,0.0,0.0,0.0,0.0,0.0,0.0,0.0,0.0,0.0,0.0,0.0,0.0,0.0,0.0,0.0,0.0,0.0,1.8833,1.9214,1.9481,0.0,0.0,0.0,0.0,0.0,0.0,1.8821,1.8107,0.0,0.0,0.0,0.0,0.0,0.0,0.0,0.0,0.0,0.0,0.0,0.0,0.0,0.0,0.0,0.0,0.0,0.0,0.0,0.0,0.0,0.0,0.0,0.0,0.0,0.0,0.0,0.0,0.0,0.0,0.0,0.0,0.0,0.0,0.0,0.0,0.0,0.0,0.0,0.0,0.0,0.0,0.0,0.0,0.0,0.0,0.0,0.0,0.0,0.0,0.0,0.0,0.0,0.0,0.0,1.712,1.899,1.974,1.9306,1.9877,1.9649,1.8542,1.8251,1.7745,0.0,0.0,0.0,0.0,0.0,0.0,0.0,0.0,0.0,0.0,0.0,0.0,0.0,0.0,0.0,0.0,0.0,0.0,0.0,0.0,0.0,0.0,0.0,0.0,0.0,0.0,0.0,0.0,0.0,0.0,0.0,0.0,0.0,0.0,0.0,0.0,0.0,0.0,0.0,0.0,0.0,2.0146,2.0512,1.987,0.0,0.0,0.0,0.0,2.1575,2.0371,0.0,0.0,0.0,0.0,0.0,0.0,0.0,0.0,0.0,0.0,0.0,0.0,0.0,0.0,0.0,0.0,0.0,0.0,0.0,0.0,0.0,0.0,0.0,0.0,0.0,0.0,0.0,0.0,0.0,0.0,0.0,0.0,0.0,0.0,0.0,0.0,0.0,0.0,0.0,0.0,0.0,0.0,0.0,0.0,0.0,0.0,0.0,0.0,0.0,0.0,0.0,0.0,0.0,0.0,0.0,0.0,1.7686,1.9138,1.9874,1.9847,2.0451,2.0075,1.8576,1.8807,1.8328,0.0,0.0,0.0,0.0,0.0,0.0,0.0,0.0,0.0,0.0,0.0,0.0,0.0,0.0,0.0,0.0,0.0,0.0,0.0,0.0,0.0,0.0,0.0,0.0,0.0,0.0,0.0,0.0,0.0,0.0,0.0,0.0,0.0,0.0,0.0,0.0,0.0,0.0,0.0,0.0,0.0,2.1429,2.1817,2.138,2.1075,0.0,0.0,2.2173,2.1796,2.2014,0.0,0.0,0.0,0.0,0.0,0.0,0.0,0.0,0.0,0.0,0.0,0.0,0.0,0.0,0.0,0.0,0.0,0.0,0.0,0.0,0.0,0.0,0.0,0.0,0.0,0.0,0.0,0.0,0.0,0.0,0.0,0.0,0.0,0.0,0.0,0.0,0.0,0.0,0.0,0.0,0.0,0.0,0.0,0.0,0.0,0.0,0.0,0.0,0.0,0.0,0.0,0.0,0.0,0.0,0.0,1.7194,1.8222,2.0025,2.0962,2.0909,2.0911,2.0425,1.9439,1.9049,1.8039,0.0,0.0,0.0,0.0,0.0,0.0,0.0,0.0,0.0,0.0,0.0,0.0,0.0,0.0,0.0,0.0,0.0,0.0,0.0,0.0,0.0,0.0,0.0,0.0,0.0,0.0,0.0,0.0,0.0,0.0,0.0,0.0,0.0,0.0,0.0,0.0,0.0,0.0,0.0,0.0,0.0,0.0,2.2813,2.2599,0.0,0.0,0.0,2.3441,2.3645,0.0,0.0,0.0,0.0,0.0,0.0,0.0,0.0,0.0,0.0,0.0,0.0,0.0,0.0,0.0,0.0,0.0,0.0,0.0,0.0,0.0,0.0,0.0,0.0,0.0,0.0,0.0,0.0,0.0,0.0,0.0,0.0,0.0,0.0,0.0,0.0,0.0,0.0,0.0,0.0,0.0,0.0,0.0,0.0,0.0,0.0,0.0,0.0,0.0,0.0,0.0,0.0,0.0,0.0,0.0,0.0,0.0,1.8774,2.0884,2.1868,2.1664,2.1291,2.0746,2.002,1.9265,0.0,0.0,0.0,0.0,0.0,0.0,0.0,0.0,0.0,0.0,0.0,0.0,0.0,0.0,0.0,0.0,0.0,0.0,0.0,0.0,0.0,0.0,0.0,0.0,0.0,0.0,0.0,1.1561,0.0,0.0,0.0,0.0,0.0,0.0,0.0,0.0,0.0,0.0,0.0,0.0,0.0,0.0,2.3332,2.4022,2.401,2.4111,0.0,0.0,2.448,2.5029,2.4479,2.3443,0.0,0.0,0.0,0.0,0.0,0.0,0.0,0.0,0.0,0.0,0.0,0.0,0.0,0.0,0.0,0.0,0.0,0.0,0.0,0.0,0.0,0.0,0.0,0.0,0.0,0.0,0.0,0.0,0.0,0.0,0.0,0.0,0.0,0.0,0.0,0.0,0.0,0.0,0.0,0.0,0.0,0.0,0.0,0.0,0.0,0.0,0.0,0.0,0.0,0.0,0.0,0.0,0.0,0.0,0.0,1.9501,2.1455,2.2177,2.1558,2.161,2.1028,1.9776,1.9642,1.8717,0.0,0.0,0.0,0.0,0.0,0.0,0.0,0.0,0.0,0.0,0.0,0.0,0.0,0.0,0.0,0.0,0.0,0.0,0.0,0.0,0.0,0.0,0.0,0.0,0.0,0.0,0.0,0.0,0.0,0.0,0.0,0.0,0.0,0.0,0.0,0.0,0.0,0.0,0.0,0.0,0.0,2.4741,2.5696,2.5817,2.5799,0.0,0.0,2.5694,2.5023,2.4975,2.4264,2.2134,0.0,0.0,0.0,0.0,0.0,0.0,0.0,0.0,0.0,0.0,0.0,0.0,0.0,0.0,0.0,0.0,0.0,0.0,0.0,0.0,0.0,0.0,0.0,0.0,0.0,0.0,0.0,0.0,0.0,0.0,0.0,0.0,0.0,0.0,0.0,0.0,0.0,0.0,0.0,0.0,0.0,0.0,0.0,0.0,0.0,0.0,0.0,0.0,0.0,0.0,0.0,0.0,0.0,1.8415,1.9723,2.1948,2.314,2.3208,2.2423,2.1778,2.132,2.0421,1.8884,0.0,0.0,0.0,0.0,0.0,0.0,0.0,0.0,0.0,0.0,0.0,0.0,0.0,0.0,0.0,0.0,0.0,0.0,0.0,0.0,0.0,0.0,0.0,0.0,0.0,0.0,0.0,0.0,1.3098,1.3454,1.3544,0.0,0.0,0.0,0.0,0.0,0.0,0.0,0.0,0.0,0.0,2.6233,2.6618,2.6778,0.0,0.0,2.7264,2.7135,2.6423,2.6393,2.5637,2.3251,2.296,0.0,0.0,0.0,0.0,0.0,0.0,0.0,0.0,0.0,0.0,0.0,0.0,0.0,0.0,0.0,0.0,0.0,0.0,0.0,0.0,0.0,0.0,0.0,0.0,0.0,0.0,0.0,0.0,0.0,0.0,0.0,0.0,0.0,0.0,0.0,0.0,0.0,0.0,0.0,0.0,0.0,0.0,0.0,0.0,0.0,0.0,0.0,0.0,0.0,0.0,0.0,0.0,1.8947,2.0098,2.242,2.3797,2.4177,2.2991,2.2313,2.212,2.0824,1.916,0.0,0.0,0.0,0.0,0.0,0.0,0.0,0.0,0.0,0.0,0.0,0.0,0.0,0.0,0.0,0.0,0.0,0.0,0.0,0.0,0.0,0.0,0.0,0.0,0.0,0.0,0.0,0.0,1.3977,1.4131,1.4051,0.0,0.0,0.0,0.0,0.0,0.0,0.0,0.0,0.0,0.0,2.7507,2.7713,2.7954,2.8138,2.8346,2.8156,2.7861,2.7399,2.738,2.6671,2.4372,0.0,0.0,0.0,0.0,0.0,0.0,0.0,0.0,0.0,0.0,0.0,0.0,0.0,0.0,0.0,0.0,0.0,0.0,0.0,0.0,0.0,0.0,0.0,0.0,0.0,0.0,0.0,0.0,0.0,0.0,0.8119,0.0,0.0,0.0,0.0,0.0,0.0,0.0,0.0,0.0,0.0,0.0,0.0,0.0,0.0,0.0,0.0,0.0,0.0,0.0,0.0,0.0,0.0,0.0,2.0793,2.2862,2.3928,2.3939,2.3162,2.2483,2.1853,2.0786,1.9594,1.8269,0.0,0.0,0.0,0.0,0.0,0.0,0.0,0.0,0.0,0.0,0.0,0.0,0.0,0.0,0.0,0.0,0.0,0.0,0.0,0.0,0.0,0.0,0.0,0.0,0.0,0.0,1.4248,1.3715,1.3489,0.0,0.0,0.0,0.0,0.0,0.0,0.0,0.0,0.0,0.0,2.7413,2.846,2.9153,2.9467,2.9651,2.9668,2.8537,2.7663,2.7663,2.7732,2.7184,0.0,0.0,0.0,0.0,0.0,0.0,0.0,0.0,0.0,0.0,0.0,0.0,0.0,0.0,0.0,0.0,0.0,0.0,0.0,0.0,0.0,0.0,0.0,0.0,0.0,0.0,0.0,1.0576,0.9861,0.0,0.0,0.0,0.0,0.0,0.0,0.0,0.0,0.0,0.0,0.0,1.3455,1.4271,0.0,0.0,0.0,0.0,0.0,0.0,0.0,0.0,0.0,0.0,0.0,0.0,2.0044,2.1791,2.3639,2.4697,2.4925,2.3799,2.3093,2.2922,2.1614,2.0035,1.816,0.0,0.0,0.0,0.0,0.0,0.0,0.0,0.0,0.0,0.0,0.0,0.0,0.0,0.0,0.0,0.0,0.0,0.0,0.0,0.0,0.0,0.0,0.0,0.0,0.0,1.4202,0.0,0.0,0.0,0.0,0.0,0.0,0.0,0.0,0.0,0.0,0.0,2.6267,2.7441,2.8406,2.9334,3.0236,3.048,3.0615,0.0,0.0,0.0,0.0,0.0,0.0,0.0,0.0,0.0,0.0,0.0,0.0,0.0,0.0,2.5581,2.1914,2.1139,2.1255,2.1891,0.0,0.0,0.0,0.0,0.0,0.0,0.0,0.0,0.0,0.0,0.0,0.0,0.0,0.0,1.1318,0.0,1.073,0.0,0.0,0.0,0.0,0.0,0.0,0.0,0.0,1.3759,1.4275,1.4325,1.5091,1.5277,0.0,1.5439,1.5097,0.0,0.0,0.0,0.0,0.0,0.0,0.0,0.0,2.1213,2.28,2.4308,2.5291,2.5672,2.4596,2.3895,2.3669,2.2086,2.0369,1.853,1.769,1.6649,0.0,0.0,0.0,0.0,0.0,0.0,0.0,0.0,0.0,0.0,0.0,0.0,0.0,0.0,0.0,0.0,0.0,0.0,0.0,0.0,0.0,0.0,0.0,1.4857,0.0,0.0,0.0,0.0,0.0,0.0,0.0,0.0,0.0,2.5296,2.6423,2.777,2.9373,2.9598,3.0065,3.1286,0.0,0.0,0.0,0.0,0.0,0.0,0.0,2.9989,3.0727,3.0223,2.969,2.9615,2.9486,2.9544,3.0107,0.0,0.0,2.513,2.4543,2.4799,2.5417,2.6033,2.6808,2.7931,2.8388,2.8779,0.0,0.0,0.0,0.0,0.0,0.0,0.0,0.0,1.1003,1.1283,0.0,1.1603,0.0,0.0,0.0,0.0,0.0,0.0,0.0,0.0,1.5258,1.5444,1.4344,1.5202,1.5609,1.568,1.6955,1.7401,1.6936,1.5445,0.0,0.0,0.0,0.0,0.0,0.0,2.2701,2.3818,2.4893,2.5682,2.6151,2.5474,2.4729,2.3934,2.2134,2.0623,1.9528,1.9272,1.8639,1.7403,1.6521,0.0,0.0,0.0,0.0,0.0,0.0,0.0,0.0,0.0,0.0,0.0,0.0,0.0,0.0,0.0,0.0,0.0,0.0,0.0,0.0,1.5602,0.0,0.0,0.0,0.0,0.0,0.0,0.0,0.0,0.0,0.0,2.7675,2.8104,2.9354,3.1844,0.0,0.0,0.0,0.0,3.2104,3.3005,3.2487,3.1999,3.1999,3.2487,3.2676,3.1975,0.0,0.0,3.0868,3.0484,3.0457,3.0407,3.0535,3.0375,3.0337,3.0047,3.0098,3.0327,3.037,3.0707,3.086,3.1398,3.1985,1.278,0.0,0.0,0.0,0.0,1.2305,1.2979,1.4185,1.3177,1.285,1.3021,1.2705,0.0,0.0,0.0,0.0,0.0,0.0,1.5023,1.5604,1.6015,1.6235,1.6406,1.7051,1.7397,1.7517,1.815,1.8367,1.8151,1.7891,1.7954,1.8267,0.0,0.0,0.0,0.0,2.3634,2.4644,2.5531,2.6043,2.6185,2.5491,2.4497,2.3238,2.2346,2.1439,2.0494,2.0101,1.9564,1.8748,1.8022,0.0,0.0,0.0,0.0,0.0,0.0,0.0,0.0,0.0,0.0,0.0,0.0,0.0,0.0,0.0,0.0,0.0,0.0,0.0,1.5677,1.657,1.7321,0.0,0.0,0.0,0.0,0.0,0.0,0.0,0.0,0.0,3.1004,3.1206,3.15,0.0,0.0,3.2442,3.3673,3.3747,3.3779,3.3977,0.0,0.0,0.0,3.294,3.2804,3.4307,3.4703,3.4652,3.4129,3.3999,3.3979,3.3947,3.4039,3.4038,3.391,3.2025,3.0878,3.1304,3.1538,3.2007,3.3189,3.3698,3.4029,1.4305,1.2987,1.3318,1.3607,1.3811,1.3635,1.4294,1.5465,1.4554,1.4418,1.4857,1.4532,1.4405,1.445,1.469,0.0,0.0,0.0,1.6482,1.7076,1.7186,1.7341,1.7639,1.815,1.8536,1.8835,1.9485,1.9748,1.9646,2.0748,2.1248,2.1175,0.0,0.0,2.272,2.3636,2.4507,2.5352,2.5902,2.6185,2.6169,2.5578,2.4797,2.3818,2.3325,2.2622,2.1649,2.1157,2.0657,2.0098,1.9185,1.7973,0.0,0.0,0.0,0.0,0.0,0.0,0.0,0.0,0.0,0.0,0.0,1.3171,0.0,0.0,0.0,0.0,1.4948,1.6617,1.8324,1.8822,0.0,0.0,0.0,0.0,0.0,0.0,0.0,2.9402,3.0319,3.1333,3.3084,3.3471,3.3612,3.3782,3.3298,3.3401,3.4738,0.0,3.4614,3.494,3.5032,3.5042,3.5029,3.4202,3.4035,3.5415,3.565,3.5612,3.5521,3.5528,3.5528,3.5546,3.5817,3.6079,3.6093,3.469,3.3474,3.3433,3.3443,3.3849,3.4932,3.5125,3.5331,1.5685,1.5467,1.5576,1.5492,1.5195,1.504,1.5425,1.6064,1.5348,1.5854,1.7234,1.6587,1.6748,1.749,1.7773,0.0,1.7977,1.8398,1.8467,1.8272,1.8725,1.8723,1.8332,1.8809,1.9295,1.9819,2.0904,2.1372,2.1383,2.3477,2.4391,2.4069,2.2727,2.2829,2.4321,2.4925,2.5447,2.5961,2.616,2.6234,2.6203,2.5782,2.5397,2.5094,2.4678,2.3911,2.2735,2.2245,2.1808,2.1294,2.0114,1.9075,1.8192,0.0,0.0,0.0,0.0,0.0,0.0,0.0,0.0,0.0,0.0,0.0,0.0,0.0,0.0,0.0,1.7435,0.0,2.2077,2.177,0.0,0.0,0.0,2.4078,2.6161,2.7672,2.9379,3.1534,0.0,0.0,3.4165,0.0,3.5512,3.5527,3.4249,3.3896,3.5516,3.5115,3.4941,3.5733,3.5897,3.5902,3.5814,3.5736,3.5657,3.565,3.5678,3.5664,3.5578,3.568,3.5684,3.5701,3.6337,3.6969,3.7022,3.7504,3.7825,3.6134,3.5937,3.599,3.5875,3.6071,3.6228,1.7777,1.772,1.7753,1.7157,1.6157,1.5927,1.645,1.7323,1.6297,1.6362,1.7244,1.6749,1.7161,1.8259,1.8567,1.924,2.015,2.0151,2.0315,2.0559,2.0366,2.0172,2.0109,2.0615,2.1037,2.1474,2.2115,2.2307,2.2129,2.3507,2.4211,2.4224,2.4707,2.5309,2.596,2.653,2.6687,2.6435,2.6624,2.655,2.6202,2.6074,2.5743,2.511,2.4996,2.4149,2.2541,2.2377,2.1972,2.1263,2.1006,2.0311,1.9,1.7727,0.0,0.0,0.0,0.0,0.0,0.0,0.0,0.0,0.0,1.6939,1.4314,0.0,1.844,0.0,1.9926,2.1695,2.2389,2.2934,0.0,0.0,2.6394,2.7426,3.0348,3.0715,3.139,3.308,3.3748,3.4339,3.5059,3.5466,3.5674,3.5706,3.5444,3.5407,3.5855,3.5777,3.5699,3.5939,3.598,3.5985,3.5994,3.5979,3.5946,3.5839,3.5836,3.5811,3.5674,3.6217,3.6666,3.6686,3.7411,3.7969,3.8042,3.8222,3.8291,3.7912,3.7851,3.7458,3.6286,3.699,3.7672,1.8674,1.8774,1.8774,1.8347,1.7613,1.7331,1.7599,1.8236,1.7504,1.7536,1.8117,1.8124,1.8707,1.9649,1.9845,2.0423,2.1183,2.1128,2.1302,2.1693,2.1492,2.1362,2.1379,2.1848,2.2198,2.2361,2.3044,2.3322,2.3337,2.4718,2.5507,2.5658,2.6811,2.748,2.7625,2.7497,2.7322,2.7165,2.6994,2.6765,2.6519,2.6602,2.6219,2.543,2.5395,2.4577,2.2811,2.246,2.2102,2.1619,2.1538,2.1087,2.0173,1.9089,1.794,0.0,0.0,0.0,0.0,0.0,0.0,0.0,0.0,0.0,0.0,0.0,2.0752,0.0,2.2553,2.4096,2.533,2.597,2.7229,2.9408,2.9504,3.0496,3.3166,3.292,3.3221,3.4894,3.4969,3.5024,3.549,3.566,3.5764,3.5833,3.5904,3.5953,3.5995,3.6014,3.6012,3.6012,3.6012,3.6014,3.6003,3.6008,3.5984,3.5906,3.5927,3.5897,3.5749,3.6149,3.6621,3.6985,3.7743,3.852,3.8904,3.9333,3.9513,3.9245,3.9446,3.9019,3.7539,3.7551,3.7798,1.9198,1.9363,1.9363,1.9353,1.9341,1.8998,1.8841,1.8841,1.864,1.8808,1.9274,1.9879,2.0581,2.1282,2.1313,2.1534,2.1896,2.1928,2.2082,2.2354,2.2421,2.2443,2.2446,2.2831,2.3031,2.3165,2.392,2.4442,2.473,2.6356,2.7265,2.7495,2.8498,2.9075,2.9097,2.8118,2.7719,2.7936,2.7417,2.7085,2.7005,2.7182,2.6813,2.5872,2.5732,2.4938,2.3358,2.2736,2.2377,2.2255,2.1921,2.1697,2.153,2.035,1.9483,0.0,1.8019,0.0,0.0,0.0,0.0,0.0,0.0,0.0,0.0,2.1757,2.3373,2.442,2.5301,2.675,2.9075,2.9564,3.0414,3.1992,3.2379,3.3251,3.5082,3.4803,3.5035,3.6687,3.6372,3.5984,3.5985,3.5958,3.603,3.6279,3.6261,3.6321,3.6344,3.6189,3.6014,3.6012,3.6013,3.6017,3.6003,3.6009,3.5986,3.5939,3.6127,3.6103,3.6009,3.6315,3.6687,3.7339,3.8215,3.899,3.9765,4.0542,4.0829,4.0195,4.0586,4.0488,3.8945,3.8271,3.7909,2.0677,2.0709,2.0709,2.0709,2.0709,2.0645,1.9998,1.9042,1.9008,1.932,1.9911,2.0139,2.1037,2.2286,2.2427,2.2907,2.3616,2.3616,2.3645,2.3704,2.3732,2.3739,2.3755,2.3927,2.4331,2.4915,2.5177,2.5625,2.6278,2.7052,2.7505,2.7648,2.8376,2.8936,2.9364,0.0,0.0,0.0,2.8409,2.8119,2.7493,2.7605,2.7284,2.6454,2.5598,0.0,2.3753,2.3671,2.3453,2.3011,2.2737,0.0,0.0,0.0,0.0,0.0,0.0,0.0,0.0,0.0,0.0,0.0,2.3797,2.3353,2.2017,2.459,2.6291,2.6211,2.822,2.9771,3.0278,3.1143,3.2392,3.4159,3.4511,3.5331,3.7106,3.7233,3.7404,3.768,3.7675,3.764,3.7547,3.7186,3.7124,3.7698,3.7431,3.7378,3.7966,3.6877,3.6058,3.6014,3.6017,3.6002,3.6004,3.6011,3.5992,3.6066,3.6615,3.6986,3.7071,3.8184,3.9051,3.9281,4.0009,4.0558,4.0857,4.1073,4.1133,4.0957,4.1074,4.0684,3.9023,3.9527,4.0129,2.1329,0.0,2.1174,2.1103,0.0,2.1103,2.0709,2.0107,2.0096,2.0505,2.1239,2.1322,2.1978,2.3113,2.316,2.3484,2.4008,2.4008,2.42,2.4563,2.4635,2.478,2.5049,2.5287,2.5591,2.596,2.6067,2.6467,2.7093,2.7424,2.778,2.814,2.8525,2.8881,2.9198,2.9082,2.8925,2.8751,2.8886,2.8743,2.8358,2.8235,2.7839,2.7051,0.0,0.0,0.0,0.0,0.0,0.0,0.0,0.0,0.0,0.0,0.0,2.2789,2.2049,2.197,2.2888,2.3346,2.4231,2.5715,2.7187,2.7365,2.5808,2.7746,2.9071,2.9183,3.0557,3.1549,3.1972,3.2978,3.4186,3.5464,3.614,3.7076,3.8315,3.8305,3.8301,3.868,3.8475,3.8244,3.8205,3.7969,3.7921,3.8341,3.817,3.8091,3.8382,3.7482,3.6544,3.6091,3.6019,3.6005,3.6008,3.6012,3.6189,3.6578,3.7007,3.7456,3.7864,3.8645,3.937,3.9782,4.0252,4.0625,4.1074,4.1191,4.1191,4.1191,4.1191,4.0976,4.0019,4.0148,4.039,2.2007,2.2128,2.1797,2.1687,2.1719,2.1675,2.1719,2.1739,0.0,0.0,0.0,2.2372,2.2891,2.371,2.3769,2.3953,2.4188,2.4218,2.4635,2.5303,2.5419,2.573,2.6154,2.644,2.6584,2.659,2.6718,2.7056,2.7605,2.772,2.7993,2.8517,2.8652,2.8787,2.8967,2.9029,2.9075,2.9159,2.9355,2.9374,2.9246,2.9074,2.8557,2.7683,2.6822,2.6025,2.5303,2.4667,2.4701,2.5425,2.5016,2.51,2.5846,2.5392,2.5236,2.5559,2.5539,2.5645,2.6025,2.6649,2.7361,2.818,3.0149,3.0885,2.9792,3.0542,3.1373,3.205,3.2477,3.3052,3.3838,3.494,3.594,3.6724,3.757,3.8485,3.9393,3.9054,3.8993,3.9544,3.9213,3.8766,3.8743,3.8634,3.8679,3.8834,3.8851,3.877,3.8687,3.8099,3.7246,3.6488,3.6335,3.6219,3.6024,3.5987,3.6341,3.7039,3.7368,3.7796,3.854,3.893,3.9322,4.0049,4.0114,4.0448,4.0956,4.1152,4.1191,4.1191,4.1191,4.1191,4.1133,4.054,4.024,2.3814,2.3834,2.3794,2.3867,2.401,2.401,2.4119,2.4097,2.2027,2.1491,2.2144,2.2341,2.304,2.4113,2.4437,2.4818,2.527,2.5452,2.5902,0.0,2.656,2.6624,2.6694,2.6918,2.6962,2.6852,2.6993,2.7418,2.8024,2.8005,2.8063,2.8235,2.8284,2.8605,2.9152,2.8975,2.9037,2.9448,3.0294,3.0432,2.981,3.0194,2.9742,2.8401,2.7528,2.672,2.6001,2.6089,2.6147,2.6167,2.6144,2.6115,2.606,2.5676,2.5514,2.5939,2.6599,2.743,2.8441,2.9541,3.0653,3.1767,3.2802,3.2904,3.1825,3.1975,3.2469,3.3203,3.4175,3.5089,3.5859,3.6875,3.7832,3.8604,3.9003,3.9496,4.0229,4.0269,4.0255,4.0305,4.0349,4.0203,4.0009,3.9592,3.9508,4.0059,3.976,3.9489,3.9396,3.889,3.8089,3.7358,3.7121,3.6776,3.6306,3.5951,3.6425,3.707,3.7805,3.8507,3.946,4.0069,4.053,4.0852,4.0819,4.0945,4.115,4.1191,4.1191,4.1191,4.1191,4.1191,4.1191,4.093,4.0799,2.4505,2.449,2.4287,2.4263,2.4329,2.4329,2.4406,2.4389,2.3284,2.3107,2.3659,2.3766,2.4167,2.4784,2.4954,2.5145,2.5421,2.5892,2.6407,2.7015,2.7473,2.7869,2.8257,2.845,2.852,2.8584,2.8622,2.8665,2.8642,2.8576,2.8394,2.8118,2.8073,2.8265,2.8549,2.8259,2.8259,2.8599,2.9852,3.0351,3.0035,3.0384,3.0248,2.9592,2.8851,2.8412,2.8277,2.8244,2.8508,2.9091,2.838,2.8409,2.9335,2.8493,2.8378,2.9353,2.9686,3.0126,3.0746,3.1774,3.2634,3.3272,3.4147,3.4676,3.4677,3.4691,3.487,3.5187,3.6194,3.6941,3.7315,3.8202,3.8895,3.9271,3.9732,4.0191,4.0513,4.0649,4.0642,4.0531,4.0494,4.0435,4.0318,4.0015,3.9947,4.0388,4.0152,4.002,4.0047,3.9738,3.9116,3.8149,3.7888,3.7742,3.7305,3.7256,3.7631,3.8427,3.8838,3.9406,4.0198,4.076,4.0899,4.0978,4.103,4.104,4.1039,4.1062,4.1083,4.1104,4.1119,4.1125,4.1129,4.1058,4.0977,2.4654,2.464,2.4401,2.4387,2.4532,2.4553,2.4599,2.4586,2.4566,2.4797,2.5159,2.4953,2.4987,2.5294,2.5358,2.5454,2.5666,2.6196,2.6889,2.7638,2.8262,2.8885,2.9485,2.9622,2.963,2.9592,2.9592,2.9307,2.8884,2.8828,2.8558,2.812,2.8085,2.8077,2.8067,2.7745,2.7677,2.7871,2.889,2.9621,2.9929,3.0376,3.0638,3.0716,3.0313,3.02,3.0478,3.0341,3.0177,2.997,2.9008,2.864,2.8987,2.8146,2.8112,2.9174,2.9254,2.9339,2.9664,3.042,3.092,3.1104,3.2996,3.4451,3.5228,3.6624,3.7244,3.7157,3.7899,3.8501,3.8612,3.9254,3.9714,3.9721,4.024,4.0596,4.0674,4.0623,4.0505,4.0388,4.0288,4.0104,3.9985,3.9976,4.0003,4.0038,4.0101,4.0127,4.02,4.0135,3.961,3.9017,3.8617,3.8419,3.8365,3.8218,3.8583,3.949,3.9591,3.9945,4.0564,4.0879,4.0894,4.0902,4.094,4.0977,4.0935,4.0968,4.1,4.1009,4.1037,4.1081,4.1064,4.1065,4.1007,2.4264,2.4301,2.4589,2.5027,2.5411,2.561,2.5667,2.5679,2.575,2.575,2.5684,2.4739,2.4703,2.5265,2.5502,2.5908,2.6498,2.6811,2.7565,2.8624,2.8886,2.9191,2.9523,2.958,2.9146,2.8441,2.8369,2.8469,2.8395,2.8239,2.821,2.828,2.8266,2.8264,2.8306,2.7968,2.7812,2.7797,2.7648,2.8172,2.9418,3.0397,3.1092,3.1595,3.1625,3.1761,3.1236,3.1843,2.9838,2.6017,2.5782,2.397,2.0455,1.9943,2.0189,2.0613,2.0819,2.1019,2.1763,2.211,2.2735,2.2802,2.7508,3.0356,3.078,3.5728,3.8884,3.7988,3.8672,3.9496,3.9527,4.016,4.0546,4.0455,4.0585,4.0694,4.0615,4.0385,4.0114,4.0053,3.9728,3.9474,3.9439,3.9428,3.9421,3.9437,3.9338,3.9354,3.9537,3.9392,3.9328,3.9305,3.9197,3.8717,3.8266,3.7976,3.8553,3.9344,3.9495,3.9884,4.051,4.0776,4.0812,4.0749,4.0835,4.0854,4.0894,4.099,4.097,4.0929,4.0961,4.1013,4.1011,4.1048,4.1046,2.4127,2.4043,2.4309,2.4706,2.5099,2.5206,2.5371,2.5535,2.5535,2.5535,2.5487,2.5028,2.5139,2.5635,2.5738,2.5977,2.6233,2.6483,2.6875,2.7459,2.805,2.8507,2.8799,2.9395,2.9314,2.8846,2.8878,2.8651,2.8122,2.7551,2.7268,2.7225,2.7179,2.7242,2.7338,2.6373,2.5932,2.6052,2.4931,2.4764,2.5702,2.7151,2.7481,2.6614,2.6563,2.6381,2.5962,2.5767,2.5145,2.4082,2.3455,2.2402,2.0889,2.0378,2.0063,1.9946,2.0123,2.055,2.1249,2.1091,2.0998,2.1099,2.341,2.4763,2.4543,2.7314,2.8802,2.9295,3.556,4.0397,4.017,4.0657,4.0801,4.0674,4.0609,4.0431,4.0345,4.0109,3.9925,3.9701,3.9314,3.9051,3.9117,3.9117,3.8998,3.8785,3.8586,3.8596,3.8729,3.8472,3.8424,3.8655,3.8626,3.8773,3.8842,3.9026,3.9231,3.9539,3.9783,4.0119,4.0137,4.0377,4.0434,4.0435,4.0487,4.0489,4.0414,4.0519,4.0539,4.0672,4.0891,4.0954,4.1037,4.1054,4.1046,2.3641,2.3519,2.374,2.4091,2.4454,2.4454,2.4611,2.4814,2.485,2.485,2.4814,2.4838,2.4993,2.5288,2.5641,2.5805,2.5781,2.5928,2.6271,2.6646,2.7326,2.7887,2.833,2.8921,2.9121,2.8917,2.883,2.8438,2.7714,2.7015,2.6573,2.6448,2.6151,2.6039,2.5981,2.4718,2.408,2.4013,2.2594,2.1845,2.2089,2.2868,2.3238,2.2985,2.2829,2.2512,2.2002,2.1716,2.1339,2.1073,2.0091,1.9166,1.8516,1.7798,1.7162,1.6796,1.6897,1.7139,1.7479,1.7115,1.6905,1.7088,1.8288,1.9266,1.9219,2.0432,2.1297,2.209,2.9266,3.3916,3.5016,3.488,3.4563,3.4184,3.5487,3.6923,3.6466,3.7957,3.9538,3.9219,3.8718,3.8358,3.8218,3.8069,3.7798,3.7469,3.7381,3.7488,3.7541,3.7363,3.7363,3.7698,3.7853,3.8437,3.9392,3.9526,3.9648,3.9756,3.986,3.989,3.9785,3.9955,4.0062,4.009,4.0101,4.0185,4.0234,4.0238,4.0319,4.0523,4.0718,4.09,4.1003,4.0998,4.1035,2.2478,2.2515,2.2889,2.3298,2.3641,2.3677,2.3666,2.374,2.3703,2.3703,2.374,2.3703,2.3714,2.3813,2.4957,2.5465,2.5312,2.5264,2.5975,2.7056,2.6963,2.7478,2.8554,2.843,2.817,2.7762,2.7471,2.7178,2.6925,2.6515,2.6425,2.6285,2.5428,2.4896,2.4424,2.3485,2.2886,2.2253,2.0952,2.0028,1.921,1.7852,1.9098,2.2129,2.2452,2.1834,2.2006,2.2246,2.0132,1.5398,1.5027,1.3088,0.9442,0.8784,0.8571,0.8084,0.8104,0.7837,0.7481,0.7753,0.7768,0.7886,1.1821,1.4298,1.3877,1.6773,1.8596,2.0238,1.7988,1.8527,1.9686,2.1032,2.0429,1.9716,2.4673,2.7725,2.7911,3.2796,3.8109,3.7101,3.5222,3.4447,3.5269,3.5979,3.5465,3.551,3.5637,3.5736,3.6059,3.6195,3.6377,3.6716,3.714,3.7839,3.8984,3.9169,3.9289,3.9375,3.9368,3.9596,3.964,3.9681,3.967,3.9732,3.9804,3.9926,4.0081,4.0255,4.0411,4.0559,4.0655,4.0781,4.0928,4.0986,4.1023,2.2025,2.2025,2.2176,2.2478,2.2826,2.2815,2.299,2.3202,2.3239,2.3191,2.3228,2.3202,2.3054,2.29,2.3596,2.4034,2.4166,2.3936,2.4396,2.5252,2.4945,2.5228,2.6055,2.6467,2.6514,2.623,2.6136,2.5707,2.4969,2.4207,2.4039,2.4148,2.2724,2.2094,2.2248,2.1146,2.0313,1.9917,1.807,1.6693,1.6221,1.4554,1.4443,1.5702,1.5896,1.5711,1.528,1.463,1.3573,1.2261,1.1113,0.9601,0.7837,0.6726,0.6185,0.6051,0.6111,0.5892,0.5402,0.5056,0.4861,0.4883,0.6383,0.6765,0.5217,0.6115,0.6457,0.4605,0.2821,0.1774,0.3273,0.9394,1.4851,1.4523,1.5892,1.7374,1.7302,1.9097,2.0111,1.929,1.85,1.9555,2.4721,2.6006,2.8598,3.3789,3.4835,3.4296,3.4843,3.5115,3.4875,3.5736,3.6361,3.696,3.7648,3.8184,3.8438,3.8526,3.8597,3.8626,3.8652,3.8855,3.8888,3.897,3.9163,3.9437,3.9561,3.9925,4.0157,4.03,4.0404,4.0635,4.0855,4.0847,4.0925,2.154,2.1454,2.1578,2.1721,2.1901,2.1997,2.2128,2.2322,2.2322,2.2285,2.2247,2.2247,2.2069,2.1901,2.2107,2.2237,2.2446,2.2606,2.3117,2.372,2.3379,2.3588,2.423,2.4672,2.4672,2.4362,2.4136,2.3545,2.2626,2.1803,2.1642,2.1906,2.013,1.9587,1.9917,1.8466,1.7517,1.7082,1.5216,1.3933,1.3607,1.2152,1.1332,1.1251,1.1175,1.1055,1.088,1.0004,0.9517,0.9557,0.836,0.7394,0.7031,0.6087,0.5515,0.554,0.5203,0.4789,0.4313,0.3662,0.3034,0.2539,0.2178,0.0888,-0.1329,-0.1943,-0.339,-0.5367,-0.7411,-0.8794,-0.7958,-0.1406,0.3934,0.4539,0.5855,0.6703,0.6578,0.8257,0.9023,0.8782,0.7887,0.9463,1.315,1.4649,1.7638,2.3705,2.439,2.4556,2.4498,2.7891,2.9847,3.0584,3.3501,3.5225,3.6077,3.6381,3.6791,3.6952,3.8023,3.7978,3.7928,3.8097,3.8196,3.8261,3.8468,3.8785,3.908,3.9418,3.955,3.9566,4.0129,4.0338,4.0527,4.0676,4.075,2.0925,2.0683,2.1012,2.1041,2.0944,2.1108,2.1079,2.0944,2.0934,2.0857,2.0741,2.0634,2.0634,2.0595,2.0624,2.0382,2.0333,2.1239,2.213,2.2696,2.2494,2.2706,2.3216,2.2889,2.2646,2.2386,2.1504,2.0735,2.0111,1.9674,1.9372,1.9019,1.8006,1.7372,1.7542,1.5655,1.4608,1.4135,1.2663,1.1861,1.1787,1.0489,0.988,1.0197,0.9317,0.9152,1.005,0.9505,0.8749,0.78,0.6885,0.6312,0.6187,0.572,0.5573,0.5299,0.4503,0.3611,0.2807,0.2094,0.1024,-0.0222,-0.1242,-0.2079,-0.3437,-0.5017,-0.6374,-0.7458,-0.9542,-1.1507,-1.2378,-1.2828,-1.2712,-1.2359,-0.612,-0.3324,-0.2468,0.2539,0.6698,0.416,0.1993,0.3291,0.3555,0.3741,0.4808,0.6107,0.6993,0.7715,0.8914,1.4771,1.8589,2.0774,2.4156,2.7363,3.107,3.4449,3.4857,3.5404,3.6876,3.765,3.7578,3.7667,3.7703,3.7755,3.8096,3.8225,3.5071,3.5455,3.6261,3.6619,3.8034,3.8924,4.0172,4.0328,4.0499,1.9687,2.0098,2.0255,2.0098,1.9854,2.0177,2.0128,1.9805,1.9814,1.9775,1.9657,1.942,1.9301,1.9292,1.9292,1.9134,1.8847,1.9216,1.9964,2.0853,2.0585,2.0681,2.1148,2.0909,2.0544,2.0227,1.9917,1.9254,1.8316,1.7493,1.7268,1.7227,1.5486,1.4573,1.458,1.2826,1.1636,1.0936,0.9472,0.8831,0.9148,0.7967,0.749,0.7884,0.7526,0.7288,0.7164,0.7834,0.7677,0.6631,0.6124,0.5714,0.5313,0.4497,0.402,0.3887,0.317,0.1829,0.0357,-0.0268,-0.1335,-0.2925,-0.3894,-0.5292,-0.7071,-0.8261,-0.9742,-1.1416,-1.3403,-1.4706,-1.608,-1.7465,-1.7738,-1.6392,-1.5148,-1.4159,-1.4439,-1.3658,-1.3607,-1.3274,-1.435,-1.248,-0.7291,-0.5804,-0.3948,0.0784,0.2403,0.2771,0.383,0.5986,0.9577,1.0246,1.4081,1.7274,1.9465,2.1017,2.1511,2.4786,2.8631,3.1258,3.2544,3.343,3.4174,3.4616,3.5343,3.4497,3.1609,3.0482,3.0542,3.0818,3.038,3.3435,3.8245,3.8556,3.6534,1.8479,1.8856,1.9262,1.9262,1.8984,1.9301,1.9262,1.8984,1.8944,1.8865,1.8745,1.8496,1.8336,1.8247,1.7908,1.7715,1.7651,1.7261,1.7422,1.8254,1.8762,1.8921,1.9201,1.8775,1.8129,1.7631,1.7542,1.6847,1.5662,1.5162,1.4879,1.4483,1.2996,1.2194,1.2074,1.0446,0.92,0.8582,0.7183,0.653,0.6665,0.5913,0.5515,0.5778,0.5499,0.5049,0.4612,0.5112,0.5338,0.5164,0.491,0.4516,0.416,0.2949,0.2144,0.1919,0.0803,-0.0713,-0.2407,-0.3184,-0.4338,-0.6166,-0.7328,-0.8671,-1.0699,-1.1624,-1.334,-1.495,-1.6077,-1.7167,-1.8398,-1.9543,-1.9961,-2.0005,-2.0008,-2.0948,-2.1707,-2.2833,-2.3111,-2.2292,-2.3101,-2.1104,-1.7632,-1.5463,-1.3613,-0.8151,-0.6521,-0.6071,-0.5423,-0.2683,-0.1012,0.1546,0.5947,0.7495,0.6974,0.7344,0.7542,1.2463,1.8028,2.0502,2.2399,2.3063,2.3729,2.3396,2.3789,2.3364,2.0957,2.1111,2.1213,2.1674,2.2307,2.4401,2.7224,2.8761,2.8373,1.7253,1.7115,1.8046,1.8287,1.8215,1.8367,1.8336,1.8215,1.8175,1.8055,1.791,1.7489,1.7448,1.7277,1.6339,1.6101,1.6386,1.553,1.506,1.5343,1.6183,1.6952,1.674,1.6388,1.5647,1.4692,1.4538,1.3776,1.265,1.2717,1.2308,1.1526,1.095,1.0394,0.999,0.8341,0.7288,0.6757,0.5481,0.4727,0.4681,0.415,0.3883,0.3837,0.3029,0.2404,0.2047,0.1513,0.1958,0.3387,0.3083,0.264,0.2462,0.1161,0.0223,0.0,-0.205,-0.3778,-0.5257,-0.6311,-0.7826,-0.9921,-1.1363,-1.2698,-1.3835,-1.519,-1.6314,-1.7117,-1.7887,-1.8726,-1.9756,-2.0676,-2.1816,-2.3059,-2.2524,-2.2509,-2.3093,-2.3798,-2.4259,-2.4815,-2.511,-2.5025,-2.4245,-2.418,-2.3588,-2.2811,-2.1323,-1.9878,-1.8672,-1.3355,-1.0042,-0.6794,-0.3635,-0.3048,-0.3796,-0.3154,-0.2933,-0.0947,0.5159,0.9211,1.3269,1.478,1.555,1.4898,1.3593,1.2635,1.1727,1.201,1.253,1.323,1.3785,1.4234,1.717,2.0945,2.3348,1.5162,1.6216,1.5849,1.6242,1.7,1.6854,1.6854,1.709,1.709,1.696,1.6812,1.5918,1.5794,1.6015,1.4546,1.4476,1.5039,1.3895,1.3516,1.3782,1.3461,1.3484,1.3568,1.3762,1.3262,1.2194,1.2114,1.1515,1.0869,1.0832,1.0486,1.0014,0.9396,0.8646,0.7727,0.6587,0.5174,0.3885,0.295,0.2324,0.2052,0.1251,0.0715,0.0758,0.0,-0.067,-0.1161,-0.1609,-0.0491,0.1962,0.0938,0.0581,0.0893,-0.0714,-0.2138,-0.2889,-0.3959,-0.5813,-0.7971,-0.908,-1.075,-1.3299,-1.4687,-1.5995,-1.6909,-1.7908,-1.882,-1.9425,-1.9918,-2.0434,-2.1513,-2.2201,-2.2966,-2.3614,-2.4094,-2.446,-2.4566,-2.5048,-2.5178,-2.4678,-2.4741,-2.5038,-2.5155,-2.4826,-2.4314,-2.4024,-2.3251,-2.2185,-2.103,-2.0272,-1.5311,-1.7331,-1.5934,-1.4948,-1.4313,-1.3602,-1.3192,-1.309,-0.8435,-0.246,0.3301,0.8927,0.9916,1.0451,0.7986,0.6608,0.4445,0.3379,0.4054,0.4903,0.6218,0.7666,1.4805,1.9618,2.035,1.351,1.4434,1.4162,1.4462,1.5108,1.4837,1.4837,1.4935,1.4983,1.4976,1.4768,1.4099,1.3937,1.4077,1.2705,1.2705,1.3643,1.2328,1.1906,1.1986,1.1295,1.1332,1.1804,1.2194,1.1729,1.0875,1.0654,1.0173,0.9575,0.9444,0.9144,0.8532,0.8046,0.7342,0.6593,0.5085,0.3844,0.2596,0.1524,0.0851,0.0402,-0.0269,-0.0671,-0.0939,-0.1744,-0.2597,-0.3269,-0.3269,-0.2191,-0.0893,-0.1429,-0.1962,-0.1693,-0.3423,-0.4931,-0.5802,-0.6786,-0.8677,-1.1076,-1.2231,-1.3679,-1.5901,-1.7447,-1.8319,-1.9073,-1.9816,-2.058,-2.1185,-2.1451,-2.2054,-2.2998,-2.3735,-2.424,-2.4607,-2.5242,-2.543,-2.4734,-2.4713,-2.4886,-2.4671,-2.4596,-2.4667,-2.4919,-2.4216,-2.3473,-2.2859,-2.2171,-2.134,-2.0603,-2.0478,-2.0372,-2.0702,-2.0808,-1.8475,-1.7564,-1.7128,-1.6221,-1.6826,-1.5005,-1.0158,-0.5813,0.1038,0.0173,0.0274,0.0454,0.0107,-0.2117,-0.3932,-0.4042,-0.2906,-0.1219,0.2085,0.8162,1.3997,1.5165,1.1923,1.218,1.2681,1.2917,1.2947,1.282,1.2814,1.2638,1.2766,1.2723,1.2644,1.2322,1.2328,1.2157,1.1182,1.1015,1.1949,1.0928,1.0361,1.0009,0.944,0.9479,1.0418,1.0773,1.0481,0.9932,0.9927,0.9,0.8173,0.8225,0.7921,0.7085,0.6602,0.6242,0.5354,0.3929,0.2862,0.1925,0.0896,-0.009,-0.0627,-0.1075,-0.1433,-0.2058,-0.2685,-0.3671,-0.43,-0.4251,-0.3666,-0.3357,-0.4061,-0.4235,-0.4543,-0.6398,-0.7819,-0.8632,-0.973,-1.1513,-1.413,-1.4955,-1.6145,-1.7787,-1.8979,-1.9982,-2.043,-2.1023,-2.1742,-2.2432,-2.2775,-2.3168,-2.3773,-2.4946,-2.5126,-2.4988,-2.52,-2.4775,-2.4046,-2.3831,-2.4262,-2.485,-2.4456,-2.437,-2.4241,-2.3856,-2.291,-2.1803,-2.1067,-2.0272,-1.9734,-1.9453,-1.9438,-1.9675,-1.9671,-1.9511,-1.9487,-1.9742,-1.8789,-1.8196,-1.6571,-1.3716,-1.2829,-0.9528,-1.1467,-1.1513,-0.7254,-0.6538,-0.862,-0.9952,-0.9323,-0.7564,-0.3781,-0.3262,-0.1857,0.3893,0.6896,0.9618,1.0933,1.0381,1.0966,1.1986,1.1434,1.1472,1.206,1.206,1.198,1.1895,1.1311,1.1268,1.1643,1.0067,1.0033,1.088,0.968,0.8903,0.8544,0.7474,0.7071,0.7676,0.8476,0.8492,0.7881,0.7577,0.6905,0.6151,0.6334,0.621,0.5364,0.5055,0.4518,0.3757,0.2773,0.1432,0.0403,-0.009,-0.0941,-0.1972,-0.2239,-0.2686,-0.3491,-0.403,-0.4654,-0.5322,-0.5544,-0.5766,-0.5938,-0.575,-0.5612,-0.588,-0.7335,-0.9016,-1.0411,-1.1115,-1.2615,-1.5076,-1.6221,-1.6889,-1.826,-1.9321,-2.021,-2.106,-2.175,-2.2562,-2.3256,-2.357,-2.3614,-2.3777,-2.4229,-2.4358,-2.4166,-2.4079,-2.3767,-2.3159,-2.393,-2.4402,-2.4018,-2.3793,-2.3524,-2.2887,-2.2196,-2.1394,-2.0717,-2.0009,-1.9211,-1.8803,-1.8464,-1.8551,-1.8781,-1.8539,-1.8496,-1.8917,-1.9225,-1.882,-1.8132,-1.6846,-1.5628,-1.4845,-1.4378,-1.4119,-1.3701,-1.2547,-1.2487,-1.1407,-0.9928,-0.8135,-0.6994,-0.5866,-0.4092,-0.2315,-0.0356,0.1463,0.8667,0.9907,0.9476,0.9772,1.0409,1.0028,1.0028,1.0366,1.0414,1.0409,1.0279,0.9724,0.9715,0.9923,0.8532,0.8265,0.8519,0.7606,0.682,0.6552,0.5888,0.5531,0.5484,0.6015,0.6154,0.5628,0.5628,0.509,0.469,0.4654,0.4582,0.3891,0.369,0.3291,0.2531,0.1664,0.0761,-0.0179,-0.0762,-0.148,-0.242,-0.2823,-0.3582,-0.4565,-0.5015,-0.5369,-0.6118,-0.634,-0.6653,-0.7048,-0.743,-0.7423,-0.7383,-0.875,-1.0474,-1.175,-1.285,-1.4167,-1.6319,-1.7402,-1.8116,-1.9007,-1.974,-2.0251,-2.1006,-2.1721,-2.2438,-2.3071,-2.343,-2.3667,-2.3246,-2.3754,-2.357,-2.2624,-2.2711,-2.2482,-2.1943,-2.2824,-2.3467,-2.2591,-2.2133,-2.178,-2.1194,-2.0532,-2.0118,-1.96,-1.9552,-1.8784,-1.8121,-1.7854,-1.7801,-1.7805,-1.7483,-1.7514,-1.7965,-1.8158,-1.8037,-1.7423,-1.6568,-1.5504,-1.4601,-1.4287,-1.4099,-1.314,-1.1977,-1.0957,-0.9822,-0.8341,-0.7339,-0.6675,-0.5388,-0.3169,-0.134,0.0045,0.1693,0.7834,0.8727,0.8771,0.8596,0.8424,0.8328,0.8241,0.812,0.8076,0.8061,0.8028,0.7797,0.7702,0.7485,0.677,0.6239,0.606,0.5573,0.5265,0.5179,0.4648,0.4336,0.4245,0.4065,0.3887,0.3798,0.42,0.3933,0.3489,0.3403,0.3331,0.2737,0.2405,0.1944,0.1367,0.0635,-0.018,-0.0942,-0.1121,-0.1749,-0.2465,-0.2956,-0.3849,-0.5191,-0.5591,-0.5988,-0.665,-0.6912,-0.7132,-0.7573,-0.9056,-0.9423,-0.9673,-1.0556,-1.205,-1.3019,-1.4167,-1.5569,-1.6994,-1.8049,-1.871,-1.9741,-1.9687,-2.0005,-2.0548,-2.1221,-2.1898,-2.2668,-2.3169,-2.3343,-2.2536,-2.2896,-2.2403,-2.1311,-2.1311,-2.1042,-2.0449,-2.1033,-2.1016,-2.0603,-2.0279,-2.0,-1.96,-1.9069,-1.8772,-1.8564,-1.8584,-1.8406,-1.7704,-1.7192,-1.7094,-1.7165,-1.6943,-1.7008,-1.744,-1.748,-1.7318,-1.6992,-1.6214,-1.5304,-1.4307,-1.3275,-1.262,-1.1504,-1.0433,-0.9527,-0.8615,-0.7482,-0.6735,-0.6334,-0.5265,-0.3441,-0.1607,0.0223,0.1784,0.5453,0.6296,0.6296,0.6293,0.6251,0.6071,0.6071,0.5891,0.5888,0.5622,0.5708,0.5573,0.5617,0.5481,0.5395,0.5218,0.4907,0.451,0.4423,0.4245,0.3624,0.3133,0.2864,0.2462,0.1926,0.1881,0.2553,0.2825,0.2466,0.2598,0.2266,0.1585,0.082,0.0274,-0.0273,-0.0999,-0.1586,-0.1884,-0.1748,-0.2106,-0.3044,-0.3535,-0.4425,-0.5947,-0.6299,-0.6827,-0.7353,-0.7529,-0.8013,-0.9288,-0.9724,-1.0377,-1.1097,-1.2157,-1.3214,-1.4046,-1.4929,-1.5975,-1.7018,-1.7461,-1.7606,-1.7738,-1.7963,-1.8734,-1.9733,-2.0503,-2.1275,-2.2403,-2.2994,-2.2994,-2.1961,-2.1996,-2.1498,-2.0512,-1.9968,-1.9741,-1.8856,-1.8718,-1.8993,-1.8718,-1.8495,-1.8311,-1.7987,-1.7809,-1.7684,-1.7552,-1.7487,-1.7522,-1.7227,-1.6697,-1.6345,-1.6447,-1.6557,-1.6716,-1.6992,-1.6919,-1.6804,-1.6632,-1.5974,-1.5095,-1.388,-1.2089,-1.0928,-1.0274,-0.9401,-0.8528,-0.7573,-0.6612,-0.5899,-0.5361,-0.4514,-0.3714,-0.2189,-0.058,0.0713,0.4832,0.5677,0.5722,0.563,0.5542,0.545,0.5314,0.5179,0.5043,0.4999,0.4819,0.4414,0.4055,0.3922,0.3344,0.3124,0.3084,0.3042,0.2953,0.2731,0.2374,0.2017,0.1747,0.1345,0.1076,0.081,0.1039,0.1272,0.1094,0.1383,0.0973,0.0,-0.0652,-0.1151,-0.1836,-0.2324,-0.2855,-0.3004,-0.2822,-0.2956,-0.3937,-0.4162,-0.5359,-0.6817,-0.7526,-0.8177,-0.9274,-0.9449,-0.9802,-1.0549,-1.1111,-1.1651,-1.24,-1.3308,-1.4142,-1.4494,-1.518,-1.5896,-1.6532,-1.6918,-1.716,-1.716,-1.7153,-1.752,-1.8473,-1.9338,-2.0512,-2.1587,-2.1996,-2.1543,-1.9914,-2.0404,-1.9815,-1.8742,-1.8557,-1.8319,-1.7638,-1.7217,-1.7178,-1.7178,-1.7124,-1.6983,-1.6622,-1.6534,-1.6588,-1.6541,-1.6487,-1.653,-1.6557,-1.6039,-1.5485,-1.533,-1.5425,-1.5693,-1.5861,-1.5827,-1.5835,-1.5752,-1.5428,-1.4552,-1.3837,-1.226,-1.0794,-0.971,-0.8707,-0.779,-0.6823,-0.5988,-0.5188,-0.4476,-0.4026,-0.3489,-0.2594,-0.1431,-0.0178,0.4431,0.5053,0.4825,0.4643,0.4463,0.415,0.3881,0.379,0.3611,0.3477,0.3611,0.2717,0.2182,0.2004,0.1383,0.0849,0.0806,0.0851,0.0851,0.0851,0.0717,0.0583,0.0538,0.0448,0.009,-0.0499,-0.0874,-0.0973,-0.0231,-0.0282,-0.1006,-0.1629,-0.1927,-0.2475,-0.3368,-0.35,-0.3803,-0.3916,-0.3826,-0.3963,-0.4563,-0.5297,-0.6441,-0.8384,-0.8675,-0.944,-1.0626,-1.089,-1.1106,-1.1585,-1.2149,-1.2735,-1.32,-1.4317,-1.476,-1.4541,-1.5299,-1.5859,-1.623,-1.6643,-1.6925,-1.6925,-1.6925,-1.7066,-1.766,-1.8834,-1.9877,-2.0503,-2.0674,-2.0133,-1.881,-1.8756,-1.8211,-1.7217,-1.7077,-1.7203,-1.6574,-1.6157,-1.6015,-1.5974,-1.5886,-1.5886,-1.5784,-1.5947,-1.6129,-1.6026,-1.6006,-1.5855,-1.5757,-1.5044,-1.4476,-1.4139,-1.4137,-1.4439,-1.4566,-1.4476,-1.4518,-1.4518,-1.4154,-1.3535,-1.3203,-1.2607,-1.1095,-0.9405,-0.8404,-0.7485,-0.6428,-0.5589,-0.5055,-0.452,-0.3937,-0.3578,-0.3267,-0.2325,-0.0982,0.3006,0.2825,0.2013,0.1475,0.1207,0.0357,-0.0223,-0.0179,-0.0223,-0.067,-0.0089,-0.067,-0.067,-0.0761,-0.0805,-0.1029,-0.0986,-0.0806,-0.0761,-0.0716,-0.0942,-0.1078,-0.1345,-0.1653,-0.1589,-0.1887,-0.2299,-0.1965,-0.1593,-0.218,-0.272,-0.307,-0.372,-0.4415,-0.4408,-0.4491,-0.4585,-0.4566,-0.3954,-0.426,-0.5506,-0.6566,-0.7699,-0.8698,-0.9345,-0.9912,-1.0878,-1.1348,-1.1714,-1.2272,-1.2534,-1.3255,-1.4152,-1.4681,-1.509,-1.5331,-1.5758,-1.619,-1.6211,-1.6454,-1.6636,-1.6643,-1.673,-1.7091,-1.7816,-1.8449,-1.9268,-1.9588,-1.9633,-1.9039,-1.794,-1.7848,-1.7156,-1.6466,-1.5961,-1.5866,-1.541,-1.5648,-1.5458,-1.5363,-1.5458,-1.5356,-1.5302,-1.5555,-1.5792,-1.5625,-1.5457,-1.5225,-1.4786,-1.3919,-1.3429,-1.3108,-1.2795,-1.3039,-1.3347,-1.3256,-1.3292,-1.3292,-1.3051,-1.2644,-1.2308,-1.1923,-1.0837,-0.9323,-0.8277,-0.7268,-0.6296,-0.5589,-0.5099,-0.4565,-0.3939,-0.4119,-0.4525,-0.322,-0.1653,0.1837,0.1657,0.1074,0.0402,-0.0358,-0.0894,-0.1163,-0.1297,-0.1342,-0.1387,-0.1521,-0.2059,-0.2252,-0.2266,-0.2254,-0.1938,-0.1632,-0.153,-0.1432,-0.1528,-0.1718,-0.1821,-0.1829,-0.2027,-0.2334,-0.2914,-0.3343,-0.371,-0.3364,-0.3156,-0.3439,-0.417,-0.4551,-0.501,-0.532,-0.5467,-0.5581,-0.559,-0.5536,-0.579,-0.6505,-0.7148,-0.7925,-0.9167,-0.9759,-1.0553,-1.1347,-1.2195,-1.2583,-1.3009,-1.3179,-1.3479,-1.409,-1.4588,-1.5082,-1.5189,-1.5638,-1.5954,-1.5974,-1.6211,-1.6353,-1.6541,-1.6864,-1.7544,-1.8033,-1.7933,-1.7832,-1.7786,-1.7779,-1.7375,-1.6702,-1.6332,-1.6008,-1.5547,-1.5302,-1.5213,-1.5083,-1.5077,-1.5124,-1.5029,-1.4879,-1.4711,-1.4578,-1.4747,-1.4757,-1.444,-1.4167,-1.3805,-1.3215,-1.2353,-1.2089,-1.2055,-1.1763,-1.1569,-1.1949,-1.212,-1.22,-1.2237,-1.245,-1.1997,-1.1542,-1.0895,-1.0024,-0.9283,-0.8368,-0.7356,-0.6254,-0.5275,-0.4565,-0.4208,-0.3896,-0.3941,-0.3941,-0.3539,-0.2192,0.0805,0.0537,0.0089,-0.0671,-0.1566,-0.1789,-0.2013,-0.2148,-0.2191,-0.2192,-0.2326,-0.2911,-0.3255,-0.3282,-0.325,-0.2931,-0.2374,-0.2162,-0.2159,-0.2173,-0.2334,-0.2635,-0.2887,-0.2973,-0.3238,-0.3452,-0.4264,-0.4698,-0.4693,-0.4535,-0.4512,-0.5181,-0.5262,-0.5554,-0.6001,-0.6141,-0.6135,-0.6227,-0.6412,-0.6721,-0.7073,-0.7149,-0.8023,-0.9051,-1.0081,-1.0999,-1.1938,-1.2573,-1.2924,-1.3264,-1.3088,-1.3223,-1.3786,-1.4469,-1.4837,-1.5015,-1.5411,-1.5676,-1.5879,-1.6116,-1.6258,-1.64,-1.6534,-1.6936,-1.7163,-1.6601,-1.6177,-1.6271,-1.6271,-1.5859,-1.5315,-1.5178,-1.5124,-1.507,-1.4933,-1.4933,-1.4885,-1.4813,-1.4704,-1.4561,-1.4304,-1.3747,-1.3695,-1.385,-1.3714,-1.3324,-1.2894,-1.2404,-1.1679,-1.0857,-1.0639,-1.0616,-1.0453,-1.0197,-1.0371,-1.0712,-1.0885,-1.1052,-1.1262,-1.1176,-1.0636,-1.0337,-0.9811,-0.9074,-0.8376,-0.736,-0.6257,-0.5097,-0.4028,-0.3985,-0.3807,-0.3224,-0.2956,-0.2732,-0.2374,0.0089,-0.1028,-0.1879,-0.2462,-0.282,-0.3715,-0.4028,-0.3849,-0.3983,-0.3939,-0.3805,-0.4121,-0.4082,-0.4135,-0.4049,-0.3995,-0.4002,-0.4078,-0.3891,-0.4029,-0.4394,-0.4258,-0.4307,-0.4494,-0.4866,-0.5026,-0.5212,-0.5405,-0.5752,-0.5465,-0.5737,-0.6229,-0.5954,-0.6153,-0.6306,-0.6271,-0.6255,-0.6349,-0.6492,-0.6789,-0.7076,-0.7298,-0.7865,-0.8973,-0.9971,-1.082,-1.1488,-1.1837,-1.2392,-1.2875,-1.263,-1.2929,-1.3717,-1.434,-1.4657,-1.4824,-1.5196,-1.5384,-1.5506,-1.6069,-1.6487,-1.6109,-1.5771,-1.5866,-1.6096,-1.554,-1.522,-1.5261,-1.5296,-1.5261,-1.4987,-1.4892,-1.4736,-1.4688,-1.464,-1.4592,-1.4526,-1.4375,-1.4273,-1.4082,-1.3574,-1.2853,-1.2006,-1.2024,-1.2078,-1.1684,-1.1079,-1.0567,-1.0154,-0.9468,-0.9148,-0.9026,-0.8947,-0.8823,-0.8823,-0.9082,-0.9419,-0.9545,-0.9671,-0.9719,-0.9559,-0.934,-0.9292,-0.899,-0.8292,-0.7319,-0.6346,-0.5317,-0.4516,-0.4117,-0.3673,-0.2867,-0.2285,-0.1972,-0.1569,-0.0805,-0.1879,-0.3089,-0.3673,-0.376,-0.4119,-0.4297,-0.4297,-0.4297,-0.4297,-0.4297,-0.43,-0.433,-0.4353,-0.432,-0.4332,-0.4365,-0.4318,-0.4324,-0.4434,-0.4587,-0.4711,-0.4831,-0.4948,-0.5053,-0.5275,-0.5334,-0.5442,-0.5679,-0.5739,-0.5942,-0.6089,-0.6287,-0.6368,-0.6377,-0.6361,-0.6363,-0.6366,-0.6465,-0.665,-0.6898,-0.7162,-0.7508,-0.8065,-0.9082,-0.9548,-0.988,-1.0426,-1.1255,-1.1892,-1.2019,-1.2662,-1.3556,-1.419,-1.4477,-1.4589,-1.5031,-1.5146,-1.5131,-1.5689,-1.592,-1.6183,-1.5575,-1.5153,-1.5439,-1.5105,-1.4729,-1.464,-1.464,-1.4646,-1.4592,-1.4496,-1.4442,-1.4448,-1.4352,-1.4304,-1.416,-1.4005,-1.3628,-1.3358,-1.2496,-1.1652,-1.0722,-0.9931,-1.004,-1.0004,-0.936,-0.8791,-0.8573,-0.8412,-0.8241,-0.8197,-0.8204,-0.8164,-0.8208,-0.8164,-0.8116,-0.8204,-0.8336,-0.86,-0.8819,-0.8644,-0.8596,-0.8424,-0.8384,-0.772,-0.683,-0.5714,-0.4825,-0.4071,-0.3179,-0.2331,-0.1793,-0.1345,-0.1031,-0.1074,-0.2105,-0.3494,-0.4078,-0.4119,-0.4253,-0.4208,-0.4121,-0.4253,-0.4297,-0.4297,-0.4302,-0.433,-0.4363,-0.4336,-0.4324,-0.4355,-0.4338,-0.4387,-0.4461,-0.4594,-0.464,-0.473,-0.4792,-0.4914,-0.5087,-0.5138,-0.5238,-0.5489,-0.5486,-0.5739,-0.5992,-0.6189,-0.6284,-0.6431,-0.6387,-0.6387,-0.6387,-0.6437,-0.6539,-0.6792,-0.7077,-0.7301,-0.768,-0.8636,-0.9125,-0.9217,-0.9623,-1.023,-1.088,-1.1306,-1.1954,-1.2934,-1.3785,-1.4157,-1.4481,-1.4747,-1.4927,-1.4885,-1.5124,-1.5493,-1.6035,-1.5343,-1.5194,-1.5188,-1.4813,-1.4442,-1.4346,-1.425,-1.4154,-1.416,-1.4112,-1.4112,-1.4118,-1.4016,-1.3913,-1.3736,-1.3528,-1.3041,-1.2582,-1.1388,-1.0059,-0.9525,-0.8684,-0.8323,-0.8424,-0.8177,-0.7822,-0.7701,-0.7584,-0.7628,-0.7672,-0.7757,-0.776,-0.7764,-0.7808,-0.7856,-0.8032,-0.8116,-0.8204,-0.8292,-0.8204,-0.816,-0.8204,-0.8164,-0.8076,-0.7183,-0.5802,-0.469,-0.3712,-0.2731,-0.1705,-0.148,-0.1121,-0.0852,-0.0627,-0.1569,-0.3005,-0.3631,-0.3676,-0.4121,-0.4076,-0.3853,-0.4121,-0.4304,-0.431,-0.4306,-0.4316,-0.4326,-0.4326,-0.433,-0.4349,-0.433,-0.4393,-0.454,-0.4547,-0.4665,-0.4757,-0.4814,-0.4808,-0.478,-0.4885,-0.5037,-0.519,-0.5188,-0.5491,-0.5892,-0.6089,-0.6189,-0.6387,-0.6387,-0.6387,-0.6387,-0.6387,-0.6539,-0.6742,-0.6986,-0.7217,-0.7504,-0.8263,-0.8684,-0.8625,-0.866,-0.9263,-1.0112,-0.9848,-1.0697,-1.2402,-1.2828,-1.3419,-1.4279,-1.4555,-1.4592,-1.4394,-1.4838,-1.5343,-1.5798,-1.4962,-1.4729,-1.4484,-1.4298,-1.4256,-1.4202,-1.407,-1.3931,-1.3835,-1.3732,-1.3781,-1.3732,-1.363,-1.3318,-1.3149,-1.2405,-1.1745,-1.1106,-0.9648,-0.8268,-0.7973,-0.7543,-0.6947,-0.6797,-0.6828,-0.6815,-0.6884,-0.6969,-0.7054,-0.7143,-0.7272,-0.7316,-0.7319,-0.7459,-0.7591,-0.7768,-0.79,-0.794,-0.8076,-0.8164,-0.812,-0.8032,-0.7988,-0.7944,-0.6962,-0.5805,-0.4423,-0.2998,-0.2015,-0.1166,-0.1031,-0.0852,-0.0583,-0.121,-0.2019,-0.2825,-0.3136,-0.3226,-0.3987,-0.421,-0.4121,-0.4214,-0.4332,-0.4367,-0.4332,-0.4379,-0.4414,-0.4369,-0.4365,-0.4447,-0.4332,-0.4412,-0.4628,-0.4549,-0.4608,-0.4704,-0.4759,-0.4705,-0.4767,-0.4794,-0.4834,-0.4935,-0.4935,-0.5288,-0.5636,-0.6039,-0.6287,-0.6387,-0.6387,-0.6387,-0.6387,-0.6387,-0.6439,-0.6589,-0.6783,-0.6921,-0.6921,-0.7562,-0.7801,-0.7708,-0.7742,-0.8317,-0.9282,-0.8914,-1.004,-1.1821,-1.2491,-1.3121,-1.3992,-1.4442,-1.44,-1.4346,-1.4544,-1.4627,-1.4765,-1.4723,-1.44,-1.4298,-1.4112,-1.407,-1.3968,-1.3781,-1.3642,-1.3588,-1.3588,-1.3539,-1.3389,-1.319,-1.2646,-1.2159,-1.099,-1.0066,-0.9407,-0.8275,-0.7322,-0.6829,-0.6669,-0.6162,-0.6009,-0.6156,-0.6405,-0.6523,-0.6564,-0.6653,-0.6741,-0.6786,-0.683,-0.6877,-0.7058,-0.719,-0.7367,-0.7455,-0.754,-0.772,-0.7944,-0.7944,-0.7808,-0.7808,-0.772,-0.6425,-0.509,-0.3532,-0.2193,-0.1345,-0.0897,-0.0852,-0.0583,-0.0225,-0.1256,-0.1974,-0.2465,-0.2644,-0.2823,-0.3673,-0.4121,-0.4261,-0.4332,-0.4381,-0.4418,-0.4402,-0.4451,-0.4508,-0.4471,-0.4478,-0.4602,-0.4428,-0.4457,-0.4661,-0.4473,-0.4577,-0.4663,-0.4706,-0.472,-0.4732,-0.4734,-0.4784,-0.4834,-0.4784,-0.5135,-0.5636,-0.6039,-0.6239,-0.6339,-0.6387,-0.6387,-0.6387,-0.6387,-0.6387,-0.6489,-0.6623,-0.672,-0.6738,-0.6955,-0.7091,-0.693,-0.7025,-0.7343,-0.8139,-0.8717,-0.9425,-1.0933,-1.195,-1.2538,-1.3366,-1.4148,-1.4154,-1.4208,-1.4166,-1.4208,-1.4064,-1.4112,-1.4112,-1.4016,-1.3829,-1.3786,-1.369,-1.3448,-1.3346,-1.3292,-1.3298,-1.305,-1.2856,-1.2209,-1.1663,-1.1009,-0.9836,-0.8617,-0.7947,-0.7313,-0.6459,-0.5892,-0.5652,-0.5445,-0.5452,-0.5549,-0.5811,-0.6118,-0.6163,-0.6254,-0.6343,-0.639,-0.6435,-0.6523,-0.6653,-0.6833,-0.6966,-0.7054,-0.7187,-0.7411,-0.7635,-0.7632,-0.7544,-0.7411,-0.6962,-0.5669,-0.4287,-0.2818,-0.1702,-0.0941,-0.0673,-0.0673,-0.0449,-0.0135,-0.0807,-0.1436,-0.1974,-0.22,-0.2423,-0.3318,-0.3944,-0.4306,-0.4342,-0.4378,-0.4392,-0.4512,-0.4555,-0.4575,-0.4612,-0.4616,-0.4606,-0.4473,-0.4542,-0.4589,-0.4441,-0.4573,-0.4636,-0.4687,-0.4692,-0.473,-0.4734,-0.4782,-0.4782,-0.4885,-0.5135,-0.5486,-0.5839,-0.6089,-0.6239,-0.6287,-0.6337,-0.6387,-0.6387,-0.6387,-0.6439,-0.6587,-0.665,-0.6709,-0.6816,-0.6964,-0.6926,-0.7057,-0.714,-0.7313,-0.7372,-0.8166,-0.911,-1.0243,-1.1414,-1.2635,-1.3811,-1.3919,-1.3925,-1.3883,-1.3636,-1.3485,-1.3642,-1.3642,-1.3588,-1.3491,-1.3346,-1.3201,-1.2953,-1.2953,-1.2905,-1.2608,-1.2316,-1.1722,-1.0979,-1.04,-0.9822,-0.876,-0.7516,-0.6718,-0.6145,-0.5557,-0.5455,-0.5213,-0.5051,-0.5079,-0.5191,-0.528,-0.5544,-0.5811,-0.5855,-0.5994,-0.6083,-0.6083,-0.6213,-0.6346,-0.6476,-0.6656,-0.6745,-0.6877,-0.7102,-0.7234,-0.7143,-0.7054,-0.6881,-0.6166,-0.4779,-0.3487,-0.2149,-0.1255,-0.0494,-0.0493,-0.0538,-0.0494,-0.0314,-0.1211,-0.1436,-0.157,-0.2018,-0.2778,-0.3674,-0.4166,-0.4304,-0.4332,-0.4371,-0.439,-0.4463,-0.4561,-0.4659,-0.4652,-0.462,-0.4589,-0.454,-0.4528,-0.4512,-0.4473,-0.4504,-0.4561,-0.4632,-0.4655,-0.472,-0.4734,-0.4784,-0.4834,-0.4935,-0.5087,-0.5338,-0.5586,-0.5839,-0.5989,-0.5937,-0.6137,-0.6287,-0.6337,-0.6387,-0.6387,-0.6489,-0.6556,-0.6575,-0.6611,-0.6699,-0.6665,-0.6661,-0.6731,-0.6892,-0.6892,-0.7584,-0.8856,-0.9944,-1.1175,-1.2996,-1.3582,-1.3684,-1.3642,-1.3593,-1.3346,-1.2905,-1.2807,-1.3147,-1.3195,-1.3001,-1.271,-1.2565,-1.2316,-1.217,-1.197,-1.1727,-1.1331,-1.0739,-0.9891,-0.9037,-0.8423,-0.7419,-0.6286,-0.6105,-0.5543,-0.5211,-0.506,-0.4928,-0.4806,-0.4797,-0.4837,-0.4924,-0.5057,-0.5324,-0.5502,-0.5638,-0.5772,-0.5816,-0.5994,-0.6124,-0.6213,-0.6302,-0.6435,-0.6523,-0.6656,-0.6745,-0.6653,-0.6476,-0.6302,-0.5228,-0.3799,-0.264,-0.1792,-0.0852,-0.018,-0.0269,-0.0359,-0.0359,0.0,-0.1166,-0.1391,-0.1391,-0.1883,-0.2644,-0.3227,-0.3539,-0.3765,-0.4156,-0.4404,-0.4487,-0.4536,-0.4574,-0.4677,-0.4679,-0.4673,-0.4736,-0.4594,-0.4569,-0.4636,-0.4479,-0.4542,-0.4589,-0.4626,-0.4665,-0.4726,-0.4734,-0.4782,-0.4834,-0.4935,-0.5087,-0.524,-0.5386,-0.5586,-0.5737,-0.5737,-0.5887,-0.6087,-0.6237,-0.6287,-0.6337,-0.6387,-0.6388,-0.6363,-0.6363,-0.638,-0.6347,-0.6368,-0.6481,-0.6642,-0.6642,-0.7039,-0.8266,-0.9452,-1.0974,-1.2597,-1.334,-1.3389,-1.3346,-1.3104,-1.2759,-1.2365,-1.2024,-1.2122,-1.2219,-1.2122,-1.1975,-1.1829,-1.1536,-1.1243,-1.1042,-1.0792,-1.0297,-0.9756,-0.8696,-0.7641,-0.6784,-0.5891,-0.5635,-0.5611,-0.5337,-0.4952,-0.4746,-0.4614,-0.4569,-0.4523,-0.4523,-0.4567,-0.4746,-0.4966,-0.5144,-0.528,-0.5458,-0.5594,-0.5727,-0.5861,-0.5949,-0.6038,-0.6041,-0.6171,-0.6257,-0.6257,-0.6171,-0.5947,-0.5636,-0.4607,-0.3624,-0.2597,-0.1704,-0.0808,0.0,0.0,0.0,-0.0135,0.0,-0.0807,-0.1391,-0.1391,-0.1705,-0.2155,-0.2198,-0.2376,-0.2873,-0.3692,-0.4326,-0.4446,-0.4657,-0.4722,-0.4745,-0.4724,-0.4741,-0.4745,-0.4647,-0.4622,-0.4754,-0.4614,-0.4596,-0.4659,-0.4708,-0.471,-0.4741,-0.4734,-0.4782,-0.4782,-0.4885,-0.4985,-0.5138,-0.5138,-0.5288,-0.5486,-0.5434,-0.5584,-0.5887,-0.5987,-0.6087,-0.6337,-0.6387,-0.6387,-0.6381,-0.6384,-0.6379,-0.6379,-0.6387,-0.6387,-0.6387,-0.6437,-0.6587,-0.7726,-0.9008,-1.0681,-1.1809,-1.27,-1.2948,-1.2807,-1.2516,-1.2127,-1.1736,-1.1438,-1.1243,-1.1145,-1.1292,-1.1243,-1.1145,-1.085,-1.0654,-1.0507,-0.9801,-0.9201,-0.8541,-0.7631,-0.6903,-0.6282,-0.5676,-0.5452,-0.5344,-0.4982,-0.4612,-0.4567,-0.4478,-0.43,-0.43,-0.4344,-0.4344,-0.4344,-0.461,-0.4832,-0.4966,-0.5102,-0.5282,-0.5413,-0.5505,-0.5683,-0.5774,-0.573,-0.5819,-0.5947,-0.5861,-0.5733,-0.5644,-0.5552,-0.4746,-0.3807,-0.2823,-0.1884,-0.0943,0.0,0.0,0.0,0.0,0.0,-0.0807,-0.1391,-0.1211,-0.157,-0.2019,-0.1389,-0.1432,-0.2059,-0.2294,-0.2946,-0.3811,-0.4351,-0.4635,-0.4524,-0.4611,-0.4634,-0.4632,-0.4458,-0.4663,-0.4576,-0.451,-0.4411,-0.4651,-0.4579,-0.4648,-0.4744,-0.4776,-0.4782,-0.4782,-0.4784,-0.4834,-0.4885,-0.4935,-0.5085,-0.5236,-0.5186,-0.5236,-0.5639,-0.5787,-0.5987,-0.6287,-0.6387,-0.6387,-0.6387,-0.6387,-0.6387,-0.6387,-0.6387,-0.6387,-0.6387,-0.6387,-0.6883,-0.7776,-0.911,-1.0288,-1.1272,-1.2068,-1.2316,-1.2219,-1.1829,-1.1389,-1.1002,-1.0654,-1.0364,-1.0265,-1.0458,-1.0507,-1.0458,-1.0359,-1.0167,-0.9817,-0.9008,-0.8192,-0.7427,-0.661,-0.6216,-0.5871,-0.5548,-0.5322,-0.4899,-0.4542,-0.4393,-0.4348,-0.421,-0.4076,-0.4119,-0.4253,-0.4253,-0.4076,-0.4166,-0.4523,-0.4701,-0.4792,-0.4926,-0.506,-0.5191,-0.5369,-0.5369,-0.5324,-0.5458,-0.5636,-0.5686,-0.5688,-0.5688,-0.5466,-0.4703,-0.3898,-0.3092,-0.2152,-0.1122,0.0,0.0,0.0,0.0,0.0,-0.0314,-0.0942,-0.1166,-0.1301,-0.1256,-0.0806,-0.0627,-0.0718,-0.0949,-0.1361,-0.2144,-0.3269,-0.3962,-0.3952,-0.4049,-0.4052,-0.4058,-0.3985,-0.3892,-0.3917,-0.4098,-0.3941,-0.4111,-0.4365,-0.434,-0.4429,-0.4732,-0.4782,-0.4782,-0.4782,-0.4784,-0.4782,-0.4784,-0.4885,-0.4987,-0.4885,-0.4985,-0.5388,-0.5486,-0.5837,-0.6237,-0.6337,-0.6387,-0.6387,-0.6387,-0.6387,-0.6387,-0.6387,-0.6387,-0.6637,-0.6883,-0.7282,-0.8269,-0.955,-1.0391,-1.0979,-1.1477,-1.1883,-1.159,-1.1145,-1.0703,-1.0458,-1.0068,-0.9871,-0.9723,-0.9871,-0.9772,-0.9673,-0.992,-0.9821,-0.9575,-0.892,-0.8097,-0.7266,-0.6393,-0.5764,-0.5309,-0.4928,-0.4442,-0.3848,-0.3685,-0.3756,-0.3702,-0.3583,-0.3539,-0.3719,-0.3896,-0.3853,-0.3719,-0.3719,-0.4076,-0.4389,-0.4435,-0.4614,-0.4837,-0.4968,-0.5099,-0.5055,-0.4966,-0.5188,-0.5458,-0.5597,-0.5688,-0.5644,-0.5374,-0.4656,-0.3896,-0.3092,-0.2241,-0.1256,0.0,0.0,0.0,0.0,0.0,0.0269,-0.0448,-0.0807,-0.0718,-0.0269,0.0,0.0359,0.0674,0.0319,0.0184,0.0,-0.1695,-0.2504,-0.2829,-0.2856,-0.2939,-0.3002,-0.3078,-0.3039,-0.3456,-0.3465,-0.3807,-0.3959,-0.3977,-0.423,-0.4429,-0.4634,-0.4734,-0.4782,-0.4782,-0.4782,-0.4782,-0.4782,-0.4784,-0.4782,-0.4834,-0.4935,-0.5186,-0.5386,-0.5687,-0.5987,-0.6237,-0.6337,-0.6387,-0.6387,-0.6387,-0.6387,-0.6387,-0.6387,-0.6634,-0.708,-0.7528,-0.8368,-0.955,-1.019,-1.0734,-1.1282,-1.1438,-1.1145,-1.0609,-1.0364,-1.0167,-0.9723,-0.9426,-0.9278,-0.908,-0.8981,-0.8973,-0.9171,-0.911,-0.8859,-0.8464,-0.7638,-0.6982,-0.6069,-0.5444,-0.4939,-0.4518,-0.3887,-0.3211,-0.3133,-0.3203,-0.3136,-0.3064,-0.3099,-0.3278,-0.3317,-0.3272,-0.3272,-0.3361,-0.3583,-0.3851,-0.4076,-0.4302,-0.4569,-0.4701,-0.4832,-0.4788,-0.4743,-0.5013,-0.5282,-0.5508,-0.5644,-0.5599,-0.5196,-0.4612,-0.3762,-0.2913,-0.2062,-0.1166,0.0,0.0,0.0,0.0,0.0,0.0269,-0.0314,0.0718,0.0942,0.0718,0.1705,0.2019,0.1616,0.1486,0.1443,0.1233,0.061,-0.0337,-0.1175,-0.1244,-0.1557,-0.2311,-0.2249,-0.3057,-0.3728,-0.3379,-0.388,-0.4131,-0.3831,-0.4483,-0.4634,-0.4634,-0.4784,-0.4782,-0.4782,-0.4782,-0.4782,-0.4782,-0.4782,-0.4782,-0.4834,-0.4834,-0.5035,-0.5336,-0.5639,-0.5787,-0.6037,-0.6337,-0.6387,-0.6387,-0.6387,-0.6387,-0.6387,-0.6387,-0.6487,-0.6781,-0.7378,-0.8368,-0.9452,-1.0145,-1.0636,-1.1184,-1.0993,-1.0654,-1.0167,-0.992,-0.9821,-0.9377,-0.8825,-0.8581,-0.8283,-0.8077,-0.7813,-0.7849,-0.7714,-0.747,-0.7071,-0.6382,-0.6059,-0.5439,-0.5324,-0.5065,-0.4661,-0.4209,-0.3547,-0.3066,-0.3015,-0.2897,-0.2784,-0.2632,-0.2805,-0.2825,-0.278,-0.269,-0.2869,-0.3092,-0.3405,-0.3719,-0.3987,-0.4302,-0.4433,-0.4476,-0.4476,-0.452,-0.479,-0.5104,-0.5463,-0.5599,-0.5552,-0.5238,-0.4656,-0.3762,-0.2555,-0.166,-0.0808,-0.0359,0.0,0.0,0.0,0.0]}]]